[[{"header":{"parameterUnit":"m.s-1","parameterCategory":1,"la1":31.0,"la2":29.5877,"lo1":-88.7671,"lo2":-86.6584,"dy":0.0162,"dx":0.0185,"nx":115,"ny":88,"refTime":"2023-04-22T12:00:00:Z","depth":0,"parameterNumber":2,"parameterNumberName":"U-component_of_WINDS"},"data":[0.0,0.0,0.0,0.0,0.0,0.0,0.0,0.0,0.0,0.0,0.0,0.0,0.0,0.0,0.0,0.0,0.0,0.0,0.0,0.0,0.0,0.0,0.0,0.0,0.0,0.0,0.0,0.0,0.0,0.0,0.0,0.0,0.0,0.0,0.0,0.0,0.0,0.0,0.0,0.0,0.0,0.0,0.0,0.0,0.0,0.0,0.0,0.0,0.0,0.0,0.0,0.0,0.0,0.0,0.0,0.0,0.0,0.0,0.0,0.0,0.0,0.0,0.0,0.0,0.0,0.0,0.0,0.0,0.0,0.0,0.0,0.0,0.0,0.0,0.0,0.0,0.0,0.0,0.0,0.0,0.0,0.0,0.0,0.0,0.0,0.0,0.0,0.0,0.0,0.0,0.0,0.0,0.0,0.0,0.0,0.0,0.0,0.0,0.0,0.0,0.0,0.0,0.0,0.0,0.0,0.0,0.0,0.0,0.0,0.0,0.0,0.0,0.0,0.0,0.0,0.0,0.0,0.0,0.0,0.0,0.0,0.0,0.0,0.0,0.0,0.0,0.0,0.0,0.0,0.0,0.0,0.0,0.0,0.0,0.0,0.0,0.0,0.0,0.0,0.0,0.0,0.0,0.0,0.0,0.0,0.0,0.0,0.0,0.0,0.0,0.0,0.0,0.0,0.0,0.0,0.0,0.0,0.0,0.0,0.0,0.0,0.0,0.0,0.0,0.0,0.0,0.0,0.0,0.0,0.0,0.0,0.0,0.0,0.0,0.0,0.0,0.0,0.0,0.0,0.0,0.0,0.0,0.0,0.0,0.0,0.0,0.0,0.0,0.0,0.0,0.0,0.0,0.0,0.0,0.0,0.0,0.0,0.0,0.0,0.0,0.0,0.0,0.0,0.0,0.0,0.0,0.0,0.0,0.0,0.0,0.0,0.0,0.0,0.0,0.0,0.0,0.0,0.0,0.0,0.0,0.0,0.0,0.0,0.0,0.0,0.0,0.0,0.0,0.0,0.0,0.0,0.0,0.0,0.0,0.0,0.0,0.0,0.0,0.0,0.0,0.0,0.0,0.0,0.0,0.0,0.0,0.0,0.0,0.0,0.0,0.0,0.0,0.0,0.0,0.0,0.0,0.0,0.0,0.0,0.0,0.0,0.0,0.0,0.0,0.0,0.0,0.0,0.0,0.0,0.0,0.0,0.0,0.0,0.0,0.0,0.0,0.0,0.0,0.0,0.0,0.0,0.0,0.0,0.0,0.0,0.0,0.0,0.0,0.0,0.0,0.0,0.0,0.0,0.0,0.0,0.0,0.0,0.0,0.0,0.0,0.0,0.0,0.0,0.0,0.0,0.0,0.0,0.0,0.0,0.0,0.0,0.0,0.0,0.0,0.0,0.0,0.0,0.0,0.0,0.0,0.0,0.0,0.0,0.0,0.0,0.0,0.0,0.0,0.0,0.0,0.0,0.0,0.0,0.0,0.0,0.0,0.0,0.0,0.0,0.0,0.0,0.0,0.0,0.0,0.0,0.0,0.0,0.0,0.0,0.0,0.0,0.0,0.0,0.0,0.0,0.0,0.0,0.0,0.0,0.0,0.0,0.0,0.0,0.0,0.0,0.0,0.0,0.0,0.0,0.0,0.0,0.0,0.0,0.0,0.0,0.0,0.0,0.0,0.0,0.0,0.0,0.0,0.0,0.0,0.0,0.0,0.0,0.0,0.0,0.0,0.0,0.0,0.0,0.0,0.0,0.0,0.0,0.0,0.0,0.0,0.0,0.0,0.0,0.0,0.0,0.0,0.0,0.0,0.0,0.0,0.0,0.0,0.0,0.0,0.0,0.0,0.0,0.0,0.0,0.0,0.0,0.0,0.0,0.0,0.0,0.0,0.0,0.0,0.0,0.0,0.0,0.0,0.0,0.0,0.0,0.0,0.0,0.0,0.0,0.0,0.0,0.0,0.0,0.0,0.0,0.0,0.0,0.0,0.0,0.0,0.0,0.0,0.0,0.0,0.0,0.0,0.0,0.0,0.0,0.0,0.0,0.0,0.0,0.0,0.0,0.0,0.0,0.0,0.0,0.0,0.0,0.0,0.0,0.0,0.0,0.0,0.0,0.0,0.0,0.0,0.0,0.0,0.0,0.0,0.0,0.0,0.0,0.0,0.0,0.0,0.0,0.0,0.0,0.0,0.0,0.0,0.0,0.0,0.0,0.0,0.0,0.0,0.0,0.0,0.0,0.0,0.0,0.0,0.0,0.0,0.0,0.0,0.0,0.0,0.0,0.0,0.0,0.0,0.0,0.0,0.0,0.0,0.0,0.0,0.0,0.0,0.0,0.0,0.0,0.0,0.0,0.0,0.0,0.0,0.0,0.0,0.0,0.0,0.0,0.0,0.0,0.0,0.0,0.0,0.0,0.0,0.0,0.0,0.0,0.0,0.0,0.0,0.0,0.0,0.0,0.0,0.0,0.0,0.0,0.0,0.0,0.0,0.0,0.0,0.0,0.0,0.0,0.0,0.0,0.0,0.0,0.0,0.0,0.0,0.0,0.0,0.0,0.0,0.0,0.0,0.0,0.0,0.0,0.0,0.0,0.0,0.0,0.0,0.0,0.0,0.0,0.0,0.0,0.0,0.0,0.0,0.0,0.0,0.0,0.0,0.0,0.0,0.0,0.0,0.0,0.0,0.0,0.0,0.0,0.0,0.0,0.0,0.0,0.0,0.0,0.0,0.0,0.0,0.0,0.0,0.0,0.0,0.0,0.0,0.0,0.0,0.0,0.0,0.0,0.0,0.0,0.0,0.0,0.0,0.0,0.0,0.0,0.0,0.0,0.0,0.0,0.0,0.0,0.0,0.0,0.0,0.0,0.0,0.0,0.0,0.0,0.0,0.0,0.0,0.0,0.0,0.0,0.0,0.0,0.0,0.0,0.0,0.0,0.0,0.0,0.0,0.0,0.0,0.0,0.0,0.0,0.0,0.0,0.0,0.0,0.0,0.0,0.0,0.0,0.0,0.0,0.0,0.0,0.0,0.0,0.0,0.0,0.0,0.0,0.0,0.0,0.0,0.0,0.0,0.0,0.0,0.0,0.0,0.0,0.0,0.0,0.0,0.0,0.0,0.0,0.0,0.0,0.0,0.0,0.0,0.0,0.0,0.0,0.0,0.0,0.0,0.0,0.0,0.0,0.0,0.0,0.0,0.0,0.0,0.0,0.0,0.0,0.0,0.0,0.0,0.0,0.0,0.0,0.0,0.0,0.0,0.0,0.0,0.0,0.0,0.0,0.0,0.0,0.0,0.0,0.0,0.0,0.0,0.0,0.0,0.0,0.0,0.0,0.0,0.0,0.0,0.0,0.0,0.0,0.0,0.0,0.0,0.0,0.0,0.0,0.0,0.0,0.0,0.0,0.0,0.0,0.0,0.0,0.0,0.0,0.0,0.0,0.0,0.0,0.0,0.0,0.0,0.0,0.0,0.0,0.0,0.0,0.0,0.0,0.0,0.0,0.0,0.0,0.0,0.0,0.0,0.0,0.0,0.0,0.0,0.0,0.0,0.0,0.0,0.0,0.0,0.0,0.0,0.0,0.0,0.0,0.0,0.0,0.0,0.0,0.0,0.0,0.0,0.0,0.0,0.0,0.0,0.0,0.0,0.0,0.0,0.0,0.0,0.0,0.0,0.0,0.0,0.0,0.0,0.0,0.0,0.0,0.0,0.0,0.0,0.0,0.0,0.0,0.0,0.0,0.0,0.0,0.0,0.0,0.0,0.0,0.0,0.0,0.0,0.0,0.0,0.0,0.0,0.0,0.0,0.0,0.0,0.0,0.0,0.0,0.0,0.0,0.0,0.0,0.0,0.0,0.0,0.0,0.0,0.0,0.0,0.0,0.0,0.0,0.0,0.0,0.0,0.0,0.0,0.0,0.0,0.0,0.0,0.0,0.0,0.0,0.0,0.0,0.0,0.0,0.0,0.0,0.0,0.0,0.0,0.0,0.0,0.0,0.0,0.0,0.0,0.0,0.0,0.0,0.0,0.0,0.0,0.0,0.0,0.0,0.0,0.0,0.0,0.0,0.0,0.0,0.0,0.0,0.0,0.0,0.0,0.0,0.0,0.0,0.0,0.0,0.0,0.0,0.0,0.0,0.0,0.0,0.0,0.0,0.0,0.0,0.0,0.0,0.0,0.0,0.0,0.0,0.0,0.0,0.0,0.0,0.0,0.0,0.0,0.0,0.0,0.0,0.0,0.0,0.0,0.0,0.0,0.0,0.0,0.0,0.0,2.1981,0.0,0.0,0.0,0.0,0.0,0.0,0.0,0.0,0.0,0.0,0.0,0.0,0.0,0.0,0.0,0.0,0.0,0.0,0.0,0.0,0.0,0.0,0.0,0.0,0.0,0.0,0.0,0.0,0.0,0.0,0.0,0.0,0.0,0.0,0.0,0.0,0.0,0.0,0.0,0.0,0.0,0.0,0.0,0.0,0.0,0.0,0.0,0.0,0.0,0.0,0.0,0.0,0.0,0.0,0.0,0.0,0.0,0.0,0.0,0.0,0.0,0.0,0.0,0.0,0.0,0.0,0.0,0.0,0.0,0.0,0.0,0.0,0.0,0.0,0.0,0.0,0.0,0.0,0.0,0.0,0.0,0.0,0.0,0.0,0.0,0.0,0.0,0.0,0.0,0.0,0.0,0.0,0.0,0.0,0.0,0.0,0.0,0.0,0.0,0.0,0.0,0.0,0.0,0.0,0.0,0.0,0.0,0.0,0.0,0.0,2.4793,2.5066,2.3098,2.2,2.2002,0.0,0.0,0.0,0.0,0.0,0.0,0.0,0.0,0.0,0.0,0.0,0.0,0.0,0.0,0.0,0.0,0.0,0.0,0.0,0.0,0.0,0.0,0.0,0.0,0.0,0.0,0.0,0.0,0.0,0.0,0.0,0.0,0.0,0.0,0.0,0.0,0.0,0.0,0.0,0.0,0.0,0.0,0.0,0.0,0.0,0.0,0.0,0.0,0.0,0.0,0.0,0.0,0.0,0.0,0.0,0.0,0.0,0.0,0.0,0.0,0.0,0.0,0.0,0.0,0.0,0.0,0.0,0.0,0.0,0.0,0.0,0.0,0.0,0.0,0.0,0.0,0.0,0.0,0.0,0.0,0.0,0.0,0.0,0.0,0.0,0.0,0.0,0.0,0.0,0.0,0.0,0.0,0.0,0.0,0.0,0.0,0.0,0.0,0.0,0.0,0.0,0.0,0.0,0.0,0.0,0.0,0.0,0.0,0.0,0.0,0.0,0.0,2.3,2.2072,2.2219,0.0,0.0,0.0,0.0,0.0,0.0,0.0,0.0,0.0,0.0,0.0,0.0,0.0,0.0,0.0,0.0,0.0,0.0,0.0,0.0,0.0,0.0,0.0,0.0,0.0,0.0,0.0,0.0,0.0,0.0,0.0,0.0,0.0,0.0,0.0,0.0,0.0,0.0,0.0,0.0,0.0,0.0,0.0,0.0,0.0,0.0,0.0,0.0,0.0,0.0,0.0,0.0,0.0,0.0,0.0,0.0,0.0,0.0,0.0,0.0,0.0,0.0,0.0,0.0,0.0,0.0,0.0,0.0,0.0,0.0,0.0,0.0,0.0,0.0,0.0,0.0,0.0,0.0,0.0,0.0,0.0,0.0,0.0,0.0,0.0,0.0,0.0,0.0,0.0,0.0,0.0,0.0,0.0,0.0,0.0,0.0,0.0,0.0,0.0,0.0,0.0,0.0,0.0,0.0,0.0,0.0,0.0,0.0,0.0,0.0,2.1729,2.2228,2.2045,0.0,2.2899,0.0,0.0,0.0,0.0,0.0,0.0,0.0,0.0,0.0,0.0,0.0,0.0,0.0,0.0,0.0,0.0,0.0,0.0,0.0,0.0,0.0,0.0,0.0,0.0,0.0,0.0,0.0,0.0,0.0,0.0,0.0,0.0,0.0,0.0,0.0,0.0,0.0,0.0,0.0,0.0,0.0,0.0,0.0,0.0,0.0,0.0,0.0,0.0,0.0,0.0,0.0,0.0,0.0,0.0,0.0,0.0,0.0,0.0,0.0,0.0,0.0,0.0,0.0,0.0,0.0,0.0,0.0,0.0,0.0,0.0,0.0,0.0,0.0,0.0,0.0,0.0,0.0,0.0,0.0,0.0,0.0,0.0,0.0,0.0,0.0,0.0,0.0,0.0,0.0,0.0,0.0,0.0,0.0,0.0,0.0,0.0,0.0,0.0,0.0,0.0,0.0,0.0,0.0,0.0,0.0,0.0,0.0,0.0,0.0,0.0,2.185,2.3221,2.211,2.1874,0.0,0.0,0.0,0.0,0.0,0.0,0.0,0.0,0.0,0.0,0.0,0.0,0.0,0.0,0.0,0.0,0.0,0.0,0.0,0.0,0.0,0.0,0.0,0.0,0.0,0.0,0.0,0.0,0.0,0.0,0.0,0.0,0.0,0.0,0.0,0.0,0.0,0.0,0.0,0.0,0.0,0.0,0.0,0.0,0.0,0.0,0.0,0.0,0.0,0.0,0.0,0.0,0.0,0.0,0.0,0.0,0.0,0.0,0.0,0.0,0.0,0.0,0.0,0.0,0.0,0.0,0.0,0.0,0.0,0.0,0.0,0.0,0.0,0.0,0.0,0.0,0.0,0.0,0.0,0.0,0.0,0.0,0.0,0.0,0.0,0.0,0.0,0.0,0.0,0.0,0.0,0.0,0.0,0.0,0.0,0.0,0.0,0.0,0.0,0.0,0.0,0.0,0.0,0.0,0.0,0.0,0.0,0.0,0.0,0.0,2.3246,2.2009,2.354,2.221,2.1737,2.2459,0.0,0.0,0.0,0.0,0.0,0.0,0.0,0.0,0.0,0.0,0.0,0.0,0.0,0.0,0.0,0.0,0.0,0.0,0.0,0.0,0.0,0.0,0.0,0.0,0.0,0.0,0.0,0.0,0.0,0.0,0.0,0.0,0.0,0.0,0.0,0.0,0.0,0.0,0.0,0.0,0.0,0.0,0.0,0.0,0.0,0.0,0.0,0.0,0.0,0.0,0.0,0.0,0.0,0.0,0.0,0.0,0.0,0.0,0.0,0.0,0.0,0.0,0.0,0.0,0.0,0.0,0.0,0.0,0.0,0.0,0.0,0.0,0.0,0.0,0.0,0.0,0.0,0.0,0.0,0.0,0.0,0.0,0.0,0.0,0.0,0.0,0.0,0.0,0.0,0.0,0.0,0.0,0.0,0.0,0.0,0.0,0.0,0.0,0.0,0.0,0.0,0.0,0.0,0.0,0.0,0.0,0.0,0.0,2.4682,2.2432,2.1641,2.2552,2.2112,2.2051,0.0,0.0,0.0,0.0,0.0,0.0,0.0,0.0,0.0,0.0,0.0,0.0,0.0,0.0,0.0,0.0,0.0,0.0,0.0,0.0,0.0,0.0,0.0,0.0,0.0,0.0,0.0,0.0,0.0,0.0,0.0,0.0,0.0,0.0,0.0,0.0,0.0,0.0,0.0,0.0,0.0,0.0,0.0,0.0,0.0,0.0,0.0,0.0,0.0,0.0,0.0,0.0,0.0,0.0,0.0,0.0,0.0,0.0,0.0,0.0,0.0,0.0,0.0,0.0,0.0,0.0,0.0,0.0,0.0,0.0,0.0,0.0,0.0,0.0,0.0,0.0,0.0,0.0,0.0,0.0,0.0,0.0,0.0,0.0,0.0,0.0,0.0,0.0,0.0,0.0,0.0,0.0,0.0,0.0,0.0,0.0,0.0,0.0,0.0,0.0,0.0,0.0,0.0,0.0,0.0,0.0,0.0,0.0,0.0,2.3885,2.2524,2.1849,2.2092,2.1699,2.166,0.0,0.0,0.0,0.0,0.0,0.0,0.0,0.0,0.0,0.0,0.0,0.0,0.0,0.0,0.0,0.0,0.0,0.0,0.0,0.0,0.0,0.0,0.0,0.0,0.0,0.0,0.0,0.0,0.0,0.0,0.0,0.0,0.0,0.0,0.0,0.0,0.0,0.0,0.0,0.0,0.0,0.0,0.0,0.0,0.0,0.0,0.0,0.0,0.0,0.0,0.0,0.0,0.0,0.0,0.0,0.0,0.0,0.0,0.0,0.0,0.0,0.0,0.0,0.0,0.0,0.0,0.0,0.0,0.0,0.0,0.0,0.0,0.0,0.0,0.0,0.0,0.0,0.0,0.0,0.0,0.0,0.0,0.0,0.0,0.0,0.0,0.0,0.0,0.0,0.0,0.0,0.0,0.0,0.0,0.0,0.0,0.0,0.0,0.0,0.0,0.0,0.0,0.0,0.0,0.0,0.0,0.0,0.0,0.0,2.284,0.0,2.1707,2.1681,2.1366,2.1288,0.0,0.0,0.0,0.0,0.0,0.0,0.0,0.0,0.0,0.0,0.0,0.0,0.0,0.0,0.0,0.0,0.0,0.0,0.0,0.0,0.0,0.0,0.0,0.0,0.0,0.0,0.0,0.0,0.0,0.0,0.0,0.0,0.0,0.0,0.0,0.0,0.0,0.0,0.0,0.0,0.0,0.0,0.0,0.0,0.0,0.0,0.0,0.0,0.0,0.0,0.0,0.0,0.0,0.0,0.0,0.0,0.0,0.0,0.0,0.0,0.0,0.0,0.0,0.0,0.0,0.0,0.0,0.0,0.0,0.0,0.0,0.0,0.0,0.0,0.0,0.0,0.0,0.0,0.0,0.0,0.0,0.0,0.0,0.0,0.0,0.0,0.0,0.0,0.0,0.0,0.0,0.0,0.0,0.0,0.0,0.0,0.0,0.0,0.0,0.0,0.0,0.0,0.0,0.0,0.0,0.0,0.0,0.0,2.23,2.1271,2.1211,2.1231,2.123,2.121,2.1015,0.0,0.0,0.0,0.0,0.0,0.0,0.0,0.0,0.0,0.0,0.0,0.0,0.0,0.0,0.0,0.0,0.0,0.0,0.0,0.0,0.0,0.0,0.0,0.0,0.0,0.0,0.0,0.0,0.0,0.0,0.0,0.0,0.0,0.0,0.0,0.0,0.0,0.0,0.0,0.0,0.0,0.0,0.0,0.0,0.0,0.0,0.0,0.0,0.0,0.0,0.0,0.0,0.0,0.0,0.0,0.0,0.0,0.0,0.0,0.0,0.0,0.0,0.0,0.0,0.0,0.0,0.0,0.0,0.0,0.0,0.0,0.0,0.0,0.0,0.0,0.0,0.0,0.0,0.0,0.0,0.0,0.0,0.0,0.0,0.0,0.0,0.0,0.0,0.0,0.0,0.0,0.0,0.0,0.0,0.0,0.0,0.0,0.0,0.0,0.0,0.0,0.0,0.0,0.0,0.0,0.0,0.0,0.0,0.0,2.0781,2.0781,2.1211,2.2031,2.125,2.1153,0.0,0.0,0.0,0.0,0.0,0.0,0.0,0.0,0.0,0.0,0.0,0.0,0.0,0.0,0.0,0.0,0.0,0.0,0.0,0.0,0.0,0.0,0.0,0.0,0.0,0.0,0.0,0.0,0.0,0.0,0.0,0.0,0.0,0.0,0.0,0.0,0.0,0.0,0.0,0.0,0.0,0.0,0.0,0.0,0.0,0.0,0.0,0.0,0.0,0.0,0.0,0.0,0.0,0.0,0.0,0.0,0.0,0.0,0.0,0.0,0.0,0.0,0.0,0.0,0.0,0.0,0.0,0.0,0.0,0.0,0.0,0.0,0.0,0.0,0.0,0.0,0.0,0.0,0.0,0.0,0.0,0.0,0.0,0.0,0.0,0.0,0.0,0.0,0.0,0.0,0.0,0.0,0.0,0.0,0.0,0.0,0.0,0.0,0.0,0.0,0.0,0.0,0.0,0.0,0.0,0.0,0.0,0.0,0.0,2.0683,2.0733,2.1162,2.1951,2.12,2.1109,2.1738,0.0,0.0,0.0,0.0,0.0,0.0,0.0,0.0,0.0,0.0,0.0,0.0,0.0,0.0,0.0,0.0,0.0,0.0,0.0,0.0,0.0,0.0,0.0,0.0,0.0,0.0,0.0,0.0,0.0,0.0,0.0,0.0,0.0,0.0,0.0,0.0,0.0,0.0,0.0,0.0,0.0,0.0,0.0,0.0,0.0,0.0,0.0,0.0,0.0,0.0,0.0,0.0,0.0,0.0,0.0,0.0,0.0,0.0,0.0,0.0,0.0,0.0,0.0,0.0,0.0,0.0,0.0,0.0,0.0,0.0,0.0,0.0,0.0,0.0,0.0,0.0,0.0,0.0,0.0,0.0,0.0,0.0,0.0,0.0,0.0,0.0,0.0,0.0,0.0,0.0,0.0,0.0,0.0,0.0,0.0,0.0,0.0,0.0,0.0,0.0,0.0,0.0,0.0,0.0,0.0,0.0,0.0,0.0,2.0759,2.0918,2.1086,2.1245,2.1156,2.0991,0.0,0.0,0.0,0.0,0.0,0.0,0.0,0.0,0.0,0.0,0.0,0.0,0.0,0.0,0.0,0.0,0.0,0.0,0.0,0.0,0.0,0.0,0.0,0.0,0.0,0.0,0.0,0.0,0.0,0.0,0.0,0.0,0.0,0.0,0.0,0.0,0.0,0.0,0.0,0.0,0.0,0.0,0.0,0.0,0.0,0.0,0.0,0.0,0.0,0.0,0.0,0.0,0.0,0.0,0.0,0.0,0.0,0.0,0.0,0.0,0.0,0.0,0.0,0.0,0.0,0.0,0.0,0.0,0.0,0.0,0.0,0.0,0.0,0.0,0.0,0.0,0.0,0.0,0.0,0.0,0.0,0.0,0.0,0.0,0.0,0.0,0.0,0.0,0.0,0.0,0.0,0.0,0.0,0.0,0.0,0.0,0.0,0.0,0.0,0.0,0.0,0.0,0.0,0.0,0.0,0.0,0.0,0.0,0.0,2.1066,2.0508,2.084,2.2182,2.1553,2.1596,0.0,0.0,0.0,0.0,0.0,0.0,0.0,0.0,0.0,0.0,0.0,0.0,0.0,0.0,0.0,0.0,0.0,0.0,0.0,0.0,0.0,0.0,0.0,0.0,0.0,0.0,0.0,0.0,0.0,0.0,0.0,0.0,0.0,0.0,0.0,0.0,0.0,0.0,0.0,0.0,0.0,0.0,0.0,0.0,0.0,0.0,0.0,0.0,0.0,0.0,0.0,0.0,0.0,0.0,0.0,0.0,0.0,0.0,0.0,0.0,0.0,0.0,0.0,0.0,0.0,0.0,0.0,0.0,0.0,0.0,0.0,0.0,0.0,0.0,0.0,0.0,0.0,0.0,0.0,0.0,0.0,0.0,0.0,0.0,0.0,0.0,0.0,0.0,0.0,0.0,0.0,0.0,0.0,0.0,0.0,0.0,0.0,0.0,0.0,0.0,0.0,0.0,0.0,0.0,0.0,0.0,0.0,0.0,2.0122,2.0842,2.0055,2.0155,2.1252,2.1928,2.233,0.0,0.0,0.0,0.0,0.0,0.0,0.0,0.0,0.0,0.0,0.0,0.0,0.0,0.0,0.0,0.0,0.0,0.0,0.0,0.0,0.0,0.0,0.0,0.0,0.0,0.0,0.0,0.0,0.0,0.0,0.0,0.0,0.0,0.0,0.0,0.0,0.0,0.0,0.0,0.0,0.0,0.0,0.0,0.0,0.0,0.0,0.0,0.0,0.0,0.0,0.0,0.0,0.0,0.0,0.0,0.0,0.0,0.0,0.0,0.0,0.0,0.0,0.0,0.0,0.0,0.0,0.0,0.0,0.0,0.0,0.0,0.0,0.0,0.0,0.0,0.0,0.0,0.0,0.0,0.0,0.0,0.0,0.0,0.0,0.0,0.0,0.0,0.0,0.0,0.0,0.0,0.0,0.0,0.0,0.0,0.0,0.0,0.0,0.0,0.0,0.0,0.0,0.0,0.0,0.0,0.0,0.0,0.0,2.0215,2.0062,1.9456,1.9152,1.9296,2.2029,2.2864,0.0,0.0,0.0,0.0,0.0,0.0,0.0,0.0,0.0,0.0,0.0,0.0,0.0,0.0,0.0,0.0,0.0,0.0,0.0,0.0,0.0,0.0,0.0,0.0,0.0,0.0,0.0,0.0,0.0,0.0,0.0,0.0,0.0,0.0,0.0,0.0,0.0,0.0,0.0,0.0,0.0,0.0,0.0,0.0,0.0,0.0,0.0,0.0,0.0,0.0,0.0,0.0,0.0,0.0,0.0,0.0,0.0,0.0,0.0,0.0,0.0,0.0,0.0,0.0,0.0,0.0,0.0,0.0,0.0,0.0,0.0,0.0,0.0,0.0,0.0,0.0,0.0,0.0,0.0,0.0,0.0,0.0,0.0,0.0,0.0,0.0,0.0,0.0,0.0,0.0,0.0,0.0,0.0,0.0,0.0,0.0,0.0,0.0,0.0,0.0,0.0,0.0,0.0,0.0,0.0,0.0,0.0,0.0,1.8415,1.8493,1.7737,1.7749,1.8588,2.0701,2.1734,0.0,0.0,0.0,0.0,0.0,0.0,0.0,0.0,0.0,0.0,0.0,0.0,0.0,0.0,0.0,0.0,0.0,0.0,0.0,0.0,0.0,0.0,0.0,0.0,0.0,0.0,0.0,0.0,0.0,0.0,0.0,0.0,0.0,0.0,0.0,0.0,0.0,0.0,0.0,0.0,0.0,0.0,0.0,0.0,0.0,0.0,0.0,0.0,2.181,0.0,0.0,0.0,0.0,0.0,0.0,0.0,0.0,0.0,0.0,0.0,0.0,0.0,0.0,0.0,0.0,0.0,0.0,0.0,0.0,0.0,0.0,0.0,0.0,0.0,0.0,0.0,0.0,0.0,0.0,0.0,0.0,0.0,0.0,0.0,0.0,0.0,0.0,0.0,0.0,0.0,0.0,0.0,0.0,0.0,0.0,0.0,0.0,0.0,0.0,0.0,0.0,0.0,0.0,0.0,0.0,0.0,0.0,0.0,1.7948,1.7653,1.6787,1.6714,1.7567,1.9117,2.0453,0.0,0.0,0.0,0.0,0.0,0.0,0.0,0.0,0.0,0.0,0.0,0.0,0.0,0.0,0.0,0.0,0.0,0.0,0.0,0.0,0.0,0.0,0.0,0.0,0.0,0.0,0.0,0.0,0.0,0.0,0.0,0.0,0.0,0.0,0.0,0.0,0.0,0.0,0.0,0.0,0.0,0.0,0.0,0.0,0.0,0.0,0.0,0.0,0.0,0.0,0.0,0.0,0.0,0.0,0.0,0.0,0.0,0.0,0.0,0.0,0.0,0.0,0.0,0.0,0.0,0.0,0.0,0.0,0.0,0.0,0.0,0.0,0.0,0.0,0.0,0.0,0.0,0.0,0.0,0.0,0.0,0.0,0.0,0.0,0.0,0.0,0.0,0.0,0.0,0.0,0.0,0.0,0.0,0.0,0.0,0.0,0.0,0.0,0.0,0.0,0.0,0.0,0.0,0.0,0.0,0.0,0.0,1.8811,1.7941,1.6984,1.6122,1.5982,1.6548,1.7862,1.9415,2.1227,0.0,0.0,0.0,0.0,0.0,0.0,0.0,0.0,0.0,0.0,0.0,0.0,0.0,0.0,0.0,0.0,0.0,0.0,0.0,0.0,0.0,0.0,0.0,0.0,0.0,0.0,0.0,0.0,0.0,0.0,0.0,0.0,0.0,0.0,0.0,0.0,0.0,0.0,2.0878,2.1692,0.0,0.0,0.0,0.0,0.0,0.0,0.0,0.0,2.1204,0.0,0.0,0.0,0.0,0.0,0.0,0.0,0.0,0.0,0.0,0.0,0.0,0.0,0.0,0.0,0.0,0.0,0.0,0.0,0.0,0.0,0.0,0.0,0.0,0.0,0.0,0.0,0.0,0.0,0.0,0.0,0.0,0.0,0.0,0.0,0.0,0.0,0.0,0.0,0.0,0.0,0.0,0.0,0.0,0.0,0.0,0.0,0.0,0.0,0.0,0.0,0.0,0.0,0.0,0.0,0.0,1.8633,1.8462,1.7441,1.5452,1.5378,1.5633,1.6232,1.8287,1.9726,2.0402,0.0,0.0,0.0,0.0,0.0,0.0,0.0,0.0,0.0,0.0,0.0,0.0,0.0,0.0,0.0,0.0,0.0,0.0,0.0,0.0,0.0,0.0,0.0,0.0,0.0,0.0,0.0,0.0,0.0,0.0,0.0,0.0,0.0,0.0,0.0,0.0,0.0,0.0,0.0,2.0549,2.1096,0.0,0.0,0.0,0.0,0.0,0.0,0.0,0.0,2.1174,0.0,0.0,0.0,0.0,0.0,0.0,0.0,0.0,0.0,0.0,0.0,0.0,0.0,0.0,0.0,0.0,0.0,0.0,0.0,0.0,0.0,0.0,0.0,0.0,0.0,0.0,0.0,0.0,0.0,0.0,0.0,0.0,0.0,0.0,0.0,0.0,0.0,0.0,0.0,0.0,0.0,0.0,0.0,0.0,0.0,0.0,0.0,0.0,0.0,0.0,0.0,0.0,0.0,0.0,0.0,1.8441,1.7925,1.6787,1.5094,1.5078,1.5324,1.5681,1.7527,1.8923,0.0,0.0,0.0,0.0,0.0,0.0,0.0,0.0,0.0,0.0,0.0,0.0,0.0,0.0,0.0,0.0,0.0,0.0,0.0,0.0,0.0,0.0,0.0,0.0,0.0,0.0,0.0,0.0,0.0,0.0,0.0,0.0,0.0,0.0,0.0,0.0,0.0,0.0,0.0,0.0,2.0629,2.0769,1.9679,0.0,0.0,0.0,0.0,0.0,0.0,2.0732,2.057,0.0,0.0,0.0,0.0,0.0,0.0,0.0,0.0,0.0,0.0,0.0,0.0,0.0,0.0,0.0,0.0,0.0,0.0,0.0,0.0,0.0,0.0,0.0,0.0,0.0,0.0,0.0,0.0,0.0,0.0,0.0,0.0,0.0,0.0,0.0,0.0,0.0,0.0,0.0,0.0,0.0,0.0,0.0,0.0,0.0,0.0,0.0,0.0,0.0,0.0,0.0,0.0,0.0,0.0,0.0,1.8382,1.7467,1.6363,1.5072,1.5006,1.5078,1.5303,1.6849,1.8222,0.0,0.0,0.0,0.0,0.0,0.0,0.0,0.0,0.0,0.0,0.0,0.0,0.0,0.0,0.0,0.0,0.0,0.0,0.0,0.0,0.0,0.0,0.0,0.0,0.0,0.0,0.0,0.0,0.0,0.0,0.0,0.0,0.0,0.0,0.0,0.0,0.0,0.0,0.0,0.0,0.0,2.068,1.972,2.072,0.0,0.0,0.0,0.0,2.1375,2.0647,0.0,0.0,0.0,0.0,0.0,0.0,0.0,0.0,0.0,0.0,0.0,0.0,0.0,0.0,0.0,0.0,0.0,0.0,0.0,0.0,0.0,0.0,0.0,0.0,0.0,0.0,0.0,0.0,0.0,0.0,0.0,0.0,0.0,0.0,0.0,0.0,0.0,0.0,0.0,0.0,0.0,0.0,0.0,0.0,0.0,0.0,0.0,0.0,0.0,0.0,0.0,0.0,0.0,0.0,0.0,0.0,1.8424,1.7467,1.6328,1.5102,1.5006,1.5116,1.5303,1.731,1.8702,0.0,0.0,0.0,0.0,0.0,0.0,0.0,0.0,0.0,0.0,0.0,0.0,0.0,0.0,0.0,0.0,0.0,0.0,0.0,0.0,0.0,0.0,0.0,0.0,0.0,0.0,0.0,0.0,0.0,0.0,0.0,0.0,0.0,0.0,0.0,0.0,0.0,0.0,0.0,0.0,0.0,2.0613,1.9947,2.0457,2.0801,0.0,0.0,2.0516,1.9489,2.0054,0.0,0.0,0.0,0.0,0.0,0.0,0.0,0.0,0.0,0.0,0.0,0.0,0.0,0.0,0.0,0.0,0.0,0.0,0.0,0.0,0.0,0.0,0.0,0.0,0.0,0.0,0.0,0.0,0.0,0.0,0.0,0.0,0.0,0.0,0.0,0.0,0.0,0.0,0.0,0.0,0.0,0.0,0.0,0.0,0.0,0.0,0.0,0.0,0.0,0.0,0.0,0.0,0.0,0.0,0.0,1.948,1.9061,1.7217,1.5924,1.5373,1.5122,1.5042,1.5121,1.6856,1.8238,0.0,0.0,0.0,0.0,0.0,0.0,0.0,0.0,0.0,0.0,0.0,0.0,0.0,0.0,0.0,0.0,0.0,0.0,0.0,0.0,0.0,0.0,0.0,0.0,0.0,0.0,0.0,0.0,0.0,0.0,0.0,0.0,0.0,0.0,0.0,0.0,0.0,0.0,0.0,0.0,0.0,0.0,2.058,2.1039,0.0,0.0,0.0,2.1551,2.1207,0.0,0.0,0.0,0.0,0.0,0.0,0.0,0.0,0.0,0.0,0.0,0.0,0.0,0.0,0.0,0.0,0.0,0.0,0.0,0.0,0.0,0.0,0.0,0.0,0.0,0.0,0.0,0.0,0.0,0.0,0.0,0.0,0.0,0.0,0.0,0.0,0.0,0.0,0.0,0.0,0.0,0.0,0.0,0.0,0.0,0.0,0.0,0.0,0.0,0.0,0.0,0.0,0.0,0.0,0.0,0.0,0.0,1.9645,1.71,1.5705,1.5582,1.5313,1.5122,1.5012,1.6128,0.0,0.0,0.0,0.0,0.0,0.0,0.0,0.0,0.0,0.0,0.0,0.0,0.0,0.0,0.0,0.0,0.0,0.0,0.0,0.0,0.0,0.0,0.0,0.0,0.0,0.0,0.0,2.2646,0.0,0.0,0.0,0.0,0.0,0.0,0.0,0.0,0.0,0.0,0.0,0.0,0.0,0.0,2.1419,2.0815,2.1443,2.1465,0.0,0.0,2.2096,2.2044,2.0658,1.9796,0.0,0.0,0.0,0.0,0.0,0.0,0.0,0.0,0.0,0.0,0.0,0.0,0.0,0.0,0.0,0.0,0.0,0.0,0.0,0.0,0.0,0.0,0.0,0.0,0.0,0.0,0.0,0.0,0.0,0.0,0.0,0.0,0.0,0.0,0.0,0.0,0.0,0.0,0.0,0.0,0.0,0.0,0.0,0.0,0.0,0.0,0.0,0.0,0.0,0.0,0.0,0.0,0.0,0.0,0.0,1.9624,1.7359,1.5974,1.5629,1.559,1.539,1.5028,1.5211,1.5965,0.0,0.0,0.0,0.0,0.0,0.0,0.0,0.0,0.0,0.0,0.0,0.0,0.0,0.0,0.0,0.0,0.0,0.0,0.0,0.0,0.0,0.0,0.0,0.0,0.0,0.0,0.0,0.0,0.0,0.0,0.0,0.0,0.0,0.0,0.0,0.0,0.0,0.0,0.0,0.0,0.0,2.1895,2.023,2.1181,2.1537,0.0,0.0,2.1278,2.0162,2.0809,2.1235,2.0613,0.0,0.0,0.0,0.0,0.0,0.0,0.0,0.0,0.0,0.0,0.0,0.0,0.0,0.0,0.0,0.0,0.0,0.0,0.0,0.0,0.0,0.0,0.0,0.0,0.0,0.0,0.0,0.0,0.0,0.0,0.0,0.0,0.0,0.0,0.0,0.0,0.0,0.0,0.0,0.0,0.0,0.0,0.0,0.0,0.0,0.0,0.0,0.0,0.0,0.0,0.0,0.0,0.0,1.971,1.8958,1.7369,1.6357,1.5974,1.5744,1.5437,1.5006,1.5138,1.5946,0.0,0.0,0.0,0.0,0.0,0.0,0.0,0.0,0.0,0.0,0.0,0.0,0.0,0.0,0.0,0.0,0.0,0.0,0.0,0.0,0.0,0.0,0.0,0.0,0.0,0.0,0.0,0.0,1.9108,1.8087,1.732,0.0,0.0,0.0,0.0,0.0,0.0,0.0,0.0,0.0,0.0,2.1588,2.1107,2.1877,0.0,0.0,2.1584,2.2063,2.0817,2.0681,2.053,1.9931,1.9473,0.0,0.0,0.0,0.0,0.0,0.0,0.0,0.0,0.0,0.0,0.0,0.0,0.0,0.0,0.0,0.0,0.0,0.0,0.0,0.0,0.0,0.0,0.0,0.0,0.0,0.0,0.0,0.0,0.0,0.0,0.0,0.0,0.0,0.0,0.0,0.0,0.0,0.0,0.0,0.0,0.0,0.0,0.0,0.0,0.0,0.0,0.0,0.0,0.0,0.0,0.0,0.0,1.9326,1.8514,1.7496,1.673,1.6203,1.5935,1.5544,1.5028,1.5086,1.5728,0.0,0.0,0.0,0.0,0.0,0.0,0.0,0.0,0.0,0.0,0.0,0.0,0.0,0.0,0.0,0.0,0.0,0.0,0.0,0.0,0.0,0.0,0.0,0.0,0.0,0.0,0.0,0.0,1.7878,1.6838,1.6048,0.0,0.0,0.0,0.0,0.0,0.0,0.0,0.0,0.0,0.0,2.1307,2.1319,2.1933,2.2047,2.1092,2.1749,2.2086,2.1254,2.0695,2.0107,1.9359,0.0,0.0,0.0,0.0,0.0,0.0,0.0,0.0,0.0,0.0,0.0,0.0,0.0,0.0,0.0,0.0,0.0,0.0,0.0,0.0,0.0,0.0,0.0,0.0,0.0,0.0,0.0,0.0,0.0,0.0,2.3101,0.0,0.0,0.0,0.0,0.0,0.0,0.0,0.0,0.0,0.0,0.0,0.0,0.0,0.0,0.0,0.0,0.0,0.0,0.0,0.0,0.0,0.0,1.8532,1.8478,1.7755,1.6968,1.6242,1.6203,1.5774,1.5045,1.502,1.51,1.5309,0.0,0.0,0.0,0.0,0.0,0.0,0.0,0.0,0.0,0.0,0.0,0.0,0.0,0.0,0.0,0.0,0.0,0.0,0.0,0.0,0.0,0.0,0.0,0.0,0.0,0.0,1.7761,1.6598,1.6,0.0,0.0,0.0,0.0,0.0,0.0,0.0,0.0,0.0,0.0,2.0118,2.126,2.0385,2.1025,2.1593,2.1574,2.1105,2.0851,2.1056,2.0842,2.0267,0.0,0.0,0.0,0.0,0.0,0.0,0.0,0.0,0.0,0.0,0.0,0.0,0.0,0.0,0.0,0.0,0.0,0.0,0.0,0.0,0.0,0.0,0.0,0.0,0.0,0.0,0.0,2.2745,2.2525,0.0,0.0,0.0,0.0,0.0,0.0,0.0,0.0,0.0,0.0,0.0,2.1364,2.0867,0.0,0.0,0.0,0.0,0.0,0.0,0.0,0.0,0.0,0.0,0.0,0.0,1.8183,1.7588,1.7454,1.7006,1.6242,1.6203,1.582,1.5045,1.5006,1.5156,1.5467,0.0,0.0,0.0,0.0,0.0,0.0,0.0,0.0,0.0,0.0,0.0,0.0,0.0,0.0,0.0,0.0,0.0,0.0,0.0,0.0,0.0,0.0,0.0,0.0,0.0,1.7044,0.0,0.0,0.0,0.0,0.0,0.0,0.0,0.0,0.0,0.0,0.0,1.8193,1.8558,1.9639,2.0438,2.0516,2.0949,2.1256,0.0,0.0,0.0,0.0,0.0,0.0,0.0,0.0,0.0,0.0,0.0,0.0,0.0,0.0,1.9669,1.8664,1.8864,1.9237,1.9417,0.0,0.0,0.0,0.0,0.0,0.0,0.0,0.0,0.0,0.0,0.0,0.0,0.0,0.0,2.209,0.0,2.1807,0.0,0.0,0.0,0.0,0.0,0.0,0.0,0.0,1.9239,1.9647,2.0861,2.0564,2.0971,0.0,2.1654,2.1047,0.0,0.0,0.0,0.0,0.0,0.0,0.0,0.0,1.77,1.7103,1.7181,1.6854,1.6203,1.605,1.5667,1.5045,1.5006,1.5085,1.527,1.5682,1.602,0.0,0.0,0.0,0.0,0.0,0.0,0.0,0.0,0.0,0.0,0.0,0.0,0.0,0.0,0.0,0.0,0.0,0.0,0.0,0.0,0.0,0.0,0.0,1.6709,0.0,0.0,0.0,0.0,0.0,0.0,0.0,0.0,0.0,1.7516,1.7821,1.8324,1.9076,1.9622,2.0159,2.0762,0.0,0.0,0.0,0.0,0.0,0.0,0.0,1.9966,1.9675,1.945,1.9427,1.9793,2.0111,2.0297,2.0297,0.0,0.0,1.919,1.9092,1.9185,1.9479,1.9533,1.9653,2.0084,2.0096,2.0098,0.0,0.0,0.0,0.0,0.0,0.0,0.0,0.0,2.088,2.1228,0.0,2.1066,0.0,0.0,0.0,0.0,0.0,1.976,0.0,0.0,1.9542,1.9676,1.9567,2.037,2.0761,2.0708,2.0169,1.9885,1.9894,2.1091,0.0,0.0,0.0,0.0,0.0,0.0,1.71,1.7126,1.6949,1.6615,1.6203,1.582,1.5437,1.5045,1.5006,1.4917,1.4746,1.5306,1.563,1.5691,1.6172,0.0,0.0,0.0,0.0,0.0,0.0,0.0,0.0,0.0,0.0,0.0,0.0,0.0,0.0,0.0,0.0,0.0,0.0,0.0,0.0,1.6717,0.0,0.0,0.0,0.0,0.0,0.0,0.0,0.0,0.0,0.0,1.8013,1.8542,1.9132,1.9633,0.0,0.0,0.0,0.0,2.0802,2.1459,2.1291,2.1041,2.1027,2.0742,2.0279,1.9443,0.0,0.0,1.9997,1.9722,1.9547,1.951,1.9245,1.9174,1.9981,2.0037,2.0168,2.0465,2.0513,2.0833,2.1325,2.0888,2.067,2.3386,0.0,0.0,0.0,0.0,2.3067,2.2735,2.216,2.1932,2.1675,2.1317,2.0707,0.0,0.0,0.0,0.0,0.0,0.0,1.9666,1.9565,1.9712,2.0211,2.0967,2.1316,2.1753,2.2231,2.1914,2.1761,2.1774,2.1816,2.0644,1.8329,0.0,0.0,0.0,0.0,1.7347,1.7757,1.7429,1.6892,1.6203,1.6089,1.5705,1.5045,1.5006,1.4982,1.4925,1.5218,1.5449,1.5639,1.5835,0.0,0.0,0.0,0.0,0.0,0.0,0.0,0.0,0.0,0.0,0.0,0.0,0.0,0.0,0.0,0.0,0.0,0.0,0.0,1.7221,1.726,1.7463,0.0,0.0,0.0,0.0,0.0,0.0,0.0,0.0,0.0,1.7715,1.8763,1.9665,0.0,0.0,2.0425,2.1011,2.057,2.04,2.1005,2.0565,0.0,1.9849,1.9727,1.9588,1.9355,1.9709,1.9935,1.9618,1.9773,1.9866,1.9646,1.9554,1.9507,1.9519,1.939,1.9315,1.9428,1.9693,2.0014,2.022,2.0515,2.0806,2.4071,2.3107,2.3262,2.3402,2.3513,2.3498,2.311,2.2412,2.2245,2.193,2.1473,2.0866,2.0613,2.0518,2.0174,0.0,0.0,0.0,2.0359,2.0334,2.0681,2.1216,2.1911,2.206,2.2461,2.3025,2.275,2.2696,2.2826,2.2019,2.0859,1.9279,0.0,0.0,1.8309,1.7801,1.769,1.8072,1.7474,1.693,1.6471,1.6127,1.5659,1.5045,1.5006,1.5006,1.5006,1.5099,1.5264,1.5459,1.5599,1.596,0.0,0.0,0.0,0.0,0.0,0.0,0.0,0.0,0.0,0.0,0.0,1.673,0.0,0.0,0.0,0.0,1.6747,1.7163,1.7808,1.7872,0.0,0.0,0.0,0.0,0.0,0.0,0.0,1.7154,1.7318,1.7324,1.713,1.7953,1.8709,1.9024,1.9088,1.9314,1.978,0.0,1.9232,1.9881,1.9586,1.9221,1.9004,1.8846,1.8755,1.8552,1.8621,1.8679,1.8564,1.8522,1.843,1.828,1.814,1.7991,1.7847,1.7642,1.799,1.9,1.949,1.9771,2.0005,2.0239,2.0411,2.5077,2.4834,2.5153,2.4786,2.4065,2.4036,2.3342,2.2224,2.2211,2.2138,2.2044,2.147,2.0851,2.0237,1.9803,0.0,2.001,2.0855,2.1243,2.1349,2.2151,2.2539,2.2558,2.2763,2.3025,2.3399,2.2979,2.2929,2.32,2.2086,2.1505,2.1412,2.0525,1.9845,1.9334,1.8585,1.8174,1.8153,1.7327,1.6844,1.673,1.6003,1.5429,1.5006,1.5006,1.5006,1.5006,1.5006,1.5086,1.5253,1.5431,1.5712,1.6152,0.0,0.0,0.0,0.0,0.0,0.0,0.0,0.0,0.0,0.0,0.0,0.0,0.0,0.0,0.0,1.7103,0.0,1.8185,1.8235,0.0,0.0,0.0,1.6932,1.5923,1.5923,1.5974,1.5958,0.0,0.0,1.6312,1.6541,1.6795,1.7012,1.7267,1.7594,1.7875,1.7654,1.7617,1.8275,1.8292,1.8256,1.8086,1.7929,1.7607,1.7213,1.6887,1.6793,1.6919,1.6517,1.6001,1.6047,1.5678,1.5539,1.5502,1.5615,1.625,1.872,1.925,1.949,1.9797,1.9551,1.9262,2.6493,2.6626,2.6257,2.5451,2.4448,2.4216,2.4079,2.3981,2.3768,2.342,2.2966,2.2331,2.1657,2.0909,2.102,2.1341,2.1804,2.2004,2.2472,2.314,2.3388,2.3603,2.3772,2.398,2.4138,2.4283,2.4142,2.3946,2.3799,2.3482,2.3094,2.2614,2.2076,2.1101,1.9769,1.9253,1.8813,1.8469,1.7965,1.7264,1.6395,1.5859,1.539,1.5045,1.5006,1.5006,1.5006,1.5006,1.502,1.5056,1.4989,1.5192,1.5712,1.6349,0.0,0.0,0.0,0.0,0.0,0.0,0.0,0.0,0.0,1.803,1.8149,0.0,1.803,0.0,1.7088,1.6758,1.6915,1.6861,0.0,0.0,1.668,1.6478,1.595,1.555,1.5554,1.6063,1.6039,1.5777,1.5369,1.5704,1.5621,1.4852,1.6022,1.7107,1.7399,1.6859,1.6577,1.6896,1.6598,1.6223,1.6241,1.615,1.5985,1.5536,1.5548,1.5512,1.5339,1.5278,1.5248,1.5248,1.5172,1.5104,1.5104,1.5104,1.5278,1.5975,1.6451,1.6768,1.6908,1.6974,1.7039,2.755,2.7657,2.7202,2.66,2.5959,2.5411,2.5264,2.5384,2.5104,2.4686,2.4062,2.334,2.2819,2.2498,2.2559,2.2792,2.322,2.3487,2.3875,2.4392,2.4476,2.4636,2.4759,2.4703,2.4806,2.4999,2.4768,2.4693,2.4648,2.4498,2.4232,2.3852,2.3429,2.2608,2.1351,2.0423,1.9778,1.9359,1.853,1.7512,1.6395,1.5855,1.5612,1.5667,1.5572,1.5711,1.6113,1.6031,1.5985,1.5976,1.5876,1.5985,1.6432,1.6987,1.7428,0.0,0.0,0.0,0.0,0.0,0.0,0.0,0.0,0.0,0.0,0.0,1.7865,1.7528,1.6776,1.6366,1.6499,1.6429,1.6196,1.5728,1.5728,1.5466,1.4736,1.4449,1.4435,1.4736,1.4633,1.4436,1.4137,1.433,1.425,1.3573,1.4421,1.5331,1.5763,1.5525,1.5341,1.5472,1.5201,1.4941,1.4933,1.4941,1.4832,1.4555,1.4412,1.426,1.4045,1.4006,1.3958,1.4004,1.4064,1.4117,1.4117,1.4117,1.4117,1.4141,1.4345,1.4761,1.5303,1.5536,1.5688,2.8219,2.8165,2.7911,2.7762,2.7696,2.6894,2.6533,2.648,2.6238,2.577,2.5181,2.4379,2.4128,2.4356,2.4115,2.4168,2.4516,2.4983,2.5275,2.5317,2.5558,2.564,2.564,2.5332,2.5318,2.5586,2.5239,2.52,2.548,2.5122,2.4943,2.4916,2.4572,2.3997,2.3207,2.1882,2.0885,2.0158,1.8943,1.7804,1.6781,1.628,1.628,1.6699,1.6464,1.6712,1.7606,1.7378,1.724,1.7292,1.7271,1.7276,1.7383,1.7887,1.8109,0.0,1.8369,0.0,0.0,0.0,0.0,0.0,0.0,0.0,0.0,1.7413,1.7216,1.6801,1.6216,1.5967,1.6162,1.6143,1.5668,1.4576,1.4552,1.4183,1.3242,1.3194,1.3216,1.305,1.303,1.3037,1.3124,1.3057,1.3057,1.3104,1.3197,1.3556,1.3993,1.4134,1.409,1.4069,1.4069,1.4028,1.405,1.4032,1.3995,1.3845,1.3573,1.3222,1.3173,1.2945,1.2799,1.2812,1.2973,1.3062,1.3003,1.3029,1.3029,1.3095,1.3129,1.3475,1.4392,1.4671,1.4724,2.8406,2.8221,2.8125,2.8098,2.8072,2.767,2.7321,2.7122,2.6787,2.6333,2.581,2.5371,2.5211,2.5264,2.5211,2.5478,2.5959,2.5891,2.6039,2.6453,2.6507,2.6533,2.6573,2.6494,2.6374,2.6213,2.5947,2.5706,2.5518,2.5441,2.5283,2.5057,2.4969,2.4618,2.4035,0.0,0.0,0.0,1.9122,1.8678,1.8159,1.8318,1.8331,1.8109,1.7584,0.0,1.7875,1.7462,1.741,1.7802,1.7654,0.0,0.0,0.0,0.0,0.0,0.0,0.0,0.0,0.0,0.0,0.0,1.7163,1.7166,1.7043,1.6807,1.6489,1.6037,1.5343,1.4782,1.4502,1.421,1.3904,1.3592,1.3581,1.3425,1.3053,1.3061,1.3056,1.3152,1.3173,1.322,1.3288,1.3315,1.3308,1.3302,1.3315,1.3398,1.3548,1.3396,1.325,1.3236,1.3304,1.3243,1.3243,1.325,1.3337,1.3155,1.3115,1.3061,1.3027,1.2968,1.2955,1.2955,1.2982,1.3009,1.3009,1.3003,1.3016,1.3003,1.3003,1.3062,1.3319,1.3392,1.3392,2.8524,0.0,2.8245,2.8192,0.0,2.8018,2.7884,2.771,2.7228,2.6881,2.6626,2.6293,2.6239,2.6373,2.6226,2.64,2.6814,2.6707,2.68,2.7041,2.7041,2.7041,2.7041,2.7041,2.6974,2.6854,2.656,2.6306,2.6159,2.6012,2.5865,2.5732,2.577,2.5495,2.4949,2.3652,2.1935,1.9868,1.9265,1.8462,1.7529,1.7378,1.7412,1.7607,1.7207,0.0,0.0,0.0,0.0,0.0,0.0,0.0,0.0,1.7196,0.0,1.6668,1.6998,1.7076,1.6811,1.6624,1.6306,1.5849,1.5552,1.5552,1.5927,1.5539,1.5128,1.4797,1.446,1.4171,1.385,1.3662,1.3454,1.3184,1.3165,1.3141,1.3118,1.3105,1.3166,1.3254,1.3281,1.3315,1.339,1.3397,1.3397,1.3397,1.3397,1.3397,1.339,1.3275,1.318,1.322,1.322,1.322,1.322,1.318,1.3146,1.3132,1.3105,1.3077,1.3009,1.3057,1.3105,1.3111,1.3166,1.318,1.318,1.318,1.322,1.322,1.322,1.322,1.3166,1.3105,1.3003,2.8778,2.8657,2.8393,2.8005,2.7653,2.7601,2.7363,2.6973,0.0,0.0,0.0,2.6583,2.6663,2.7241,2.6596,2.6689,2.7335,2.7389,2.7416,2.7456,2.7469,2.7456,2.7415,2.6992,2.6761,2.6693,2.6,2.5656,2.5643,2.5426,2.5324,2.5311,2.5311,2.5086,2.4569,2.2469,2.0841,1.9786,1.9167,1.8123,1.6673,1.6202,1.6293,1.6927,1.6609,1.6809,1.7534,1.7321,1.725,1.7323,1.7292,1.7222,1.7097,1.7073,1.6977,1.6817,1.6817,1.6593,1.6089,1.5731,1.5168,1.4292,1.3885,1.4015,1.4764,1.4267,1.3869,1.3702,1.3757,1.3731,1.3495,1.3509,1.3363,1.307,1.3037,1.3098,1.3227,1.3254,1.3302,1.3376,1.339,1.3397,1.3397,1.3397,1.3397,1.3397,1.3397,1.3397,1.3397,1.3383,1.337,1.337,1.3356,1.3383,1.3397,1.3383,1.3349,1.3234,1.3254,1.3214,1.3132,1.3173,1.3207,1.3254,1.3322,1.3376,1.3397,1.3376,1.3397,1.3397,1.3397,1.3397,1.3376,1.3207,1.3098,2.9344,2.8908,2.8657,2.7397,2.5514,2.5299,2.4038,2.2536,2.6067,2.7495,2.7186,2.5129,2.5388,2.7173,2.5129,2.5471,2.7587,2.7642,2.7776,2.81,2.8058,2.8058,2.7961,2.5719,2.4633,2.4442,2.2341,2.1222,2.1212,2.1233,2.117,2.1212,2.117,2.0952,2.0364,1.9614,1.8562,1.7281,1.8441,1.8553,1.7575,1.7798,1.7775,1.7407,1.7152,1.7178,1.7393,1.7254,1.742,1.7833,1.7675,1.7276,1.6656,1.6575,1.6205,1.5378,1.5299,1.5106,1.47,1.4632,1.426,1.3559,1.3537,1.3749,1.4073,1.3863,1.3656,1.3605,1.3354,1.3135,1.3076,1.309,1.3144,1.3166,1.3146,1.3241,1.3342,1.3363,1.337,1.3397,1.3397,1.3397,1.3397,1.3397,1.3397,1.3397,1.3397,1.3397,1.3397,1.3397,1.3397,1.3397,1.3397,1.3397,1.3397,1.3397,1.3383,1.3376,1.3356,1.3342,1.3308,1.3329,1.3349,1.3363,1.3383,1.3397,1.3397,1.3397,1.3397,1.3397,1.3397,1.3397,1.3397,1.3342,1.3322,2.5625,2.5315,2.4896,2.4067,2.3076,2.288,2.2213,2.1384,2.3304,2.4136,2.3905,2.2838,2.2965,2.3852,2.2838,2.3021,2.4194,2.4152,2.4252,2.4411,2.4411,2.4411,2.4283,2.3133,2.2577,2.247,2.1229,2.0567,2.0557,2.0373,2.0313,2.0313,2.0313,2.0169,1.9872,1.9047,1.8175,1.7335,1.738,1.6984,1.6096,1.6285,1.616,1.5714,1.5619,1.5627,1.577,1.5702,1.5903,1.637,1.6251,1.5937,1.5407,1.5358,1.5055,1.4345,1.4408,1.4384,1.419,1.4039,1.3727,1.3172,1.3311,1.3447,1.3538,1.3403,1.3311,1.338,1.3192,1.3152,1.3186,1.3241,1.3268,1.3288,1.3336,1.3329,1.3383,1.3397,1.3397,1.3397,1.3397,1.3397,1.3397,1.3397,1.3397,1.3397,1.3397,1.3397,1.3397,1.3397,1.3397,1.3397,1.3397,1.3397,1.3397,1.3397,1.3397,1.3397,1.3397,1.3397,1.3397,1.3397,1.3397,1.3397,1.3397,1.3397,1.3397,1.3397,1.3397,1.3397,1.3397,1.3397,1.3397,1.3397,1.3397,2.2482,2.2336,2.178,2.1235,2.0646,1.9953,1.9684,1.9684,1.9647,1.9628,1.9715,2.0187,2.0752,2.1135,2.0708,2.0752,2.1178,2.1221,2.1221,2.1221,2.1221,2.1221,2.1135,2.0746,2.0443,2.0337,1.9718,1.9342,1.929,1.9056,1.8939,1.8939,1.8939,1.8921,1.8875,1.7952,1.7264,1.6866,1.5991,1.5218,1.4648,1.457,1.4374,1.3989,1.408,1.4132,1.4136,1.4268,1.4438,1.4661,1.4737,1.4545,1.4291,1.4284,1.4152,1.3811,1.3953,1.4003,1.3899,1.3673,1.3365,1.309,1.318,1.3227,1.3254,1.3166,1.3146,1.3248,1.3268,1.3275,1.3363,1.339,1.3397,1.3397,1.3397,1.3397,1.3397,1.3397,1.3397,1.3397,1.3397,1.3397,1.3397,1.3397,1.3397,1.3397,1.3397,1.3397,1.3397,1.3397,1.3397,1.3397,1.3397,1.3397,1.3397,1.3397,1.3397,1.3397,1.3397,1.3397,1.3397,1.3397,1.3397,1.3397,1.3397,1.3397,1.3397,1.3397,1.3397,1.3397,1.3397,1.3397,1.3397,1.3397,1.3397,2.288,2.2695,2.2015,2.0646,1.8315,1.6189,1.5318,1.5259,1.5056,1.4955,1.5396,1.7286,1.9358,2.0742,1.9112,1.9226,2.0929,2.1178,2.1048,2.1005,2.1221,2.1178,2.0789,1.9054,1.8104,1.7851,1.6099,1.5308,1.5308,1.5118,1.4942,1.4868,1.4868,1.4958,1.4757,1.4656,1.4455,1.4187,1.4067,1.4111,1.4315,1.4221,1.3899,1.3322,1.364,1.3701,1.3472,1.3811,1.3979,1.3836,1.3867,1.3821,1.3798,1.3925,1.4014,1.3983,1.4077,1.4007,1.3655,1.3387,1.3234,1.3207,1.3288,1.337,1.337,1.3363,1.3363,1.337,1.3376,1.3376,1.3397,1.3397,1.3397,1.3397,1.3397,1.3397,1.3397,1.3397,1.3397,1.3397,1.3397,1.3397,1.3397,1.3397,1.3397,1.3397,1.3397,1.3397,1.3397,1.3397,1.3397,1.3397,1.3397,1.3397,1.3397,1.3397,1.3397,1.3397,1.3397,1.3397,1.3397,1.3397,1.3397,1.3397,1.3397,1.3397,1.3397,1.3397,1.3397,1.3397,1.3397,1.3397,1.3397,1.3397,1.3397,1.8768,1.8533,1.8176,1.7254,1.5905,1.4889,1.4462,1.438,1.4326,1.4299,1.4415,1.5562,1.6464,1.7044,1.6246,1.6408,1.708,1.7115,1.7123,1.7123,1.7123,1.7123,1.6992,1.621,1.5734,1.569,1.4734,1.4299,1.4299,1.4299,1.4299,1.4299,1.4299,1.4265,1.4211,1.4204,1.417,1.4109,1.4021,1.4032,1.4136,1.4033,1.3713,1.3377,1.3473,1.3573,1.3493,1.3656,1.3781,1.3877,1.3943,1.3826,1.3503,1.3648,1.3656,1.3471,1.3526,1.3572,1.3493,1.3398,1.3308,1.3308,1.3363,1.3397,1.3397,1.3397,1.3397,1.3397,1.3397,1.3397,1.3397,1.3397,1.3397,1.3397,1.3397,1.3397,1.3397,1.3397,1.3397,1.3397,1.3397,1.3397,1.3397,1.3397,1.3397,1.3397,1.3397,1.3397,1.3397,1.3397,1.3397,1.3397,1.3397,1.3397,1.3397,1.3397,1.3397,1.3397,1.3397,1.3397,1.3397,1.3397,1.3397,1.3397,1.3397,1.3397,1.3397,1.3397,1.3397,1.3397,1.3397,1.3397,1.3397,1.3397,1.3397,1.5791,1.5655,1.5371,1.5031,1.4699,1.4652,1.4577,1.4482,1.4441,1.4421,1.4448,1.4692,1.4665,1.4462,1.4529,1.4496,1.4367,1.4319,1.4299,1.4299,1.4299,1.4343,1.4299,1.4299,1.4299,1.4299,1.4343,1.4299,1.4299,1.4299,1.4299,1.4299,1.4299,1.4299,1.4299,1.4299,1.4299,1.4285,1.419,1.4136,1.4116,1.4021,1.3824,1.3553,1.3485,1.3507,1.353,1.3514,1.3542,1.3717,1.3811,1.3659,1.3282,1.3368,1.3393,1.3159,1.3173,1.3281,1.3397,1.3397,1.3397,1.3397,1.3397,1.3397,1.3397,1.3397,1.3397,1.3397,1.3397,1.3397,1.3397,1.3397,1.3397,1.3397,1.3397,1.3397,1.3397,1.3397,1.3397,1.3397,1.3397,1.3397,1.3397,1.3397,1.3397,1.3397,1.3397,1.3397,1.3397,1.3397,1.3397,1.3397,1.3397,1.3397,1.3397,1.3397,1.3397,1.3397,1.3397,1.3397,1.3397,1.3397,1.3397,1.3397,1.3397,1.3397,1.3397,1.3397,1.3397,1.3397,1.3397,1.3397,1.3397,1.3397,1.3397,1.5894,1.5847,1.552,1.5289,1.518,1.4991,1.4983,1.4869,1.4714,1.4667,1.4674,1.4875,1.4869,1.4719,1.4681,1.4599,1.4502,1.4373,1.4312,1.4312,1.4299,1.4299,1.4299,1.4299,1.4299,1.4299,1.4299,1.4299,1.4299,1.4299,1.4299,1.4299,1.4299,1.4299,1.4299,1.4299,1.4299,1.4292,1.4285,1.4285,1.4285,1.4272,1.4116,1.3802,1.3653,1.3546,1.3418,1.3282,1.3179,1.3083,1.309,1.309,1.3043,1.3166,1.3309,1.3349,1.3376,1.339,1.3397,1.3397,1.3397,1.3397,1.3397,1.3397,1.3397,1.3397,1.3397,1.3397,1.3397,1.3397,1.3397,1.3397,1.3397,1.3397,1.3397,1.3397,1.3397,1.3397,1.3397,1.3397,1.3397,1.3397,1.3397,1.3397,1.3397,1.3397,1.3397,1.3397,1.3397,1.3397,1.3397,1.3397,1.3397,1.3397,1.3397,1.3397,1.3397,1.3397,1.3397,1.3397,1.3397,1.3397,1.3397,1.3397,1.3397,1.3397,1.3397,1.3397,1.3397,1.3397,1.3397,1.3397,1.3397,1.3397,1.3397,1.5996,1.5874,1.5533,1.5323,1.5174,1.5078,1.4916,1.4821,1.4721,1.4694,1.4721,1.4903,1.4936,1.4889,1.4889,1.4801,1.4652,1.4502,1.4434,1.4421,1.434,1.4299,1.4299,1.4299,1.4299,1.4299,1.4299,1.4299,1.4299,1.4299,1.4299,1.4299,1.4299,1.4299,1.4299,1.4299,1.4299,1.4299,1.4299,1.4299,1.4299,1.4299,1.4238,1.4136,1.3987,1.3797,1.3511,1.3492,1.3349,1.3146,1.3227,1.3241,1.3166,1.3241,1.3342,1.339,1.3397,1.3397,1.3397,1.3397,1.3397,1.3397,1.3397,1.3397,1.3397,1.3397,1.3397,1.3397,1.3397,1.3397,1.3397,1.3397,1.3397,1.3397,1.3397,1.3397,1.3397,1.3397,1.3397,1.3397,1.3397,1.3397,1.3397,1.3397,1.3397,1.3397,1.3397,1.3397,1.3397,1.3397,1.3397,1.3397,1.3397,1.3397,1.3397,1.3397,1.3397,1.3397,1.3397,1.3397,1.3397,1.3397,1.3397,1.3397,1.3397,1.3397,1.3397,1.3397,1.3397,1.3397,1.3397,1.3397,1.3397,1.3397,1.3397,1.5942,1.5745,1.5493,1.5323,1.5228,1.5079,1.4977,1.4889,1.4882,1.4882,1.4903,1.4997,1.5085,1.5038,1.5038,1.4984,1.4862,1.4679,1.4539,1.4577,1.4489,1.4441,1.4441,1.4441,1.4441,1.4441,1.4441,1.4376,1.4373,1.4367,1.4367,1.4373,1.4326,1.4326,1.4353,1.4326,1.4299,1.4299,1.4299,1.4299,1.4299,1.4299,1.4299,1.4285,1.4197,1.4007,1.3673,1.3612,1.3512,1.3302,1.3349,1.3356,1.3268,1.3342,1.3397,1.3397,1.3397,1.3397,1.3397,1.3397,1.3397,1.3397,1.3397,1.3397,1.3397,1.3397,1.3397,1.3397,1.3397,1.3397,1.3397,1.3397,1.3397,1.3397,1.3397,1.3397,1.3397,1.3397,1.3397,1.3397,1.3397,1.3397,1.3397,1.3397,1.3397,1.3397,1.3397,1.3397,1.3397,1.3397,1.3397,1.3397,1.3397,1.3397,1.3397,1.3397,1.3397,1.3397,1.3397,1.3397,1.3397,1.3397,1.3397,1.3397,1.3397,1.3397,1.3397,1.3397,1.3397,1.3397,1.3397,1.3397,1.3397,1.3397,1.3397,1.5745,1.5472,1.5418,1.5343,1.5208,1.5174,1.5174,1.5147,1.5153,1.5133,1.5126,1.5167,1.516,1.5167,1.5153,1.5167,1.512,1.4903,1.4721,1.4694,1.4667,1.466,1.4654,1.4647,1.4647,1.4654,1.4674,1.4606,1.4516,1.4516,1.4509,1.4482,1.438,1.4373,1.4496,1.436,1.4299,1.4299,1.4299,1.4299,1.4299,1.4299,1.4299,1.4299,1.4285,1.4143,1.3815,1.3673,1.3531,1.3431,1.3397,1.3397,1.3383,1.3397,1.3397,1.3397,1.3397,1.3397,1.3397,1.3397,1.3397,1.3397,1.3397,1.3397,1.3397,1.3397,1.3397,1.3397,1.3397,1.3397,1.3397,1.3397,1.3397,1.3397,1.3397,1.3397,1.3397,1.3397,1.3397,1.3397,1.3397,1.3397,1.3397,1.3397,1.3397,1.3397,1.3397,1.3397,1.3397,1.3397,1.3397,1.3397,1.3397,1.3397,1.3397,1.3397,1.3397,1.3397,1.3397,1.3397,1.3397,1.3397,1.3397,1.3397,1.3397,1.3397,1.3397,1.3397,1.3397,1.3397,1.3397,1.3397,1.3397,1.3397,1.3397,1.5893,1.5758,1.5608,1.5479,1.533,1.5228,1.5181,1.5181,1.5181,1.5181,1.5181,1.5181,1.5181,1.5181,1.5181,1.5242,1.533,1.5235,1.5092,1.4916,1.4748,1.4708,1.4708,1.4701,1.4694,1.4694,1.4694,1.4674,1.4633,1.462,1.4579,1.4516,1.4468,1.4414,1.4373,1.4319,1.4299,1.4299,1.4299,1.4299,1.4299,1.4299,1.4299,1.4299,1.4299,1.4204,1.4007,1.3808,1.3666,1.3559,1.3458,1.3397,1.3397,1.3397,1.3397,1.3397,1.3397,1.3397,1.3397,1.3397,1.3397,1.3397,1.3397,1.3397,1.3397,1.3397,1.3397,1.3397,1.3397,1.3397,1.3397,1.3397,1.3397,1.3397,1.3397,1.3397,1.3397,1.3397,1.3397,1.3397,1.3397,1.3397,1.3397,1.3397,1.3397,1.3397,1.3397,1.3397,1.3397,1.3397,1.3397,1.3397,1.3397,1.3397,1.3397,1.3397,1.3397,1.3397,1.3397,1.3397,1.3397,1.3397,1.3397,1.3397,1.3397,1.3397,1.3397,1.3397,1.3397,1.3397,1.3397,1.3397,1.3397,1.3397,1.3397,1.5825,1.5724,1.5533,1.5452,1.5391,1.5248,1.5181,1.5181,1.5181,1.5181,1.5181,1.5181,1.5181,1.5181,1.5181,1.5269,1.5404,1.5411,1.5343,1.5208,1.5059,1.4991,1.4931,1.4923,1.4903,1.4903,1.4903,1.4875,1.4828,1.4821,1.4746,1.4618,1.4543,1.4475,1.4373,1.4326,1.4299,1.4299,1.4299,1.4299,1.4299,1.4299,1.4299,1.4299,1.4299,1.4251,1.415,1.4007,1.3838,1.3648,1.3485,1.3403,1.3397,1.3397,1.3397,1.3397,1.3397,1.3397,1.3397,1.3397,1.3397,1.3397,1.3397,1.3397,1.3397,1.3397,1.3397,1.3397,1.3397,1.3397,1.3397,1.3397,1.3397,1.3397,1.3397,1.3397,1.3397,1.3397,1.3397,1.3397,1.3397,1.3397,1.3397,1.3397,1.3397,1.3397,1.3397,1.3397,1.3397,1.3397,1.3397,1.3397,1.3397,1.3397,1.3397,1.3397,1.3397,1.3397,1.3397,1.3397,1.3397,1.3397,1.3397,1.3397,1.3397,1.3397,1.3397,1.3397,1.3397,1.3397,1.3397,1.3397,1.3397,1.3397,1.3397,1.5581,1.5425,1.5289,1.5337,1.5418,1.5289,1.5242,1.5221,1.5208,1.5221,1.5228,1.5201,1.5194,1.5201,1.5221,1.5303,1.5411,1.5472,1.5554,1.5581,1.5493,1.5404,1.5364,1.5228,1.5181,1.5208,1.5167,1.5099,1.5025,1.4964,1.4896,1.4674,1.4559,1.4516,1.4482,1.438,1.4353,1.4333,1.4326,1.4326,1.4306,1.4299,1.4299,1.4299,1.4299,1.4292,1.4258,1.4173,1.3926,1.3668,1.3532,1.3471,1.3444,1.3424,1.3458,1.3464,1.3431,1.3431,1.3424,1.341,1.3397,1.3397,1.3397,1.3397,1.3397,1.3397,1.3397,1.3397,1.3397,1.3397,1.3397,1.3397,1.3397,1.3397,1.3397,1.3397,1.3397,1.3397,1.3397,1.3397,1.3397,1.3397,1.3397,1.3397,1.3397,1.3397,1.3397,1.3397,1.3397,1.3397,1.3397,1.3397,1.3397,1.3397,1.3397,1.3397,1.3397,1.3397,1.3397,1.3397,1.3397,1.3397,1.3397,1.3397,1.3397,1.3397,1.3397,1.3397,1.3397,1.3397,1.3397,1.3397,1.3397,1.3397,1.3397,1.5879,1.5786,1.5738,1.5635,1.5533,1.5485,1.5513,1.5451,1.5391,1.5411,1.5452,1.5276,1.5262,1.5343,1.535,1.5432,1.5567,1.5683,1.5867,1.5927,1.5811,1.5676,1.5567,1.5425,1.5404,1.5459,1.5282,1.5221,1.5269,1.5072,1.4903,1.4701,1.466,1.4572,1.4529,1.4577,1.4512,1.4468,1.4455,1.4401,1.4326,1.4312,1.4299,1.4299,1.4306,1.4299,1.4285,1.4156,1.3987,1.3768,1.3714,1.3687,1.3666,1.3666,1.3653,1.3646,1.3578,1.3531,1.3553,1.3464,1.341,1.3397,1.3403,1.3397,1.3397,1.3397,1.3397,1.3397,1.3397,1.3397,1.3397,1.3397,1.3397,1.3397,1.3397,1.3397,1.3397,1.3397,1.3397,1.3397,1.3397,1.3397,1.3397,1.3397,1.3397,1.3397,1.3397,1.3397,1.3397,1.3397,1.3397,1.3397,1.3397,1.3397,1.3397,1.3397,1.3397,1.3397,1.3397,1.3397,1.3397,1.3397,1.3397,1.3397,1.3397,1.3397,1.3397,1.3397,1.3397,1.3397,1.3397,1.3397,1.3397,1.3397,1.3397,1.5983,1.5894,1.5833,1.575,1.5723,1.5621,1.5587,1.5573,1.5506,1.5506,1.5533,1.5466,1.5425,1.5451,1.5458,1.5588,1.573,1.586,1.5983,1.6049,1.603,1.5832,1.5649,1.5486,1.5459,1.5506,1.5303,1.5242,1.5269,1.5133,1.4991,1.4869,1.4841,1.4708,1.4624,1.4679,1.4654,1.4572,1.4566,1.4563,1.4489,1.4482,1.4441,1.4407,1.4387,1.4367,1.4299,1.4211,1.4095,1.396,1.3835,1.3795,1.3795,1.3795,1.3795,1.3795,1.372,1.368,1.3653,1.358,1.3505,1.3485,1.3451,1.3403,1.3397,1.3397,1.3397,1.3397,1.3397,1.3397,1.3397,1.3397,1.3397,1.3397,1.3397,1.3397,1.3397,1.3397,1.3397,1.3397,1.3397,1.3397,1.3397,1.3397,1.3397,1.3397,1.3397,1.3397,1.3397,1.3397,1.3397,1.3397,1.3397,1.3397,1.3397,1.3397,1.3397,1.3397,1.3397,1.3397,1.3397,1.3397,1.3397,1.3397,1.3397,1.3397,1.3397,1.3397,1.3397,1.3397,1.3397,1.3397,1.3397,1.3397,1.3397,1.5928,1.5915,1.5737,1.5757,1.5901,1.5744,1.5716,1.5641,1.5627,1.5683,1.5641,1.5607,1.5622,1.5614,1.5662,1.573,1.5894,1.5928,1.5961,1.6049,1.6092,1.594,1.5744,1.5581,1.552,1.5493,1.5303,1.5235,1.5228,1.5234,1.5132,1.4977,1.5003,1.4896,1.4801,1.4794,1.4735,1.4721,1.4721,1.4687,1.464,1.4606,1.4577,1.4496,1.4448,1.4394,1.4326,1.4278,1.4224,1.4146,1.396,1.3883,1.3862,1.3856,1.3862,1.3862,1.3856,1.3822,1.3802,1.3693,1.3605,1.3592,1.3532,1.3431,1.3451,1.3451,1.3437,1.3403,1.3397,1.3397,1.3397,1.3397,1.3397,1.3397,1.3397,1.3397,1.3397,1.3397,1.3397,1.3397,1.3397,1.3397,1.3397,1.3397,1.3397,1.3397,1.3397,1.3397,1.3397,1.3397,1.3397,1.3397,1.3397,1.3397,1.3397,1.3397,1.3397,1.3397,1.3397,1.3397,1.3397,1.3397,1.3397,1.3397,1.3397,1.3397,1.3397,1.3397,1.3397,1.3397,1.3397,1.3397,1.3397,1.3397,1.3397,1.6035,1.6029,1.6001,1.6001,1.6022,1.6001,1.5981,1.5967,1.5852,1.5866,1.5913,1.575,1.5716,1.5811,1.5811,1.5881,1.5928,1.6017,1.6056,1.6119,1.6133,1.6056,1.5947,1.5854,1.5799,1.5724,1.5472,1.5364,1.5316,1.5187,1.5057,1.4997,1.5044,1.4964,1.4957,1.5031,1.5025,1.4943,1.493,1.4875,1.4721,1.4626,1.4597,1.4536,1.4428,1.4346,1.4312,1.4299,1.4285,1.4251,1.4211,1.4163,1.4163,1.417,1.417,1.4143,1.4068,1.4021,1.3994,1.3892,1.3754,1.3747,1.37,1.366,1.3587,1.3538,1.3519,1.3437,1.3397,1.341,1.3397,1.3397,1.3397,1.3397,1.3397,1.3397,1.3397,1.3397,1.3397,1.3397,1.3397,1.3397,1.3397,1.3397,1.3397,1.3397,1.3397,1.3397,1.3397,1.3397,1.3397,1.3397,1.3397,1.3397,1.3397,1.3397,1.3397,1.3397,1.3397,1.3397,1.3397,1.3397,1.3397,1.3397,1.3397,1.3397,1.3397,1.3397,1.3397,1.3397,1.3397,1.3397,1.3397,1.3397,1.3397,1.6133,1.6133,1.6133,1.6133,1.6133,1.6133,1.6133,1.6119,1.6001,1.6051,1.6042,1.59,1.5893,1.601,1.601,1.601,1.5974,1.6085,1.6133,1.6133,1.6126,1.6092,1.6044,1.6003,1.5956,1.5737,1.5438,1.5316,1.5248,1.5174,1.512,1.516,1.516,1.5181,1.5248,1.5289,1.5296,1.5282,1.5208,1.5133,1.5045,1.4909,1.478,1.4692,1.4529,1.4401,1.4401,1.4333,1.4306,1.4299,1.4299,1.4299,1.4299,1.4299,1.4299,1.4278,1.4238,1.4177,1.4143,1.4041,1.3953,1.3946,1.3842,1.3768,1.3707,1.3687,1.3612,1.3553,1.3505,1.3492,1.341,1.3397,1.3397,1.3397,1.3397,1.3397,1.3397,1.3397,1.3397,1.3397,1.3397,1.3397,1.3397,1.3397,1.3397,1.3397,1.3397,1.3397,1.3397,1.3397,1.3397,1.3397,1.3397,1.3397,1.3397,1.3397,1.3397,1.3397,1.3397,1.3397,1.3397,1.3397,1.3397,1.3397,1.3397,1.3397,1.3397,1.3397,1.3397,1.3397,1.3397,1.3397,1.3397,1.3397,1.3397,1.6133,1.6133,1.6133,1.6133,1.6133,1.6133,1.6133,1.6133,1.6133,1.6119,1.6126,1.6133,1.6042,1.6126,1.6119,1.6126,1.6126,1.6076,1.6133,1.6133,1.6035,1.6017,1.5956,1.5906,1.5825,1.5546,1.5418,1.5303,1.5255,1.5228,1.5289,1.5391,1.533,1.5371,1.554,1.5479,1.5431,1.554,1.5466,1.5391,1.5337,1.5208,1.5059,1.4848,1.4685,1.4523,1.4482,1.4407,1.4333,1.4299,1.4299,1.4299,1.4299,1.4299,1.4299,1.4299,1.4285,1.4278,1.4251,1.4177,1.4102,1.4146,1.4,1.3862,1.3842,1.3829,1.3761,1.366,1.3585,1.3524,1.3451,1.341,1.3403,1.3397,1.3397,1.3397,1.3397,1.3397,1.3397,1.3397,1.3397,1.3397,1.3397,1.3397,1.3397,1.3397,1.3397,1.3397,1.3397,1.3397,1.3397,1.3397,1.3397,1.3397,1.3397,1.3397,1.3397,1.3397,1.3397,1.3397,1.3397,1.3397,1.3397,1.3397,1.3397,1.3397,1.3397,1.3397,1.3397,1.3397,1.3397,1.3397,1.3397,1.3397,1.3397,1.6133,1.6133,1.6133,1.6133,1.6133,1.6133,1.6133,1.6133,1.6133,1.6133,1.6133,1.6133,1.6133,1.6133,1.6133,1.6133,1.6133,1.6133,1.6133,1.6105,1.6037,1.5942,1.5915,1.5832,1.5669,1.5479,1.5431,1.5486,1.5384,1.5384,1.5459,1.5567,1.5506,1.5553,1.5587,1.5566,1.5573,1.5683,1.5628,1.5506,1.5445,1.5289,1.5092,1.4875,1.4746,1.4658,1.455,1.4496,1.4421,1.4319,1.4299,1.4299,1.4299,1.4299,1.4299,1.4299,1.4299,1.4299,1.4285,1.4278,1.4258,1.4258,1.4211,1.4136,1.4068,1.4027,1.396,1.3788,1.3666,1.3578,1.3593,1.3512,1.3424,1.341,1.3417,1.341,1.3403,1.3397,1.3397,1.3397,1.3397,1.3397,1.3397,1.3397,1.3397,1.3397,1.3397,1.3397,1.3397,1.3397,1.3397,1.3397,1.3397,1.3397,1.3397,1.3397,1.3397,1.3397,1.3397,1.3397,1.3397,1.3397,1.3397,1.3397,1.3397,1.3397,1.3397,1.3397,1.3397,1.3397,1.3397,1.3397,1.3397,1.3397,1.3397,1.6133,1.6133,1.6133,1.6133,1.6133,1.6133,1.6133,1.6133,1.6133,1.6133,1.6133,1.6133,1.6133,1.6133,1.6133,1.6133,1.6133,1.6133,1.6133,1.6105,1.6051,1.5969,1.5928,1.5845,1.5675,1.5628,1.5662,1.5628,1.5438,1.5499,1.5608,1.5696,1.5634,1.5661,1.5811,1.5791,1.5805,1.5825,1.5784,1.5716,1.5663,1.5425,1.5174,1.5018,1.4889,1.4821,1.476,1.4652,1.4563,1.4448,1.4407,1.4367,1.4326,1.4306,1.4299,1.4299,1.4299,1.4299,1.4299,1.4299,1.4292,1.4299,1.4299,1.4272,1.4211,1.4177,1.4116,1.3973,1.3788,1.3693,1.3693,1.3612,1.36,1.3532,1.3519,1.3478,1.3431,1.341,1.3417,1.3424,1.341,1.341,1.3397,1.3397,1.3397,1.3397,1.3397,1.3397,1.3397,1.3397,1.3397,1.3397,1.3397,1.3397,1.3397,1.3397,1.3397,1.3397,1.3397,1.3397,1.3397,1.3397,1.3397,1.3397,1.3397,1.3397,1.3397,1.3397,1.3397,1.3397,1.3397,1.3397,1.3397,1.3397,1.3397,1.6133,1.6133,1.6133,1.6133,1.6133,1.6133,1.6133,1.6133,1.6133,1.6133,1.6133,1.6133,1.6133,1.6133,1.6133,1.6133,1.6133,1.6133,1.6133,1.6119,1.6022,1.6003,1.5969,1.5976,1.5872,1.5614,1.5818,1.5806,1.5601,1.5628,1.5757,1.5839,1.5778,1.5825,1.5995,1.594,1.6051,1.6001,1.5974,1.5949,1.584,1.5574,1.5357,1.5228,1.5132,1.5044,1.4976,1.4841,1.4713,1.4604,1.455,1.4496,1.4373,1.4346,1.4326,1.4306,1.4299,1.4299,1.4299,1.4299,1.4299,1.4299,1.4299,1.4292,1.4292,1.4265,1.4238,1.4116,1.398,1.3849,1.3842,1.3808,1.3734,1.3666,1.3619,1.3634,1.3566,1.3532,1.3519,1.3498,1.3458,1.3437,1.3431,1.3397,1.3397,1.3397,1.3397,1.3397,1.3397,1.3397,1.3397,1.3397,1.3397,1.3397,1.3397,1.3397,1.3397,1.3397,1.3397,1.3397,1.3397,1.3397,1.3397,1.3397,1.3397,1.3397,1.3397,1.3397,1.3397,1.3397,1.3397,1.3397,1.3397,1.3397,1.3397,1.6133,1.6133,1.6133,1.6133,1.6133,1.6133,1.6133,1.6133,1.6133,1.6133,1.6133,1.6133,1.6133,1.6133,1.6133,1.6133,1.6133,1.6133,1.6133,1.6119,1.603,1.5969,1.5915,1.5915,1.5852,1.575,1.5934,1.599,1.5867,1.586,1.59,1.5995,1.6008,1.6049,1.6105,1.6092,1.6062,1.6076,1.6056,1.603,1.5881,1.5581,1.5445,1.5343,1.5235,1.5153,1.5064,1.495,1.4869,1.474,1.4667,1.4593,1.4516,1.4489,1.4414,1.434,1.4299,1.4299,1.4299,1.4299,1.4299,1.4299,1.4299,1.4299,1.4299,1.4299,1.4285,1.4285,1.4136,1.4055,1.4021,1.3889,1.3815,1.3788,1.3817,1.3761,1.3714,1.3626,1.3612,1.3627,1.36,1.3519,1.3478,1.3431,1.3397,1.3397,1.3397,1.3397,1.3397,1.3397,1.3397,1.3397,1.3397,1.3397,1.3397,1.3397,1.3397,1.3397,1.3397,1.3397,1.3397,1.3397,1.3397,1.3397,1.3397,1.3397,1.3397,1.3397,1.3397,1.3397,1.3397,1.3397,1.3397,1.3397,1.3397,1.6133,1.6133,1.6133,1.6133,1.6133,1.6133,1.6133,1.6133,1.6133,1.6133,1.6133,1.6133,1.6133,1.6133,1.6133,1.6133,1.6133,1.6133,1.6133,1.6133,1.6058,1.5981,1.5988,1.603,1.5934,1.5927,1.5995,1.6092,1.6037,1.603,1.6078,1.6062,1.6133,1.6069,1.6139,1.6133,1.6126,1.6133,1.6119,1.6051,1.5908,1.5772,1.5581,1.5425,1.5343,1.5228,1.5126,1.5086,1.5018,1.4903,1.4875,1.4801,1.4658,1.4563,1.4475,1.4434,1.434,1.4306,1.4299,1.4299,1.4299,1.4299,1.4299,1.4299,1.4299,1.4299,1.4299,1.4292,1.4245,1.4204,1.419,1.4143,1.4055,1.4007,1.3973,1.3876,1.3849,1.3802,1.3754,1.3727,1.3693,1.3668,1.3587,1.3505,1.3464,1.3431,1.3417,1.3397,1.3397,1.3397,1.3397,1.3397,1.3397,1.3397,1.3397,1.3397,1.3397,1.3397,1.3397,1.3397,1.3397,1.3397,1.3397,1.3397,1.3397,1.3397,1.3397,1.3397,1.3397,1.3397,1.3397,1.3397,1.3397,1.3397,1.3397,1.6133,1.6133,1.6133,1.6133,1.6133,1.6133,1.6133,1.6133,1.6133,1.6133,1.6133,1.6133,1.6133,1.6133,1.6133,1.6133,1.6133,1.6133,1.6133,1.6133,1.6133,1.6119,1.6112,1.6119,1.6119,1.6133,1.6112,1.6119,1.6126,1.6119,1.6119,1.6133,1.6133,1.616,1.6123,1.6103,1.6133,1.6133,1.6133,1.6071,1.5983,1.5922,1.5772,1.5574,1.5445,1.5357,1.5262,1.5187,1.5106,1.5052,1.5025,1.495,1.4808,1.4719,1.4597,1.4523,1.4414,1.4346,1.4319,1.4299,1.4299,1.4299,1.4299,1.4299,1.4299,1.4299,1.4299,1.4299,1.4292,1.4285,1.4292,1.4285,1.4224,1.4156,1.4129,1.4048,1.3944,1.3944,1.3916,1.3919,1.3885,1.3851,1.3749,1.362,1.3539,1.3471,1.3437,1.3403,1.3397,1.3397,1.3397,1.3397,1.3397,1.3397,1.3397,1.3397,1.3397,1.3397,1.3397,1.3397,1.3397,1.3397,1.3397,1.3397,1.3397,1.3397,1.3397,1.3397,1.3397,1.3397,1.3397,1.3397,1.3397,1.3397,1.3397,1.6133,1.6133,1.6076,1.6126,1.6133,1.6133,1.6133,1.6133,1.6133,1.6133,1.6133,1.6133,1.6133,1.6133,1.6133,1.6133,1.6133,1.6133,1.6133,1.6133,1.6133,1.6133,1.6133,1.6133,1.6133,1.6133,1.6133,1.6133,1.6139,1.6123,1.6103,1.6133,1.613,1.6191,1.6218,1.6205,1.6157,1.6144,1.613,1.616,1.6085,1.6003,1.5888,1.5806,1.5567,1.5404,1.5391,1.5276,1.5201,1.5167,1.5147,1.5139,1.4964,1.4896,1.4774,1.4624,1.4536,1.4448,1.4373,1.4312,1.4299,1.4299,1.4299,1.4299,1.4299,1.4299,1.4299,1.4299,1.4299,1.4299,1.4299,1.4292,1.4278,1.4258,1.4224,1.4204,1.417,1.419,1.4156,1.4082,1.4041,1.4014,1.3953,1.3824,1.3648,1.3573,1.3437,1.3397,1.3397,1.3397,1.3397,1.3397,1.3397,1.3397,1.3397,1.3397,1.3397,1.3397,1.3397,1.3397,1.3397,1.3397,1.3397,1.3397,1.3397,1.3397,1.3397,1.3397,1.3397,1.3397,1.3397,1.3397,1.3397,1.3397,1.3397,1.5763,1.5818,1.59,1.6044,1.6133,1.6133,1.6133,1.6133,1.6133,1.6133,1.6133,1.6133,1.6133,1.6133,1.6133,1.6133,1.6133,1.6133,1.6133,1.6133,1.6133,1.6133,1.6133,1.6133,1.6133,1.6139,1.6139,1.6144,1.6218,1.6218,1.6293,1.6307,1.6273,1.632,1.6361,1.6381,1.6354,1.6307,1.6266,1.6218,1.6191,1.6126,1.5996,1.5881,1.584,1.5628,1.5547,1.5404,1.5343,1.5296,1.5235,1.516,1.5132,1.5071,1.4962,1.4774,1.4699,1.4577,1.4434,1.4353,1.4299,1.4299,1.4299,1.4299,1.4299,1.4299,1.4299,1.4299,1.4299,1.4299,1.4299,1.4299,1.4292,1.4299,1.4299,1.4299,1.4299,1.4299,1.4285,1.4177,1.419,1.4197,1.4122,1.4041,1.3844,1.3661,1.3519,1.3397,1.3397,1.3397,1.3397,1.3397,1.3397,1.3397,1.3397,1.3397,1.3397,1.3397,1.3397,1.3397,1.3397,1.3397,1.3397,1.3397,1.3397,1.3397,1.3397,1.3397,1.3397,1.3397,1.3397,1.3397,1.3397,1.3397,1.3397,1.5587,1.56,1.5744,1.5928,1.6008,1.6064,1.6042,1.6069,1.6078,1.6098,1.6126,1.6133,1.6133,1.6133,1.6133,1.6133,1.6133,1.6133,1.6133,1.6133,1.6133,1.6133,1.6133,1.6139,1.616,1.613,1.6157,1.6225,1.6368,1.6368,1.6449,1.651,1.6503,1.653,1.6558,1.6533,1.652,1.6497,1.6395,1.6313,1.6286,1.6151,1.6049,1.5969,1.5915,1.584,1.5683,1.556,1.5452,1.5384,1.5316,1.5235,1.5167,1.5139,1.5064,1.495,1.4869,1.474,1.4584,1.4407,1.4306,1.4299,1.4299,1.4299,1.4299,1.4299,1.4299,1.4299,1.4299,1.4299,1.4299,1.4299,1.4299,1.4299,1.4299,1.4299,1.4299,1.4299,1.4299,1.4265,1.4285,1.4272,1.4211,1.4109,1.3905,1.3702,1.3512,1.341,1.3397,1.3397,1.3397,1.3397,1.3397,1.3397,1.3397,1.3397,1.3397,1.3397,1.3397,1.3397,1.3397,1.3397,1.3397,1.3397,1.3397,1.3397,1.3397,1.3397,1.3397,1.3397,1.3397,1.3397,1.3397,1.3397,1.3397,1.5573,1.5587,1.5587,1.5723,1.5888,1.5908,1.5996,1.6056,1.6003,1.5967,1.6076,1.6133,1.6133,1.6133,1.6133,1.6133,1.6133,1.6133,1.6133,1.6133,1.6133,1.6133,1.609,1.6103,1.6178,1.6273,1.6313,1.6374,1.6517,1.6517,1.6554,1.6655,1.6669,1.6669,1.6696,1.6696,1.6615,1.6479,1.6408,1.6347,1.63,1.6178,1.6069,1.6022,1.5996,1.5928,1.5832,1.571,1.5594,1.5499,1.5411,1.5323,1.5221,1.5181,1.5146,1.5044,1.4984,1.4889,1.4694,1.4468,1.436,1.4326,1.4333,1.4299,1.4299,1.4299,1.4299,1.4299,1.4299,1.4299,1.4299,1.4299,1.4299,1.4299,1.4299,1.4299,1.4299,1.4299,1.4299,1.4299,1.4299,1.4285,1.4238,1.415,1.3939,1.3736,1.3526,1.3437,1.3444,1.3437,1.3451,1.3397,1.3397,1.3397,1.3397,1.3397,1.3397,1.3397,1.3397,1.3397,1.3397,1.3397,1.3397,1.3397,1.3397,1.3397,1.3397,1.3397,1.3397,1.3397,1.3397,1.3397,1.3397,1.3397,1.3397,1.5337,1.5343,1.5445,1.5513,1.5588,1.5826,1.599,1.6105,1.6085,1.6085,1.6076,1.6133,1.6133,1.6133,1.6133,1.6133,1.6133,1.6133,1.6133,1.6133,1.6133,1.6133,1.6103,1.6178,1.6259,1.6327,1.6395,1.653,1.6621,1.6621,1.6761,1.6863,1.6883,1.6904,1.6904,1.6904,1.6863,1.6788,1.6612,1.6442,1.6415,1.6225,1.6133,1.6076,1.6071,1.6044,1.603,1.5845,1.5744,1.5649,1.556,1.5404,1.5316,1.5269,1.5167,1.5113,1.5106,1.5045,1.4896,1.4699,1.455,1.4468,1.4367,1.4319,1.4299,1.4299,1.4299,1.4299,1.4299,1.4299,1.4299,1.4299,1.4299,1.4299,1.4299,1.4299,1.4299,1.4299,1.4299,1.4299,1.4299,1.4299,1.4265,1.4217,1.4041,1.3953,1.3783,1.3585,1.3551,1.3559,1.3546,1.3444,1.3397,1.3397,1.3403,1.3471,1.3458,1.3437,1.3417,1.3397,1.3397,1.3397,1.3397,1.3397,1.3397,1.3397,1.3397,1.3397,1.3397,1.3397,1.3397,1.3397,1.3397,1.3397,1.3397,1.5181,1.5194,1.5289,1.5364,1.5432,1.5622,1.5784,1.592,1.5981,1.6029,1.6076,1.6133,1.6133,1.6133,1.6133,1.6133,1.6133,1.6133,1.6133,1.6133,1.6133,1.6133,1.613,1.6232,1.6327,1.6395,1.653,1.6628,1.677,1.6829,1.6883,1.6944,1.6978,1.6965,1.6965,1.6965,1.6965,1.6863,1.6686,1.6503,1.6422,1.6273,1.6133,1.6133,1.6119,1.6119,1.6049,1.5988,1.5956,1.5811,1.5683,1.5506,1.5418,1.533,1.5235,1.5208,1.5167,1.5126,1.5025,1.4903,1.4767,1.4699,1.4496,1.436,1.4319,1.4299,1.4299,1.4299,1.4299,1.4299,1.4299,1.4299,1.4299,1.4299,1.4299,1.4299,1.4299,1.4299,1.4299,1.4299,1.4299,1.4299,1.4292,1.4245,1.4156,1.4109,1.4055,1.3856,1.3707,1.3666,1.3626,1.358,1.3532,1.3573,1.3587,1.3607,1.3573,1.3492,1.3478,1.3478,1.3397,1.3397,1.3397,1.3403,1.341,1.341,1.3403,1.3397,1.3397,1.3397,1.3397,1.3397,1.3397,1.3397,1.3397,1.4932,1.4986,1.4993,1.479,1.5003,1.4594,1.4972,1.5559,1.5791,1.5976,1.6062,1.6105,1.6112,1.6126,1.6133,1.6133,1.6133,1.6133,1.6133,1.6133,1.6133,1.6133,1.618,1.6232,1.6341,1.6497,1.6574,1.6669,1.6937,1.6897,1.691,1.6965,1.6944,1.6958,1.6965,1.6951,1.6944,1.6842,1.668,1.6524,1.6415,1.6232,1.6153,1.6133,1.6133,1.6133,1.6119,1.6098,1.5981,1.5956,1.5867,1.5697,1.5513,1.5411,1.5309,1.5228,1.5181,1.5167,1.514,1.5018,1.4957,1.4862,1.4692,1.4496,1.4373,1.434,1.4333,1.4312,1.4299,1.4299,1.4299,1.4299,1.4299,1.4299,1.4299,1.4299,1.4299,1.4299,1.4299,1.4299,1.4299,1.4299,1.4299,1.4265,1.4231,1.4224,1.4177,1.4109,1.3966,1.3871,1.3831,1.3734,1.3707,1.3747,1.3747,1.3707,1.3666,1.3592,1.3585,1.3565,1.3512,1.3464,1.3519,1.3532,1.3451,1.3431,1.3464,1.3444,1.3397,1.3397,1.3403,1.3397,1.3397,1.3397,1.3397,0.9764,0.9815,0.9792,0.9789,0.9858,0.9862,1.1926,1.529,1.5689,1.5784,1.5969,1.5969,1.5734,1.6076,1.6133,1.5927,1.6026,1.6133,1.6133,1.5977,1.5522,1.5927,1.5981,1.5874,1.6169,1.6155,1.6166,1.5944,1.6463,1.6555,1.657,1.6958,1.608,1.6308,1.6413,1.6765,1.6419,1.6443,1.6168,1.6483,1.6368,1.6185,1.6153,1.6133,1.6133,1.6133,1.6133,1.6133,1.6085,1.6064,1.5805,1.5628,1.5601,1.5384,1.5208,1.5194,1.5181,1.5181,1.5174,1.514,1.5079,1.5051,1.4875,1.4706,1.455,1.4441,1.4407,1.436,1.4306,1.4299,1.4299,1.4299,1.4299,1.4299,1.4299,1.4299,1.4299,1.4299,1.4299,1.4299,1.4299,1.4299,1.4299,1.4292,1.4272,1.4292,1.4272,1.4217,1.4163,1.4061,1.3994,1.3896,1.3876,1.3896,1.3842,1.3795,1.3768,1.3741,1.3734,1.372,1.3666,1.3639,1.366,1.3626,1.3558,1.3573,1.3573,1.3539,1.3498,1.3424,1.3417,1.3403,1.3403,1.341,1.3403,0.7621,0.7585,0.7611,0.7612,0.7592,0.7595,0.9655,1.2357,1.3524,1.4134,1.4256,1.4219,1.4342,1.4147,1.3306,1.3156,1.4265,1.2807,1.2403,1.2552,1.4059,1.3306,1.3451,1.4033,1.3694,1.3745,1.3298,1.2739,1.3675,1.3537,1.3368,1.325,1.3477,1.3614,1.3318,1.2912,1.3067,1.3905,1.4876,1.5982,1.6078,1.5957,1.6103,1.5827,1.5877,1.5877,1.5977,1.5977,1.6033,1.6062,1.5825,1.5696,1.5615,1.5364,1.5194,1.5181,1.5181,1.5181,1.5181,1.5181,1.5126,1.5079,1.5045,1.4969,1.474,1.459,1.4502,1.4414,1.4346,1.4299,1.4299,1.4299,1.4299,1.4299,1.4299,1.4299,1.4299,1.4299,1.4299,1.4299,1.4299,1.4299,1.4299,1.4299,1.4299,1.4299,1.4299,1.4278,1.4245,1.4204,1.415,1.4116,1.4089,1.4075,1.3964,1.393,1.3923,1.396,1.3933,1.3912,1.3842,1.3795,1.3761,1.3741,1.3714,1.3693,1.3673,1.3626,1.3578,1.3553,1.3539,1.358,1.3553,1.3464,1.3444,0.6902,0.6816,0.6985,0.6585,0.6967,0.6642,0.6983,0.7552,0.982,1.1173,1.1393,1.1471,1.1585,1.143,1.0145,1.0295,1.0845,1.0095,0.9494,0.8188,1.0695,1.0845,1.0271,1.0428,1.09,0.933,0.8859,1.0061,0.9119,0.9494,0.9858,0.852,0.9084,0.9672,0.9915,0.9816,1.0027,1.047,1.2551,1.4276,1.4667,1.5144,1.5479,1.5074,1.4968,1.5118,1.5472,1.5728,1.5877,1.5929,1.5934,1.5778,1.556,1.5391,1.5255,1.5181,1.5181,1.5181,1.5181,1.5181,1.5181,1.5167,1.5174,1.5132,1.4916,1.4699,1.4532,1.4462,1.438,1.4312,1.4299,1.4299,1.4299,1.4299,1.4299,1.4299,1.4299,1.4299,1.4299,1.4299,1.4299,1.4299,1.4299,1.4299,1.4299,1.4299,1.4299,1.4299,1.4292,1.4278,1.4258,1.4238,1.4211,1.4183,1.4197,1.4163,1.4156,1.4143,1.4139,1.4068,1.4034,1.3923,1.3849,1.3869,1.3896,1.3842,1.3808,1.3754,1.3714,1.3707,1.3707,1.3754,1.3693,1.3607,1.3526,0.1827,0.183,0.1817,0.1786,0.0,0.1804,0.3044,0.4705,0.533,0.6888,0.8454,0.8731,0.8853,0.8671,0.7888,0.8088,0.8339,0.7637,0.7938,0.7637,0.8639,0.8289,0.7891,0.8266,0.8327,0.8374,0.8093,0.7579,0.7454,0.7776,0.8205,0.8242,0.7896,0.7507,0.7622,0.7612,0.7558,0.7379,0.8622,1.0058,0.9987,0.9974,0.9945,1.0145,1.0345,1.1649,1.2253,1.3051,1.4364,1.5496,1.5877,1.5779,1.5479,1.5343,1.5296,1.5208,1.5181,1.5181,1.5181,1.5181,1.5181,1.5181,1.5181,1.516,1.5045,1.4775,1.4599,1.4523,1.4421,1.4353,1.4299,1.4299,1.4299,1.4299,1.4299,1.4299,1.4299,1.4299,1.4299,1.4299,1.4299,1.4299,1.4299,1.4299,1.4299,1.4299,1.4299,1.4299,1.4299,1.4292,1.4292,1.4272,1.4278,1.4272,1.4299,1.4292,1.4251,1.4251,1.4211,1.419,1.417,1.4129,1.4082,1.4116,1.4129,1.4061,1.398,1.3892,1.3822,1.3862,1.3869,1.3903,1.3862,1.3747,1.3653,0.0,0.0,0.0,0.0,0.0,0.0,0.0852,0.1941,0.2091,0.2926,0.4469,0.5419,0.6111,0.5801,0.5071,0.5582,0.5733,0.4781,0.4078,0.4328,0.5683,0.513,0.5331,0.5683,0.4883,0.4881,0.4531,0.4296,0.0,0.4517,0.4376,0.0,0.0,0.0,0.0,0.0,0.0,0.4464,0.0,0.0,0.0,0.6286,0.7737,0.7988,0.8289,0.909,0.944,1.0445,1.1898,1.4024,1.5131,1.4517,1.4383,1.4676,1.5228,1.5228,1.5181,1.5181,1.5181,1.5181,1.5181,1.5181,1.5181,1.5167,1.4859,1.4606,1.4735,1.4652,1.4502,1.4421,1.4326,1.4299,1.4299,1.4299,1.4299,1.4299,1.4299,1.4299,1.4299,1.4299,1.4299,1.4299,1.4299,1.4299,1.4299,1.4299,1.4299,1.4299,1.4299,1.4299,1.4299,1.4299,1.4299,1.4299,1.4299,1.4299,1.4285,1.4292,1.4299,1.4272,1.4238,1.4265,1.4278,1.4251,1.4224,1.4204,1.4122,1.4034,1.4055,1.4109,1.4095,1.4031,1.3977,1.393,1.3899,0.0,0.0,0.0,0.0,0.0,0.0,0.0,0.0,0.0,0.0,0.0,0.258,0.3294,0.2585,0.1456,0.2214,0.2519,0.2017,0.0858,0.0,0.267,0.2519,0.2368,0.2319,0.2016,0.0,0.0,0.0,0.0,0.0,0.0,0.0,0.0,0.0,0.0,0.0,0.0,0.0,0.0,0.0,0.0,0.4278,0.5683,0.6587,0.7038,0.7136,0.7286,0.7888,0.909,1.0957,1.2985,1.2423,1.2133,1.2431,1.3679,1.3889,1.4134,1.4469,1.504,1.5181,1.5134,1.5087,1.5134,1.4932,1.4531,1.4506,1.4639,1.4603,1.4455,1.4462,1.436,1.4299,1.4299,1.4299,1.4299,1.4299,1.4299,1.4299,1.4299,1.4299,1.4299,1.4299,1.4299,1.4299,1.4299,1.4299,1.4299,1.4299,1.4299,1.4299,1.4299,1.4299,1.4299,1.4299,1.4299,1.4299,1.4299,1.4299,1.4299,1.4299,1.4299,1.4299,1.4299,1.4299,1.4278,1.4258,1.4265,1.4211,1.4251,1.4258,1.4224,1.4177,1.4183,1.4136,1.4109,0.0,0.0,0.0,0.0,0.0,0.0,0.0,0.0,0.0,0.0,0.0,0.0,0.0734,0.0,0.0402,0.0,0.0,0.0,0.0,0.0,0.0,0.0,0.0,0.0,0.0,0.0,0.0,0.0,0.0,0.0,0.0,0.0,0.0,0.0,0.0,0.0,0.0,0.0,0.0,0.0,0.0,0.0,0.0,0.1513,0.1513,0.2922,0.4026,0.4678,0.6383,0.8068,0.9364,0.9362,0.9274,0.9578,1.0749,1.1863,1.2114,1.3234,1.3805,1.4422,1.4469,1.461,1.4516,1.4335,1.4134,1.4128,1.4195,1.4205,1.4152,1.4372,1.4322,1.4312,1.4299,1.4299,1.4299,1.4299,1.4299,1.4299,1.4299,1.4299,1.4299,1.4299,1.4299,1.4299,1.4299,1.4299,1.4299,1.4299,1.4299,1.4299,1.4299,1.4299,1.4299,1.4299,1.4299,1.4299,1.4299,1.4299,1.4299,1.4299,1.4299,1.4299,1.4299,1.4299,1.4299,1.4285,1.4299,1.4299,1.4292,1.4285,1.4285,1.4278,1.4285,1.4272,1.4217]},{"header":{"parameterUnit":"m.s-1","parameterCategory":1,"la1":31.0,"la2":29.5877,"lo1":-88.7671,"lo2":-86.6584,"dy":0.0162,"dx":0.0185,"nx":115,"ny":88,"refTime":"2023-04-22T12:00:00:Z","depth":0,"parameterNumber":3,"parameterNumberName":"V-component_of_WINDS"},"data":[0.0,0.0,0.0,0.0,0.0,0.0,0.0,0.0,0.0,0.0,0.0,0.0,0.0,0.0,0.0,0.0,0.0,0.0,0.0,0.0,0.0,0.0,0.0,0.0,0.0,0.0,0.0,0.0,0.0,0.0,0.0,0.0,0.0,0.0,0.0,0.0,0.0,0.0,0.0,0.0,0.0,0.0,0.0,0.0,0.0,0.0,0.0,0.0,0.0,0.0,0.0,0.0,0.0,0.0,0.0,0.0,0.0,0.0,0.0,0.0,0.0,0.0,0.0,0.0,0.0,0.0,0.0,0.0,0.0,0.0,0.0,0.0,0.0,0.0,0.0,0.0,0.0,0.0,0.0,0.0,0.0,0.0,0.0,0.0,0.0,0.0,0.0,0.0,0.0,0.0,0.0,0.0,0.0,0.0,0.0,0.0,0.0,0.0,0.0,0.0,0.0,0.0,0.0,0.0,0.0,0.0,0.0,0.0,0.0,0.0,0.0,0.0,0.0,0.0,0.0,0.0,0.0,0.0,0.0,0.0,0.0,0.0,0.0,0.0,0.0,0.0,0.0,0.0,0.0,0.0,0.0,0.0,0.0,0.0,0.0,0.0,0.0,0.0,0.0,0.0,0.0,0.0,0.0,0.0,0.0,0.0,0.0,0.0,0.0,0.0,0.0,0.0,0.0,0.0,0.0,0.0,0.0,0.0,0.0,0.0,0.0,0.0,0.0,0.0,0.0,0.0,0.0,0.0,0.0,0.0,0.0,0.0,0.0,0.0,0.0,0.0,0.0,0.0,0.0,0.0,0.0,0.0,0.0,0.0,0.0,0.0,0.0,0.0,0.0,0.0,0.0,0.0,0.0,0.0,0.0,0.0,0.0,0.0,0.0,0.0,0.0,0.0,0.0,0.0,0.0,0.0,0.0,0.0,0.0,0.0,0.0,0.0,0.0,0.0,0.0,0.0,0.0,0.0,0.0,0.0,0.0,0.0,0.0,0.0,0.0,0.0,0.0,0.0,0.0,0.0,0.0,0.0,0.0,0.0,0.0,0.0,0.0,0.0,0.0,0.0,0.0,0.0,0.0,0.0,0.0,0.0,0.0,0.0,0.0,0.0,0.0,0.0,0.0,0.0,0.0,0.0,0.0,0.0,0.0,0.0,0.0,0.0,0.0,0.0,0.0,0.0,0.0,0.0,0.0,0.0,0.0,0.0,0.0,0.0,0.0,0.0,0.0,0.0,0.0,0.0,0.0,0.0,0.0,0.0,0.0,0.0,0.0,0.0,0.0,0.0,0.0,0.0,0.0,0.0,0.0,0.0,0.0,0.0,0.0,0.0,0.0,0.0,0.0,0.0,0.0,0.0,0.0,0.0,0.0,0.0,0.0,0.0,0.0,0.0,0.0,0.0,0.0,0.0,0.0,0.0,0.0,0.0,0.0,0.0,0.0,0.0,0.0,0.0,0.0,0.0,0.0,0.0,0.0,0.0,0.0,0.0,0.0,0.0,0.0,0.0,0.0,0.0,0.0,0.0,0.0,0.0,0.0,0.0,0.0,0.0,0.0,0.0,0.0,0.0,0.0,0.0,0.0,0.0,0.0,0.0,0.0,0.0,0.0,0.0,0.0,0.0,0.0,0.0,0.0,0.0,0.0,0.0,0.0,0.0,0.0,0.0,0.0,0.0,0.0,0.0,0.0,0.0,0.0,0.0,0.0,0.0,0.0,0.0,0.0,0.0,0.0,0.0,0.0,0.0,0.0,0.0,0.0,0.0,0.0,0.0,0.0,0.0,0.0,0.0,0.0,0.0,0.0,0.0,0.0,0.0,0.0,0.0,0.0,0.0,0.0,0.0,0.0,0.0,0.0,0.0,0.0,0.0,0.0,0.0,0.0,0.0,0.0,0.0,0.0,0.0,0.0,0.0,0.0,0.0,0.0,0.0,0.0,0.0,0.0,0.0,0.0,0.0,0.0,0.0,0.0,0.0,0.0,0.0,0.0,0.0,0.0,0.0,0.0,0.0,0.0,0.0,0.0,0.0,0.0,0.0,0.0,0.0,0.0,0.0,0.0,0.0,0.0,0.0,0.0,0.0,0.0,0.0,0.0,0.0,0.0,0.0,0.0,0.0,0.0,0.0,0.0,0.0,0.0,0.0,0.0,0.0,0.0,0.0,0.0,0.0,0.0,0.0,0.0,0.0,0.0,0.0,0.0,0.0,0.0,0.0,0.0,0.0,0.0,0.0,0.0,0.0,0.0,0.0,0.0,0.0,0.0,0.0,0.0,0.0,0.0,0.0,0.0,0.0,0.0,0.0,0.0,0.0,0.0,0.0,0.0,0.0,0.0,0.0,0.0,0.0,0.0,0.0,0.0,0.0,0.0,0.0,0.0,0.0,0.0,0.0,0.0,0.0,0.0,0.0,0.0,0.0,0.0,0.0,0.0,0.0,0.0,0.0,0.0,0.0,0.0,0.0,0.0,0.0,0.0,0.0,0.0,0.0,0.0,0.0,0.0,0.0,0.0,0.0,0.0,0.0,0.0,0.0,0.0,0.0,0.0,0.0,0.0,0.0,0.0,0.0,0.0,0.0,0.0,0.0,0.0,0.0,0.0,0.0,0.0,0.0,0.0,0.0,0.0,0.0,0.0,0.0,0.0,0.0,0.0,0.0,0.0,0.0,0.0,0.0,0.0,0.0,0.0,0.0,0.0,0.0,0.0,0.0,0.0,0.0,0.0,0.0,0.0,0.0,0.0,0.0,0.0,0.0,0.0,0.0,0.0,0.0,0.0,0.0,0.0,0.0,0.0,0.0,0.0,0.0,0.0,0.0,0.0,0.0,0.0,0.0,0.0,0.0,0.0,0.0,0.0,0.0,0.0,0.0,0.0,0.0,0.0,0.0,0.0,0.0,0.0,0.0,0.0,0.0,0.0,0.0,0.0,0.0,0.0,0.0,0.0,0.0,0.0,0.0,0.0,0.0,0.0,0.0,0.0,0.0,0.0,0.0,0.0,0.0,0.0,0.0,0.0,0.0,0.0,0.0,0.0,0.0,0.0,0.0,0.0,0.0,0.0,0.0,0.0,0.0,0.0,0.0,0.0,0.0,0.0,0.0,0.0,0.0,0.0,0.0,0.0,0.0,0.0,0.0,0.0,0.0,0.0,0.0,0.0,0.0,0.0,0.0,0.0,0.0,0.0,0.0,0.0,0.0,0.0,0.0,0.0,0.0,0.0,0.0,0.0,0.0,0.0,0.0,0.0,0.0,0.0,0.0,0.0,0.0,0.0,0.0,0.0,0.0,0.0,0.0,0.0,0.0,0.0,0.0,0.0,0.0,0.0,0.0,0.0,0.0,0.0,0.0,0.0,0.0,0.0,0.0,0.0,0.0,0.0,0.0,0.0,0.0,0.0,0.0,0.0,0.0,0.0,0.0,0.0,0.0,0.0,0.0,0.0,0.0,0.0,0.0,0.0,0.0,0.0,0.0,0.0,0.0,0.0,0.0,0.0,0.0,0.0,0.0,0.0,0.0,0.0,0.0,0.0,0.0,0.0,0.0,0.0,0.0,0.0,0.0,0.0,0.0,0.0,0.0,0.0,0.0,0.0,0.0,0.0,0.0,0.0,0.0,0.0,0.0,0.0,0.0,0.0,0.0,0.0,0.0,0.0,0.0,0.0,0.0,0.0,0.0,0.0,0.0,0.0,0.0,0.0,0.0,0.0,0.0,0.0,0.0,0.0,0.0,0.0,0.0,0.0,0.0,0.0,0.0,0.0,0.0,0.0,0.0,0.0,0.0,0.0,0.0,0.0,0.0,0.0,0.0,0.0,0.0,0.0,0.0,0.0,0.0,0.0,0.0,0.0,0.0,0.0,0.0,0.0,0.0,0.0,0.0,0.0,0.0,0.0,0.0,0.0,0.0,0.0,0.0,0.0,0.0,0.0,0.0,0.0,0.0,0.0,0.0,0.0,0.0,0.0,0.0,0.0,0.0,0.0,0.0,0.0,0.0,0.0,0.0,0.0,0.0,0.0,0.0,0.0,0.0,0.0,0.0,0.0,0.0,0.0,0.0,0.0,0.0,0.0,0.0,0.0,0.0,0.0,0.0,0.0,0.0,0.0,0.0,0.0,0.0,0.0,0.0,0.0,0.0,0.0,0.0,0.0,0.0,0.0,0.0,0.0,0.0,0.0,0.0,0.0,0.0,0.0,0.0,0.0,0.0,0.0,0.0,0.0,0.0,0.0,0.0,0.0,0.0,0.0,0.0,0.0,0.0,0.0,0.0,0.0,0.0,3.4628,0.0,0.0,0.0,0.0,0.0,0.0,0.0,0.0,0.0,0.0,0.0,0.0,0.0,0.0,0.0,0.0,0.0,0.0,0.0,0.0,0.0,0.0,0.0,0.0,0.0,0.0,0.0,0.0,0.0,0.0,0.0,0.0,0.0,0.0,0.0,0.0,0.0,0.0,0.0,0.0,0.0,0.0,0.0,0.0,0.0,0.0,0.0,0.0,0.0,0.0,0.0,0.0,0.0,0.0,0.0,0.0,0.0,0.0,0.0,0.0,0.0,0.0,0.0,0.0,0.0,0.0,0.0,0.0,0.0,0.0,0.0,0.0,0.0,0.0,0.0,0.0,0.0,0.0,0.0,0.0,0.0,0.0,0.0,0.0,0.0,0.0,0.0,0.0,0.0,0.0,0.0,0.0,0.0,0.0,0.0,0.0,0.0,0.0,0.0,0.0,0.0,0.0,0.0,0.0,0.0,0.0,0.0,0.0,0.0,0.0,3.4759,3.403,3.4365,3.4616,3.4661,0.0,0.0,0.0,0.0,0.0,0.0,0.0,0.0,0.0,0.0,0.0,0.0,0.0,0.0,0.0,0.0,0.0,0.0,0.0,0.0,0.0,0.0,0.0,0.0,0.0,0.0,0.0,0.0,0.0,0.0,0.0,0.0,0.0,0.0,0.0,0.0,0.0,0.0,0.0,0.0,0.0,0.0,0.0,0.0,0.0,0.0,0.0,0.0,0.0,0.0,0.0,0.0,0.0,0.0,0.0,0.0,0.0,0.0,0.0,0.0,0.0,0.0,0.0,0.0,0.0,0.0,0.0,0.0,0.0,0.0,0.0,0.0,0.0,0.0,0.0,0.0,0.0,0.0,0.0,0.0,0.0,0.0,0.0,0.0,0.0,0.0,0.0,0.0,0.0,0.0,0.0,0.0,0.0,0.0,0.0,0.0,0.0,0.0,0.0,0.0,0.0,0.0,0.0,0.0,0.0,0.0,0.0,0.0,0.0,0.0,0.0,0.0,3.504,3.5494,3.5862,0.0,0.0,0.0,0.0,0.0,0.0,0.0,0.0,0.0,0.0,0.0,0.0,0.0,0.0,0.0,0.0,0.0,0.0,0.0,0.0,0.0,0.0,0.0,0.0,0.0,0.0,0.0,0.0,0.0,0.0,0.0,0.0,0.0,0.0,0.0,0.0,0.0,0.0,0.0,0.0,0.0,0.0,0.0,0.0,0.0,0.0,0.0,0.0,0.0,0.0,0.0,0.0,0.0,0.0,0.0,0.0,0.0,0.0,0.0,0.0,0.0,0.0,0.0,0.0,0.0,0.0,0.0,0.0,0.0,0.0,0.0,0.0,0.0,0.0,0.0,0.0,0.0,0.0,0.0,0.0,0.0,0.0,0.0,0.0,0.0,0.0,0.0,0.0,0.0,0.0,0.0,0.0,0.0,0.0,0.0,0.0,0.0,0.0,0.0,0.0,0.0,0.0,0.0,0.0,0.0,0.0,0.0,0.0,0.0,0.0,3.6888,3.7501,3.7518,0.0,3.9462,0.0,0.0,0.0,0.0,0.0,0.0,0.0,0.0,0.0,0.0,0.0,0.0,0.0,0.0,0.0,0.0,0.0,0.0,0.0,0.0,0.0,0.0,0.0,0.0,0.0,0.0,0.0,0.0,0.0,0.0,0.0,0.0,0.0,0.0,0.0,0.0,0.0,0.0,0.0,0.0,0.0,0.0,0.0,0.0,0.0,0.0,0.0,0.0,0.0,0.0,0.0,0.0,0.0,0.0,0.0,0.0,0.0,0.0,0.0,0.0,0.0,0.0,0.0,0.0,0.0,0.0,0.0,0.0,0.0,0.0,0.0,0.0,0.0,0.0,0.0,0.0,0.0,0.0,0.0,0.0,0.0,0.0,0.0,0.0,0.0,0.0,0.0,0.0,0.0,0.0,0.0,0.0,0.0,0.0,0.0,0.0,0.0,0.0,0.0,0.0,0.0,0.0,0.0,0.0,0.0,0.0,0.0,0.0,0.0,0.0,3.6544,3.6014,3.6843,3.7934,0.0,0.0,0.0,0.0,0.0,0.0,0.0,0.0,0.0,0.0,0.0,0.0,0.0,0.0,0.0,0.0,0.0,0.0,0.0,0.0,0.0,0.0,0.0,0.0,0.0,0.0,0.0,0.0,0.0,0.0,0.0,0.0,0.0,0.0,0.0,0.0,0.0,0.0,0.0,0.0,0.0,0.0,0.0,0.0,0.0,0.0,0.0,0.0,0.0,0.0,0.0,0.0,0.0,0.0,0.0,0.0,0.0,0.0,0.0,0.0,0.0,0.0,0.0,0.0,0.0,0.0,0.0,0.0,0.0,0.0,0.0,0.0,0.0,0.0,0.0,0.0,0.0,0.0,0.0,0.0,0.0,0.0,0.0,0.0,0.0,0.0,0.0,0.0,0.0,0.0,0.0,0.0,0.0,0.0,0.0,0.0,0.0,0.0,0.0,0.0,0.0,0.0,0.0,0.0,0.0,0.0,0.0,0.0,0.0,0.0,3.6184,3.6494,3.5947,3.6692,3.7697,3.8949,0.0,0.0,0.0,0.0,0.0,0.0,0.0,0.0,0.0,0.0,0.0,0.0,0.0,0.0,0.0,0.0,0.0,0.0,0.0,0.0,0.0,0.0,0.0,0.0,0.0,0.0,0.0,0.0,0.0,0.0,0.0,0.0,0.0,0.0,0.0,0.0,0.0,0.0,0.0,0.0,0.0,0.0,0.0,0.0,0.0,0.0,0.0,0.0,0.0,0.0,0.0,0.0,0.0,0.0,0.0,0.0,0.0,0.0,0.0,0.0,0.0,0.0,0.0,0.0,0.0,0.0,0.0,0.0,0.0,0.0,0.0,0.0,0.0,0.0,0.0,0.0,0.0,0.0,0.0,0.0,0.0,0.0,0.0,0.0,0.0,0.0,0.0,0.0,0.0,0.0,0.0,0.0,0.0,0.0,0.0,0.0,0.0,0.0,0.0,0.0,0.0,0.0,0.0,0.0,0.0,0.0,0.0,0.0,3.8604,3.7425,3.7437,3.867,3.8203,3.8193,0.0,0.0,0.0,0.0,0.0,0.0,0.0,0.0,0.0,0.0,0.0,0.0,0.0,0.0,0.0,0.0,0.0,0.0,0.0,0.0,0.0,0.0,0.0,0.0,0.0,0.0,0.0,0.0,0.0,0.0,0.0,0.0,0.0,0.0,0.0,0.0,0.0,0.0,0.0,0.0,0.0,0.0,0.0,0.0,0.0,0.0,0.0,0.0,0.0,0.0,0.0,0.0,0.0,0.0,0.0,0.0,0.0,0.0,0.0,0.0,0.0,0.0,0.0,0.0,0.0,0.0,0.0,0.0,0.0,0.0,0.0,0.0,0.0,0.0,0.0,0.0,0.0,0.0,0.0,0.0,0.0,0.0,0.0,0.0,0.0,0.0,0.0,0.0,0.0,0.0,0.0,0.0,0.0,0.0,0.0,0.0,0.0,0.0,0.0,0.0,0.0,0.0,0.0,0.0,0.0,0.0,0.0,0.0,0.0,3.5578,3.544,3.6317,3.8169,3.7584,3.7516,0.0,0.0,0.0,0.0,0.0,0.0,0.0,0.0,0.0,0.0,0.0,0.0,0.0,0.0,0.0,0.0,0.0,0.0,0.0,0.0,0.0,0.0,0.0,0.0,0.0,0.0,0.0,0.0,0.0,0.0,0.0,0.0,0.0,0.0,0.0,0.0,0.0,0.0,0.0,0.0,0.0,0.0,0.0,0.0,0.0,0.0,0.0,0.0,0.0,0.0,0.0,0.0,0.0,0.0,0.0,0.0,0.0,0.0,0.0,0.0,0.0,0.0,0.0,0.0,0.0,0.0,0.0,0.0,0.0,0.0,0.0,0.0,0.0,0.0,0.0,0.0,0.0,0.0,0.0,0.0,0.0,0.0,0.0,0.0,0.0,0.0,0.0,0.0,0.0,0.0,0.0,0.0,0.0,0.0,0.0,0.0,0.0,0.0,0.0,0.0,0.0,0.0,0.0,0.0,0.0,0.0,0.0,0.0,0.0,3.4631,0.0,3.6038,3.7459,3.7054,3.6919,0.0,0.0,0.0,0.0,0.0,0.0,0.0,0.0,0.0,0.0,0.0,0.0,0.0,0.0,0.0,0.0,0.0,0.0,0.0,0.0,0.0,0.0,0.0,0.0,0.0,0.0,0.0,0.0,0.0,0.0,0.0,0.0,0.0,0.0,0.0,0.0,0.0,0.0,0.0,0.0,0.0,0.0,0.0,0.0,0.0,0.0,0.0,0.0,0.0,0.0,0.0,0.0,0.0,0.0,0.0,0.0,0.0,0.0,0.0,0.0,0.0,0.0,0.0,0.0,0.0,0.0,0.0,0.0,0.0,0.0,0.0,0.0,0.0,0.0,0.0,0.0,0.0,0.0,0.0,0.0,0.0,0.0,0.0,0.0,0.0,0.0,0.0,0.0,0.0,0.0,0.0,0.0,0.0,0.0,0.0,0.0,0.0,0.0,0.0,0.0,0.0,0.0,0.0,0.0,0.0,0.0,0.0,0.0,3.5949,3.6704,3.6693,3.6727,3.6818,3.6829,3.6445,0.0,0.0,0.0,0.0,0.0,0.0,0.0,0.0,0.0,0.0,0.0,0.0,0.0,0.0,0.0,0.0,0.0,0.0,0.0,0.0,0.0,0.0,0.0,0.0,0.0,0.0,0.0,0.0,0.0,0.0,0.0,0.0,0.0,0.0,0.0,0.0,0.0,0.0,0.0,0.0,0.0,0.0,0.0,0.0,0.0,0.0,0.0,0.0,0.0,0.0,0.0,0.0,0.0,0.0,0.0,0.0,0.0,0.0,0.0,0.0,0.0,0.0,0.0,0.0,0.0,0.0,0.0,0.0,0.0,0.0,0.0,0.0,0.0,0.0,0.0,0.0,0.0,0.0,0.0,0.0,0.0,0.0,0.0,0.0,0.0,0.0,0.0,0.0,0.0,0.0,0.0,0.0,0.0,0.0,0.0,0.0,0.0,0.0,0.0,0.0,0.0,0.0,0.0,0.0,0.0,0.0,0.0,0.0,0.0,3.5949,3.5949,3.6738,3.8159,3.6806,3.6591,0.0,0.0,0.0,0.0,0.0,0.0,0.0,0.0,0.0,0.0,0.0,0.0,0.0,0.0,0.0,0.0,0.0,0.0,0.0,0.0,0.0,0.0,0.0,0.0,0.0,0.0,0.0,0.0,0.0,0.0,0.0,0.0,0.0,0.0,0.0,0.0,0.0,0.0,0.0,0.0,0.0,0.0,0.0,0.0,0.0,0.0,0.0,0.0,0.0,0.0,0.0,0.0,0.0,0.0,0.0,0.0,0.0,0.0,0.0,0.0,0.0,0.0,0.0,0.0,0.0,0.0,0.0,0.0,0.0,0.0,0.0,0.0,0.0,0.0,0.0,0.0,0.0,0.0,0.0,0.0,0.0,0.0,0.0,0.0,0.0,0.0,0.0,0.0,0.0,0.0,0.0,0.0,0.0,0.0,0.0,0.0,0.0,0.0,0.0,0.0,0.0,0.0,0.0,0.0,0.0,0.0,0.0,0.0,0.0,3.7217,3.6786,3.7261,3.87,3.7375,3.6932,3.7652,0.0,0.0,0.0,0.0,0.0,0.0,0.0,0.0,0.0,0.0,0.0,0.0,0.0,0.0,0.0,0.0,0.0,0.0,0.0,0.0,0.0,0.0,0.0,0.0,0.0,0.0,0.0,0.0,0.0,0.0,0.0,0.0,0.0,0.0,0.0,0.0,0.0,0.0,0.0,0.0,0.0,0.0,0.0,0.0,0.0,0.0,0.0,0.0,0.0,0.0,0.0,0.0,0.0,0.0,0.0,0.0,0.0,0.0,0.0,0.0,0.0,0.0,0.0,0.0,0.0,0.0,0.0,0.0,0.0,0.0,0.0,0.0,0.0,0.0,0.0,0.0,0.0,0.0,0.0,0.0,0.0,0.0,0.0,0.0,0.0,0.0,0.0,0.0,0.0,0.0,0.0,0.0,0.0,0.0,0.0,0.0,0.0,0.0,0.0,0.0,0.0,0.0,0.0,0.0,0.0,0.0,0.0,0.0,4.0145,3.9445,3.9089,3.8825,3.8562,3.7627,0.0,0.0,0.0,0.0,0.0,0.0,0.0,0.0,0.0,0.0,0.0,0.0,0.0,0.0,0.0,0.0,0.0,0.0,0.0,0.0,0.0,0.0,0.0,0.0,0.0,0.0,0.0,0.0,0.0,0.0,0.0,0.0,0.0,0.0,0.0,0.0,0.0,0.0,0.0,0.0,0.0,0.0,0.0,0.0,0.0,0.0,0.0,0.0,0.0,0.0,0.0,0.0,0.0,0.0,0.0,0.0,0.0,0.0,0.0,0.0,0.0,0.0,0.0,0.0,0.0,0.0,0.0,0.0,0.0,0.0,0.0,0.0,0.0,0.0,0.0,0.0,0.0,0.0,0.0,0.0,0.0,0.0,0.0,0.0,0.0,0.0,0.0,0.0,0.0,0.0,0.0,0.0,0.0,0.0,0.0,0.0,0.0,0.0,0.0,0.0,0.0,0.0,0.0,0.0,0.0,0.0,0.0,0.0,0.0,4.392,4.7096,4.7292,4.4068,4.0965,3.9879,0.0,0.0,0.0,0.0,0.0,0.0,0.0,0.0,0.0,0.0,0.0,0.0,0.0,0.0,0.0,0.0,0.0,0.0,0.0,0.0,0.0,0.0,0.0,0.0,0.0,0.0,0.0,0.0,0.0,0.0,0.0,0.0,0.0,0.0,0.0,0.0,0.0,0.0,0.0,0.0,0.0,0.0,0.0,0.0,0.0,0.0,0.0,0.0,0.0,0.0,0.0,0.0,0.0,0.0,0.0,0.0,0.0,0.0,0.0,0.0,0.0,0.0,0.0,0.0,0.0,0.0,0.0,0.0,0.0,0.0,0.0,0.0,0.0,0.0,0.0,0.0,0.0,0.0,0.0,0.0,0.0,0.0,0.0,0.0,0.0,0.0,0.0,0.0,0.0,0.0,0.0,0.0,0.0,0.0,0.0,0.0,0.0,0.0,0.0,0.0,0.0,0.0,0.0,0.0,0.0,0.0,0.0,0.0,4.7262,4.6607,5.2846,5.4269,5.0219,4.5716,4.2895,0.0,0.0,0.0,0.0,0.0,0.0,0.0,0.0,0.0,0.0,0.0,0.0,0.0,0.0,0.0,0.0,0.0,0.0,0.0,0.0,0.0,0.0,0.0,0.0,0.0,0.0,0.0,0.0,0.0,0.0,0.0,0.0,0.0,0.0,0.0,0.0,0.0,0.0,0.0,0.0,0.0,0.0,0.0,0.0,0.0,0.0,0.0,0.0,0.0,0.0,0.0,0.0,0.0,0.0,0.0,0.0,0.0,0.0,0.0,0.0,0.0,0.0,0.0,0.0,0.0,0.0,0.0,0.0,0.0,0.0,0.0,0.0,0.0,0.0,0.0,0.0,0.0,0.0,0.0,0.0,0.0,0.0,0.0,0.0,0.0,0.0,0.0,0.0,0.0,0.0,0.0,0.0,0.0,0.0,0.0,0.0,0.0,0.0,0.0,0.0,0.0,0.0,0.0,0.0,0.0,0.0,0.0,0.0,5.1402,4.9655,5.7418,5.9944,5.6441,5.112,4.6173,0.0,0.0,0.0,0.0,0.0,0.0,0.0,0.0,0.0,0.0,0.0,0.0,0.0,0.0,0.0,0.0,0.0,0.0,0.0,0.0,0.0,0.0,0.0,0.0,0.0,0.0,0.0,0.0,0.0,0.0,0.0,0.0,0.0,0.0,0.0,0.0,0.0,0.0,0.0,0.0,0.0,0.0,0.0,0.0,0.0,0.0,0.0,0.0,0.0,0.0,0.0,0.0,0.0,0.0,0.0,0.0,0.0,0.0,0.0,0.0,0.0,0.0,0.0,0.0,0.0,0.0,0.0,0.0,0.0,0.0,0.0,0.0,0.0,0.0,0.0,0.0,0.0,0.0,0.0,0.0,0.0,0.0,0.0,0.0,0.0,0.0,0.0,0.0,0.0,0.0,0.0,0.0,0.0,0.0,0.0,0.0,0.0,0.0,0.0,0.0,0.0,0.0,0.0,0.0,0.0,0.0,0.0,0.0,5.4347,5.7448,6.2371,6.3463,6.0326,5.2302,4.7145,0.0,0.0,0.0,0.0,0.0,0.0,0.0,0.0,0.0,0.0,0.0,0.0,0.0,0.0,0.0,0.0,0.0,0.0,0.0,0.0,0.0,0.0,0.0,0.0,0.0,0.0,0.0,0.0,0.0,0.0,0.0,0.0,0.0,0.0,0.0,0.0,0.0,0.0,0.0,0.0,0.0,0.0,0.0,0.0,0.0,0.0,0.0,0.0,4.0696,0.0,0.0,0.0,0.0,0.0,0.0,0.0,0.0,0.0,0.0,0.0,0.0,0.0,0.0,0.0,0.0,0.0,0.0,0.0,0.0,0.0,0.0,0.0,0.0,0.0,0.0,0.0,0.0,0.0,0.0,0.0,0.0,0.0,0.0,0.0,0.0,0.0,0.0,0.0,0.0,0.0,0.0,0.0,0.0,0.0,0.0,0.0,0.0,0.0,0.0,0.0,0.0,0.0,0.0,0.0,0.0,0.0,0.0,0.0,5.5859,6.0566,6.5056,6.5962,6.2946,5.6419,5.1266,0.0,0.0,0.0,0.0,0.0,0.0,0.0,0.0,0.0,0.0,0.0,0.0,0.0,0.0,0.0,0.0,0.0,0.0,0.0,0.0,0.0,0.0,0.0,0.0,0.0,0.0,0.0,0.0,0.0,0.0,0.0,0.0,0.0,0.0,0.0,0.0,0.0,0.0,0.0,0.0,0.0,0.0,0.0,0.0,0.0,0.0,0.0,0.0,0.0,0.0,0.0,0.0,0.0,0.0,0.0,0.0,0.0,0.0,0.0,0.0,0.0,0.0,0.0,0.0,0.0,0.0,0.0,0.0,0.0,0.0,0.0,0.0,0.0,0.0,0.0,0.0,0.0,0.0,0.0,0.0,0.0,0.0,0.0,0.0,0.0,0.0,0.0,0.0,0.0,0.0,0.0,0.0,0.0,0.0,0.0,0.0,0.0,0.0,0.0,0.0,0.0,0.0,0.0,0.0,0.0,0.0,0.0,5.1683,5.7009,6.2701,6.6833,6.7709,6.5158,6.1034,5.5987,4.9933,0.0,0.0,0.0,0.0,0.0,0.0,0.0,0.0,0.0,0.0,0.0,0.0,0.0,0.0,0.0,0.0,0.0,0.0,0.0,0.0,0.0,0.0,0.0,0.0,0.0,0.0,0.0,0.0,0.0,0.0,0.0,0.0,0.0,0.0,0.0,0.0,0.0,0.0,3.7376,3.8488,0.0,0.0,0.0,0.0,0.0,0.0,0.0,0.0,4.1059,0.0,0.0,0.0,0.0,0.0,0.0,0.0,0.0,0.0,0.0,0.0,0.0,0.0,0.0,0.0,0.0,0.0,0.0,0.0,0.0,0.0,0.0,0.0,0.0,0.0,0.0,0.0,0.0,0.0,0.0,0.0,0.0,0.0,0.0,0.0,0.0,0.0,0.0,0.0,0.0,0.0,0.0,0.0,0.0,0.0,0.0,0.0,0.0,0.0,0.0,0.0,0.0,0.0,0.0,0.0,0.0,5.2618,5.3712,5.8999,6.8634,6.901,6.8392,6.6967,6.2741,5.7698,5.2042,0.0,0.0,0.0,0.0,0.0,0.0,0.0,0.0,0.0,0.0,0.0,0.0,0.0,0.0,0.0,0.0,0.0,0.0,0.0,0.0,0.0,0.0,0.0,0.0,0.0,0.0,0.0,0.0,0.0,0.0,0.0,0.0,0.0,0.0,0.0,0.0,0.0,0.0,0.0,4.0385,4.0851,0.0,0.0,0.0,0.0,0.0,0.0,0.0,0.0,4.1557,0.0,0.0,0.0,0.0,0.0,0.0,0.0,0.0,0.0,0.0,0.0,0.0,0.0,0.0,0.0,0.0,0.0,0.0,0.0,0.0,0.0,0.0,0.0,0.0,0.0,0.0,0.0,0.0,0.0,0.0,0.0,0.0,0.0,0.0,0.0,0.0,0.0,0.0,0.0,0.0,0.0,0.0,0.0,0.0,0.0,0.0,0.0,0.0,0.0,0.0,0.0,0.0,0.0,0.0,0.0,5.3843,5.7178,6.2512,7.0072,6.9996,6.9302,6.8261,6.32,5.813,0.0,0.0,0.0,0.0,0.0,0.0,0.0,0.0,0.0,0.0,0.0,0.0,0.0,0.0,0.0,0.0,0.0,0.0,0.0,0.0,0.0,0.0,0.0,0.0,0.0,0.0,0.0,0.0,0.0,0.0,0.0,0.0,0.0,0.0,0.0,0.0,0.0,0.0,0.0,0.0,4.0651,4.1149,4.1725,0.0,0.0,0.0,0.0,0.0,0.0,4.2215,4.2468,0.0,0.0,0.0,0.0,0.0,0.0,0.0,0.0,0.0,0.0,0.0,0.0,0.0,0.0,0.0,0.0,0.0,0.0,0.0,0.0,0.0,0.0,0.0,0.0,0.0,0.0,0.0,0.0,0.0,0.0,0.0,0.0,0.0,0.0,0.0,0.0,0.0,0.0,0.0,0.0,0.0,0.0,0.0,0.0,0.0,0.0,0.0,0.0,0.0,0.0,0.0,0.0,0.0,0.0,0.0,5.4152,5.9928,6.5325,7.0157,7.0411,6.9996,6.9027,6.3021,5.7903,0.0,0.0,0.0,0.0,0.0,0.0,0.0,0.0,0.0,0.0,0.0,0.0,0.0,0.0,0.0,0.0,0.0,0.0,0.0,0.0,0.0,0.0,0.0,0.0,0.0,0.0,0.0,0.0,0.0,0.0,0.0,0.0,0.0,0.0,0.0,0.0,0.0,0.0,0.0,0.0,0.0,4.1936,4.2051,4.2482,0.0,0.0,0.0,0.0,4.2812,4.3903,0.0,0.0,0.0,0.0,0.0,0.0,0.0,0.0,0.0,0.0,0.0,0.0,0.0,0.0,0.0,0.0,0.0,0.0,0.0,0.0,0.0,0.0,0.0,0.0,0.0,0.0,0.0,0.0,0.0,0.0,0.0,0.0,0.0,0.0,0.0,0.0,0.0,0.0,0.0,0.0,0.0,0.0,0.0,0.0,0.0,0.0,0.0,0.0,0.0,0.0,0.0,0.0,0.0,0.0,0.0,0.0,5.4179,5.9928,6.5334,7.011,7.0411,6.9988,6.9027,6.2288,5.7134,0.0,0.0,0.0,0.0,0.0,0.0,0.0,0.0,0.0,0.0,0.0,0.0,0.0,0.0,0.0,0.0,0.0,0.0,0.0,0.0,0.0,0.0,0.0,0.0,0.0,0.0,0.0,0.0,0.0,0.0,0.0,0.0,0.0,0.0,0.0,0.0,0.0,0.0,0.0,0.0,0.0,4.4393,4.3022,4.4121,4.4736,0.0,0.0,4.5083,4.5706,4.8265,0.0,0.0,0.0,0.0,0.0,0.0,0.0,0.0,0.0,0.0,0.0,0.0,0.0,0.0,0.0,0.0,0.0,0.0,0.0,0.0,0.0,0.0,0.0,0.0,0.0,0.0,0.0,0.0,0.0,0.0,0.0,0.0,0.0,0.0,0.0,0.0,0.0,0.0,0.0,0.0,0.0,0.0,0.0,0.0,0.0,0.0,0.0,0.0,0.0,0.0,0.0,0.0,0.0,0.0,0.0,5.2102,5.4869,6.2881,6.8125,7.0251,7.0386,7.0203,6.9827,6.1562,5.634,0.0,0.0,0.0,0.0,0.0,0.0,0.0,0.0,0.0,0.0,0.0,0.0,0.0,0.0,0.0,0.0,0.0,0.0,0.0,0.0,0.0,0.0,0.0,0.0,0.0,0.0,0.0,0.0,0.0,0.0,0.0,0.0,0.0,0.0,0.0,0.0,0.0,0.0,0.0,0.0,0.0,0.0,4.4451,4.5702,0.0,0.0,0.0,4.7701,4.841,0.0,0.0,0.0,0.0,0.0,0.0,0.0,0.0,0.0,0.0,0.0,0.0,0.0,0.0,0.0,0.0,0.0,0.0,0.0,0.0,0.0,0.0,0.0,0.0,0.0,0.0,0.0,0.0,0.0,0.0,0.0,0.0,0.0,0.0,0.0,0.0,0.0,0.0,0.0,0.0,0.0,0.0,0.0,0.0,0.0,0.0,0.0,0.0,0.0,0.0,0.0,0.0,0.0,0.0,0.0,0.0,0.0,5.5285,6.5096,7.0298,7.0286,7.0344,7.0386,7.025,6.2362,0.0,0.0,0.0,0.0,0.0,0.0,0.0,0.0,0.0,0.0,0.0,0.0,0.0,0.0,0.0,0.0,0.0,0.0,0.0,0.0,0.0,0.0,0.0,0.0,0.0,0.0,0.0,4.0282,0.0,0.0,0.0,0.0,0.0,0.0,0.0,0.0,0.0,0.0,0.0,0.0,0.0,0.0,4.7204,4.6276,4.8092,4.9661,0.0,0.0,5.0366,5.1155,5.2697,5.286,0.0,0.0,0.0,0.0,0.0,0.0,0.0,0.0,0.0,0.0,0.0,0.0,0.0,0.0,0.0,0.0,0.0,0.0,0.0,0.0,0.0,0.0,0.0,0.0,0.0,0.0,0.0,0.0,0.0,0.0,0.0,0.0,0.0,0.0,0.0,0.0,0.0,0.0,0.0,0.0,0.0,0.0,0.0,0.0,0.0,0.0,0.0,0.0,0.0,0.0,0.0,0.0,0.0,0.0,0.0,5.5417,6.5068,7.0238,7.0315,7.0324,7.0328,7.0326,6.5723,6.0911,0.0,0.0,0.0,0.0,0.0,0.0,0.0,0.0,0.0,0.0,0.0,0.0,0.0,0.0,0.0,0.0,0.0,0.0,0.0,0.0,0.0,0.0,0.0,0.0,0.0,0.0,0.0,0.0,0.0,0.0,0.0,0.0,0.0,0.0,0.0,0.0,0.0,0.0,0.0,0.0,0.0,4.9687,4.8615,5.1772,5.4156,0.0,0.0,5.3418,5.4016,5.6692,5.6701,5.078,0.0,0.0,0.0,0.0,0.0,0.0,0.0,0.0,0.0,0.0,0.0,0.0,0.0,0.0,0.0,0.0,0.0,0.0,0.0,0.0,0.0,0.0,0.0,0.0,0.0,0.0,0.0,0.0,0.0,0.0,0.0,0.0,0.0,0.0,0.0,0.0,0.0,0.0,0.0,0.0,0.0,0.0,0.0,0.0,0.0,0.0,0.0,0.0,0.0,0.0,0.0,0.0,0.0,5.5179,5.5648,6.5106,7.0149,7.0238,7.0289,7.0358,7.0411,6.6061,6.1521,0.0,0.0,0.0,0.0,0.0,0.0,0.0,0.0,0.0,0.0,0.0,0.0,0.0,0.0,0.0,0.0,0.0,0.0,0.0,0.0,0.0,0.0,0.0,0.0,0.0,0.0,0.0,0.0,4.1989,4.2482,4.28,0.0,0.0,0.0,0.0,0.0,0.0,0.0,0.0,0.0,0.0,5.1561,5.1592,5.3809,0.0,0.0,5.5774,5.5922,5.6523,5.6822,5.5837,5.2433,5.0978,0.0,0.0,0.0,0.0,0.0,0.0,0.0,0.0,0.0,0.0,0.0,0.0,0.0,0.0,0.0,0.0,0.0,0.0,0.0,0.0,0.0,0.0,0.0,0.0,0.0,0.0,0.0,0.0,0.0,0.0,0.0,0.0,0.0,0.0,0.0,0.0,0.0,0.0,0.0,0.0,0.0,0.0,0.0,0.0,0.0,0.0,0.0,0.0,0.0,0.0,0.0,0.0,5.5439,5.5839,6.5153,7.0021,7.0185,7.0246,7.0294,7.0326,6.7354,6.3672,0.0,0.0,0.0,0.0,0.0,0.0,0.0,0.0,0.0,0.0,0.0,0.0,0.0,0.0,0.0,0.0,0.0,0.0,0.0,0.0,0.0,0.0,0.0,0.0,0.0,0.0,0.0,0.0,4.257,4.316,4.3793,0.0,0.0,0.0,0.0,0.0,0.0,0.0,0.0,0.0,0.0,5.2986,5.3948,5.568,5.7061,5.7462,5.7217,5.7255,5.7902,5.6859,5.5244,5.3188,0.0,0.0,0.0,0.0,0.0,0.0,0.0,0.0,0.0,0.0,0.0,0.0,0.0,0.0,0.0,0.0,0.0,0.0,0.0,0.0,0.0,0.0,0.0,0.0,0.0,0.0,0.0,0.0,0.0,0.0,4.0113,0.0,0.0,0.0,0.0,0.0,0.0,0.0,0.0,0.0,0.0,0.0,0.0,0.0,0.0,0.0,0.0,0.0,0.0,0.0,0.0,0.0,0.0,5.5791,5.5933,6.5123,7.0004,7.0176,7.0185,7.0243,7.0402,7.0288,6.8112,6.3613,0.0,0.0,0.0,0.0,0.0,0.0,0.0,0.0,0.0,0.0,0.0,0.0,0.0,0.0,0.0,0.0,0.0,0.0,0.0,0.0,0.0,0.0,0.0,0.0,0.0,0.0,4.2746,4.3169,4.381,0.0,0.0,0.0,0.0,0.0,0.0,0.0,0.0,0.0,0.0,5.1817,5.3971,5.535,5.757,5.9026,5.9074,5.779,5.7093,5.785,5.7262,5.5684,0.0,0.0,0.0,0.0,0.0,0.0,0.0,0.0,0.0,0.0,0.0,0.0,0.0,0.0,0.0,0.0,0.0,0.0,0.0,0.0,0.0,0.0,0.0,0.0,0.0,0.0,0.0,4.2721,4.2307,0.0,0.0,0.0,0.0,0.0,0.0,0.0,0.0,0.0,0.0,0.0,4.7014,4.7919,0.0,0.0,0.0,0.0,0.0,0.0,0.0,0.0,0.0,0.0,0.0,0.0,5.6276,5.7528,6.5568,6.9995,7.0176,7.0185,7.0272,7.0402,7.0411,6.854,6.458,0.0,0.0,0.0,0.0,0.0,0.0,0.0,0.0,0.0,0.0,0.0,0.0,0.0,0.0,0.0,0.0,0.0,0.0,0.0,0.0,0.0,0.0,0.0,0.0,0.0,4.4839,0.0,0.0,0.0,0.0,0.0,0.0,0.0,0.0,0.0,0.0,0.0,4.8497,5.0902,5.2877,5.4663,5.6176,5.7556,5.84,0.0,0.0,0.0,0.0,0.0,0.0,0.0,0.0,0.0,0.0,0.0,0.0,0.0,0.0,5.3948,5.1279,5.0623,5.0608,5.1166,0.0,0.0,0.0,0.0,0.0,0.0,0.0,0.0,0.0,0.0,0.0,0.0,0.0,0.0,4.4856,0.0,4.4342,0.0,0.0,0.0,0.0,0.0,0.0,0.0,0.0,4.6953,4.8475,4.9748,5.1137,5.2068,0.0,5.2929,5.1447,0.0,0.0,0.0,0.0,0.0,0.0,0.0,0.0,5.7003,5.8203,6.5842,7.0032,7.0185,7.022,7.0307,7.0402,7.0411,6.9115,6.6472,6.2033,5.851,0.0,0.0,0.0,0.0,0.0,0.0,0.0,0.0,0.0,0.0,0.0,0.0,0.0,0.0,0.0,0.0,0.0,0.0,0.0,0.0,0.0,0.0,0.0,4.6379,0.0,0.0,0.0,0.0,0.0,0.0,0.0,0.0,0.0,4.8537,4.9383,5.0862,5.3041,5.4464,5.5765,5.7042,0.0,0.0,0.0,0.0,0.0,0.0,0.0,5.5419,5.4611,5.4359,5.4575,5.5605,5.6695,5.7416,5.7416,0.0,0.0,5.3083,5.2454,5.2711,5.3518,5.3665,5.3995,5.5086,5.5497,5.5787,0.0,0.0,0.0,0.0,0.0,0.0,0.0,0.0,4.5818,4.6647,0.0,4.6291,0.0,0.0,0.0,0.0,0.0,4.6482,0.0,0.0,5.0993,5.3155,5.3486,5.4939,5.6085,5.6895,5.6467,5.6153,5.5984,5.4499,0.0,0.0,0.0,0.0,0.0,0.0,5.796,5.84,6.5983,7.0048,7.0185,7.0272,7.0358,7.0402,7.0411,6.999,6.9188,6.6463,6.4179,6.2353,5.6399,0.0,0.0,0.0,0.0,0.0,0.0,0.0,0.0,0.0,0.0,0.0,0.0,0.0,0.0,0.0,0.0,0.0,0.0,0.0,0.0,4.7454,0.0,0.0,0.0,0.0,0.0,0.0,0.0,0.0,0.0,0.0,5.1222,5.2361,5.3934,5.5538,0.0,0.0,0.0,0.0,5.8439,5.9158,5.8595,5.8104,5.8068,5.817,5.7464,5.5191,0.0,0.0,5.8596,5.873,5.8953,5.8842,5.9011,5.8254,5.6327,5.5809,5.5886,5.661,5.6841,5.7432,5.8791,5.8782,5.8776,5.2914,0.0,0.0,0.0,0.0,4.9326,5.0766,5.2846,5.2222,5.161,5.0913,4.9305,0.0,0.0,0.0,0.0,0.0,0.0,4.9687,5.207,5.3433,5.5247,5.7508,5.9168,6.0381,6.108,6.2314,6.2863,6.29,6.3134,5.8909,5.0445,0.0,0.0,0.0,0.0,5.9393,6.2568,6.7392,7.0022,7.0185,7.0211,7.0298,7.0402,7.0411,7.0296,7.0029,6.8646,6.6751,6.4217,6.1228,0.0,0.0,0.0,0.0,0.0,0.0,0.0,0.0,0.0,0.0,0.0,0.0,0.0,0.0,0.0,0.0,0.0,0.0,0.0,4.9926,5.0573,5.0627,0.0,0.0,0.0,0.0,0.0,0.0,0.0,0.0,0.0,5.4826,5.4394,5.449,0.0,0.0,5.65,5.7824,5.819,5.8829,6.0149,6.0259,0.0,5.9429,5.9387,5.9186,5.8482,6.0545,6.2278,6.2337,6.3312,6.3979,6.3393,6.3339,6.2945,6.1672,5.9457,5.8042,5.8169,5.9069,6.0033,6.0541,6.176,6.298,6.1009,5.6218,5.3182,5.295,5.4563,5.4612,5.5794,5.7631,5.711,5.6394,5.5398,5.3832,5.1749,4.9383,4.8257,0.0,0.0,0.0,5.3649,5.5868,5.6822,5.829,6.0199,6.1972,6.299,6.3368,6.4918,6.5681,6.5595,6.5334,6.1892,5.5497,0.0,0.0,5.4919,5.8565,6.1693,6.4346,6.8026,7.0013,7.0123,7.0203,7.0268,7.0402,7.0411,7.0411,7.0411,6.9911,6.8675,6.6628,6.4508,6.1437,0.0,0.0,0.0,0.0,0.0,0.0,0.0,0.0,0.0,0.0,0.0,4.7739,0.0,0.0,0.0,0.0,5.0416,5.1018,5.1996,5.218,0.0,0.0,0.0,0.0,0.0,0.0,0.0,5.4718,5.7201,5.9075,5.9131,5.8723,5.8446,5.8549,5.8857,5.9441,6.0316,0.0,6.123,6.2459,6.2716,6.2624,6.216,6.2126,6.2194,6.2255,6.3498,6.4742,6.5141,6.6086,6.6598,6.6194,6.6111,6.599,6.5462,6.3615,6.1973,6.1425,6.205,6.2944,6.3567,6.4681,6.5609,6.8898,6.7656,6.0444,5.848,6.0129,6.0056,6.0413,6.0958,6.0921,6.0823,6.0566,5.8988,5.7384,5.5695,5.4315,0.0,5.5071,5.7299,5.8364,5.8657,6.086,6.1924,6.2083,6.3836,6.4572,6.4396,6.5459,6.589,6.5629,6.3578,6.2456,6.2405,6.3524,6.2347,5.9393,6.249,6.4439,6.477,6.8225,6.9994,7.0021,7.0191,7.0319,7.0411,7.0411,7.0411,7.0411,7.0411,7.0034,6.9158,6.6675,6.436,6.2316,0.0,0.0,0.0,0.0,0.0,0.0,0.0,0.0,0.0,0.0,0.0,0.0,0.0,0.0,0.0,5.4038,0.0,5.4054,5.3336,0.0,0.0,0.0,5.6706,5.9427,6.0478,6.1353,6.2124,0.0,0.0,6.3646,6.4394,6.4651,6.3907,6.4162,6.4397,6.432,6.434,6.4756,6.5344,6.5542,6.5552,6.5356,6.548,6.5568,6.5672,6.6039,6.6426,6.7079,6.7501,6.7625,6.7654,6.774,6.7813,6.7821,6.7635,6.7364,6.5827,6.5511,6.5929,6.7101,6.7214,6.7176,7.2789,7.2907,6.9878,6.751,6.5717,6.5094,6.527,6.5888,6.5301,6.4347,6.3099,6.1459,5.9501,5.7446,5.7655,5.8535,5.9905,6.0456,6.1741,6.3576,6.415,6.4738,6.5424,6.7135,6.7576,6.6943,6.7823,6.7976,6.7323,6.6773,6.6246,6.5792,6.6098,6.5062,6.2699,6.3595,6.5476,6.8329,6.9311,6.9891,7.014,7.0264,7.0328,7.0402,7.0411,7.0411,7.0411,7.0411,7.0288,7.008,6.8856,6.697,6.436,6.0486,0.0,0.0,0.0,0.0,0.0,0.0,0.0,0.0,0.0,5.1092,5.0635,0.0,5.2085,0.0,5.5352,5.7612,5.8868,5.9411,0.0,0.0,6.0274,6.0572,6.1399,6.2952,6.3715,6.3105,6.5084,6.6514,6.6569,6.7855,6.9036,6.9685,6.6736,6.469,6.5219,6.5482,6.5876,6.6682,6.7038,6.709,6.7166,6.7107,6.7227,6.7292,6.7851,6.838,6.8659,6.9273,6.9679,6.9679,6.9696,6.975,6.975,6.975,6.9633,6.9195,6.8522,6.8042,6.845,6.8877,6.9303,7.5564,7.5858,7.461,7.3083,7.1321,6.9816,6.9412,6.9743,6.8972,6.771,6.6109,6.4127,6.2695,6.1814,6.1875,6.2622,6.3796,6.453,6.5595,6.6903,6.7247,6.7687,6.8141,6.9158,6.9328,6.8802,6.9342,6.9369,6.8887,6.8941,6.8786,6.8422,6.8527,6.8062,6.6951,6.5646,6.5844,6.7513,6.8555,6.9588,7.0662,7.0425,6.9879,6.9065,6.8646,6.8054,6.7116,6.6774,6.6584,6.6546,6.6129,6.5017,6.2969,6.0106,5.7454,0.0,0.0,0.0,0.0,0.0,0.0,0.0,0.0,0.0,0.0,0.0,5.4983,5.591,5.8745,6.0683,6.1173,6.1718,6.2345,6.3229,6.3672,6.4419,6.5792,6.7254,6.8096,6.7872,6.9212,7.0171,7.0272,7.103,7.1842,7.257,7.0294,6.8621,6.8963,6.9137,6.9379,6.979,7.0009,7.0105,7.0067,7.0105,6.9968,6.9787,7.0056,7.0287,7.0011,7.0616,7.1183,7.1214,7.1521,7.1789,7.1789,7.1789,7.1789,7.1705,7.1306,7.0582,6.9747,6.9896,7.0222,7.7399,7.7252,7.6555,7.6276,7.6093,7.3891,7.2899,7.2753,7.1967,7.0683,6.9068,6.6866,6.6292,6.6916,6.6256,6.6402,6.7357,6.8641,6.9325,6.9559,7.022,7.0564,7.0564,7.0675,7.0639,7.0417,7.0418,7.0308,7.0124,7.0211,7.0192,7.0118,7.024,7.0315,7.025,6.7724,6.6238,6.5933,6.7591,6.9312,7.1093,7.0167,6.8803,6.7134,6.6186,6.4914,6.3219,6.2269,6.1902,6.209,6.2015,6.177,6.1253,5.9315,5.7652,0.0,5.4405,0.0,0.0,0.0,0.0,0.0,0.0,0.0,0.0,5.7744,5.9065,6.097,6.2703,6.3451,6.2918,6.2842,6.3727,6.5747,6.6672,6.8189,7.0803,7.1845,7.2635,7.3538,7.3661,7.3699,7.3724,7.3815,7.3815,7.3846,7.3671,7.3367,7.3484,7.3139,7.2909,7.3231,7.3231,7.2801,7.2916,7.3039,7.2847,7.2279,7.2132,7.1999,7.1293,7.1811,7.2353,7.243,7.2878,7.3378,7.3507,7.3423,7.3423,7.3332,7.3286,7.2707,7.1336,7.092,7.0789,7.7913,7.7273,7.7142,7.7069,7.6995,7.5894,7.5065,7.439,7.3597,7.2349,7.0793,6.9706,6.9265,6.9412,6.9265,7.0,7.1321,7.1013,7.1541,7.2804,7.2951,7.3024,7.301,7.3038,7.2708,7.2018,7.1409,7.0748,7.011,7.0138,6.9821,6.9196,6.9187,6.8566,6.7405,0.0,0.0,0.0,6.969,6.9405,6.9745,6.748,6.6099,6.5715,6.436,0.0,6.3914,6.257,6.2382,6.3651,6.3124,0.0,0.0,0.0,0.0,0.0,0.0,0.0,0.0,0.0,0.0,0.0,6.1112,6.0868,5.9928,6.0603,6.1944,6.3877,6.4529,6.5661,6.7682,6.7944,6.8725,7.0538,7.0898,7.1564,7.2863,7.314,7.3577,7.4353,7.4469,7.4738,7.5361,7.5515,7.5476,7.5438,7.5515,7.55,7.5394,7.431,7.3503,7.3426,7.3572,7.3464,7.3464,7.3503,7.3527,7.3202,7.3209,7.314,7.2947,7.3077,7.3238,7.3238,7.3392,7.3546,7.3546,7.3507,7.3584,7.3507,7.3507,7.3378,7.2974,7.2921,7.2921,7.8369,0.0,7.7472,7.7326,0.0,7.6848,7.6481,7.6004,7.4808,7.3854,7.3032,7.2239,7.2092,7.2459,7.2055,7.2532,7.367,7.3252,7.3509,7.4294,7.4294,7.4294,7.4294,7.4294,7.4111,7.3656,7.2848,7.2275,7.1872,7.1468,7.1064,7.0697,7.0683,7.0284,6.9609,7.0432,7.1189,7.1794,7.0663,7.0594,7.1636,7.0024,6.8404,6.7023,6.5795,0.0,0.0,0.0,0.0,0.0,0.0,0.0,0.0,6.321,0.0,6.3877,6.2617,6.2231,6.3152,6.3282,6.3768,6.4769,6.6045,6.5885,6.3582,6.4723,6.6184,6.7618,6.8211,6.9268,7.1045,7.132,7.1718,7.2681,7.2803,7.3125,7.3923,7.4084,7.443,7.5168,7.5322,7.5515,7.5938,7.5976,7.5976,7.5976,7.5976,7.5976,7.5938,7.5284,7.4745,7.4738,7.4738,7.4738,7.4738,7.4745,7.4553,7.4238,7.4084,7.393,7.3546,7.3815,7.4084,7.4123,7.443,7.4745,7.4745,7.4745,7.4738,7.4738,7.4738,7.4738,7.4668,7.4084,7.3507,7.9066,7.8736,7.7876,7.7601,7.7686,7.7539,7.754,7.7511,0.0,0.0,0.0,7.4294,7.4389,7.4845,7.433,7.4463,7.5102,7.5124,7.5197,7.5307,7.5344,7.5307,7.5322,7.5309,7.5308,7.5249,7.4582,7.4247,7.421,7.3582,7.3287,7.325,7.325,7.3245,7.3296,7.3926,7.359,7.2262,7.1377,7.1851,7.3684,7.2709,7.0926,6.8365,6.7398,6.5736,6.3361,6.2325,6.194,6.2203,6.209,6.2231,6.2711,6.2758,6.2946,6.3312,6.3312,6.4017,6.5595,6.5842,6.6695,6.8525,7.0202,7.0057,6.7466,6.8969,7.0325,7.1114,7.1819,7.254,7.3259,7.3336,7.3442,7.3654,7.3699,7.4046,7.4776,7.493,7.52,7.5861,7.5938,7.5976,7.5976,7.5976,7.5976,7.5976,7.5976,7.5976,7.5976,7.5899,7.5822,7.5822,7.5745,7.5899,7.5976,7.5899,7.5707,7.5053,7.493,7.47,7.4238,7.4469,7.4899,7.493,7.5553,7.5861,7.5976,7.5861,7.5976,7.5976,7.5976,7.5976,7.5861,7.4899,7.4046,8.0897,7.9559,7.8736,7.8728,7.9112,7.8443,7.8471,7.8753,7.679,7.5542,7.4948,7.5375,7.5329,7.4911,7.5375,7.5713,7.5924,7.5946,7.6313,7.6943,7.6959,7.6959,7.6952,7.6866,7.6811,7.679,7.6492,7.6363,7.6326,7.6239,7.6175,7.6164,7.6175,7.5871,7.5343,7.5502,7.5324,7.4667,7.2778,7.2064,7.251,7.008,6.8271,6.7156,6.5729,6.4671,6.4209,6.2749,6.2419,6.3764,6.32,6.3917,6.6339,6.648,6.7335,6.901,6.9188,6.939,6.9717,6.9771,7.0287,7.1419,7.2378,7.2417,7.136,7.2157,7.2793,7.2961,7.3166,7.3325,7.3454,7.3531,7.3839,7.443,7.4553,7.4853,7.5668,7.5784,7.5822,7.5976,7.5976,7.5976,7.5976,7.5976,7.5976,7.5976,7.5976,7.5976,7.5976,7.5976,7.5976,7.5976,7.5976,7.5976,7.5976,7.5976,7.5899,7.5861,7.5745,7.5668,7.5476,7.5592,7.5707,7.5784,7.5899,7.5976,7.5976,7.5976,7.5976,7.5976,7.5976,7.5976,7.5976,7.5668,7.5553,8.2846,8.2001,8.0332,7.9809,7.998,7.9142,7.8926,7.9114,7.8203,7.7582,7.7286,7.7567,7.7529,7.7261,7.7567,7.7717,7.7769,7.7782,7.7955,7.8315,7.8315,7.8315,7.8355,7.8254,7.8253,7.8203,7.7699,7.7432,7.7394,7.7039,7.6813,7.6813,7.6813,7.6608,7.6322,7.6573,7.6624,7.6418,7.4724,7.3934,7.4132,7.289,7.1597,7.0336,6.9557,6.8714,6.7799,6.7013,6.6885,6.7536,6.7204,6.768,6.8964,6.9095,6.9521,7.0508,7.1014,7.1298,7.1337,7.1804,7.2302,7.2842,7.3611,7.3904,7.349,7.3435,7.3611,7.3995,7.4108,7.4353,7.4784,7.4853,7.5007,7.5361,7.5392,7.5592,7.5899,7.5976,7.5976,7.5976,7.5976,7.5976,7.5976,7.5976,7.5976,7.5976,7.5976,7.5976,7.5976,7.5976,7.5976,7.5976,7.5976,7.5976,7.5976,7.5976,7.5976,7.5976,7.5976,7.5976,7.5976,7.5976,7.5976,7.5976,7.5976,7.5976,7.5976,7.5976,7.5976,7.5976,7.5976,7.5976,7.5976,7.5976,7.5976,8.4643,8.4278,8.2,8.1013,8.0923,8.0212,7.9876,7.9876,7.9724,7.9648,7.9627,7.967,7.9524,7.9221,7.9536,7.9524,7.921,7.9198,7.9198,7.9198,7.9198,7.9198,7.9221,7.9324,7.9403,7.9349,7.8901,7.8673,7.8645,7.8059,7.7766,7.7766,7.7766,7.769,7.75,7.7759,7.7875,7.7682,7.667,7.6071,7.6023,7.5839,7.5042,7.3684,7.3507,7.2702,7.1068,7.0923,7.0769,7.0483,7.0467,7.0507,7.0639,7.08,7.0946,7.1053,7.1781,7.2249,7.2349,7.3107,7.368,7.3769,7.4507,7.5014,7.493,7.443,7.4315,7.4892,7.5007,7.5284,7.5784,7.5938,7.5976,7.5976,7.5976,7.5976,7.5976,7.5976,7.5976,7.5976,7.5976,7.5976,7.5976,7.5976,7.5976,7.5976,7.5976,7.5976,7.5976,7.5976,7.5976,7.5976,7.5976,7.5976,7.5976,7.5976,7.5976,7.5976,7.5976,7.5976,7.5976,7.5976,7.5976,7.5976,7.5976,7.5976,7.5976,7.5976,7.5976,7.5976,7.5976,7.5976,7.5976,7.5976,7.5976,8.5952,8.5071,8.3433,8.2615,8.2403,8.2091,8.19,8.1832,8.1234,8.0934,8.0852,8.1108,8.0438,7.9487,8.0577,8.0469,7.9316,7.921,7.9244,7.9256,7.9198,7.921,7.9313,7.9747,8.0008,8.0105,8.0476,8.063,8.063,8.0586,8.0619,8.0712,8.0712,8.0219,7.962,7.956,7.9199,7.8454,7.8277,7.7793,7.7001,7.6263,7.5449,7.4601,7.4504,7.3698,7.2032,7.1888,7.1498,7.0769,7.0723,7.0693,7.0777,7.1429,7.1889,7.1935,7.2633,7.3124,7.323,7.4034,7.4577,7.4661,7.5361,7.5822,7.5822,7.5784,7.5784,7.5822,7.5861,7.5861,7.5976,7.5976,7.5976,7.5976,7.5976,7.5976,7.5976,7.5976,7.5976,7.5976,7.5976,7.5976,7.5976,7.5976,7.5976,7.5976,7.5976,7.5976,7.5976,7.5976,7.5976,7.5976,7.5976,7.5976,7.5976,7.5976,7.5976,7.5976,7.5976,7.5976,7.5976,7.5976,7.5976,7.5976,7.5976,7.5976,7.5976,7.5976,7.5976,7.5976,7.5976,7.5976,7.5976,7.5976,7.5976,8.8061,8.7192,8.5511,8.3868,8.2544,8.2336,8.2016,8.1554,8.1246,8.1093,8.1231,8.2212,8.1837,8.0401,8.1442,8.133,8.0353,8.0306,8.0344,8.0344,8.0344,8.0344,8.0372,8.0573,8.0707,8.0716,8.0975,8.1093,8.1093,8.1093,8.1093,8.1093,8.1093,8.09,8.0592,8.0554,8.0362,8.0015,7.9515,7.9077,7.8662,7.7847,7.6793,7.5623,7.5447,7.4595,7.3022,7.2793,7.2371,7.1597,7.1942,7.1965,7.1549,7.2317,7.2793,7.2906,7.3651,7.4357,7.4848,7.5262,7.5476,7.5476,7.5784,7.5976,7.5976,7.5976,7.5976,7.5976,7.5976,7.5976,7.5976,7.5976,7.5976,7.5976,7.5976,7.5976,7.5976,7.5976,7.5976,7.5976,7.5976,7.5976,7.5976,7.5976,7.5976,7.5976,7.5976,7.5976,7.5976,7.5976,7.5976,7.5976,7.5976,7.5976,7.5976,7.5976,7.5976,7.5976,7.5976,7.5976,7.5976,7.5976,7.5976,7.5976,7.5976,7.5976,7.5976,7.5976,7.5976,7.5976,7.5976,7.5976,7.5976,7.5976,7.5976,8.9556,8.8786,8.7171,8.5247,8.3362,8.3093,8.267,8.2131,8.19,8.1785,8.1939,8.3324,8.317,8.2016,8.2401,8.2208,8.1477,8.1208,8.1093,8.1093,8.1093,8.1085,8.1093,8.1093,8.1093,8.1093,8.1085,8.1093,8.1093,8.1093,8.1093,8.1093,8.1093,8.1093,8.1093,8.1093,8.1093,8.1016,8.0477,8.0169,8.0054,7.9515,7.84,7.6861,7.6476,7.5639,7.4127,7.3812,7.329,7.2463,7.2962,7.303,7.2544,7.3243,7.3834,7.4154,7.4707,7.5322,7.5976,7.5976,7.5976,7.5976,7.5976,7.5976,7.5976,7.5976,7.5976,7.5976,7.5976,7.5976,7.5976,7.5976,7.5976,7.5976,7.5976,7.5976,7.5976,7.5976,7.5976,7.5976,7.5976,7.5976,7.5976,7.5976,7.5976,7.5976,7.5976,7.5976,7.5976,7.5976,7.5976,7.5976,7.5976,7.5976,7.5976,7.5976,7.5976,7.5976,7.5976,7.5976,7.5976,7.5976,7.5976,7.5976,7.5976,7.5976,7.5976,7.5976,7.5976,7.5976,7.5976,7.5976,7.5976,7.5976,7.5976,8.9855,8.9586,8.8017,8.6709,8.5816,8.5016,8.47,8.4324,8.3717,8.3447,8.3486,8.4362,8.4324,8.3478,8.3524,8.3062,8.2247,8.1516,8.117,8.117,8.1093,8.1093,8.1093,8.1093,8.1093,8.1093,8.1093,8.1093,8.1093,8.1093,8.1093,8.1093,8.1093,8.1093,8.1093,8.1093,8.1093,8.1054,8.1016,8.1016,8.1016,8.0939,8.0054,7.8523,7.7676,7.6823,7.5853,7.5084,7.4269,7.3493,7.3531,7.3531,7.35,7.4192,7.5,7.5707,7.5861,7.5938,7.5976,7.5976,7.5976,7.5976,7.5976,7.5976,7.5976,7.5976,7.5976,7.5976,7.5976,7.5976,7.5976,7.5976,7.5976,7.5976,7.5976,7.5976,7.5976,7.5976,7.5976,7.5976,7.5976,7.5976,7.5976,7.5976,7.5976,7.5976,7.5976,7.5976,7.5976,7.5976,7.5976,7.5976,7.5976,7.5976,7.5976,7.5976,7.5976,7.5976,7.5976,7.5976,7.5976,7.5976,7.5976,7.5976,7.5976,7.5976,7.5976,7.5976,7.5976,7.5976,7.5976,7.5976,7.5976,7.5976,7.5976,9.0432,8.9739,8.8094,8.6901,8.6055,8.5239,8.4593,8.4055,8.3755,8.3601,8.3755,8.4516,8.4709,8.4439,8.4439,8.3939,8.3093,8.2247,8.1862,8.1785,8.1323,8.1093,8.1093,8.1093,8.1093,8.1093,8.1093,8.1093,8.1093,8.1093,8.1093,8.1093,8.1093,8.1093,8.1093,8.1093,8.1093,8.1093,8.1093,8.1093,8.1093,8.1093,8.0746,8.0169,7.9323,7.8246,7.6868,7.6515,7.5707,7.4315,7.4776,7.4853,7.443,7.5091,7.5668,7.5938,7.5976,7.5976,7.5976,7.5976,7.5976,7.5976,7.5976,7.5976,7.5976,7.5976,7.5976,7.5976,7.5976,7.5976,7.5976,7.5976,7.5976,7.5976,7.5976,7.5976,7.5976,7.5976,7.5976,7.5976,7.5976,7.5976,7.5976,7.5976,7.5976,7.5976,7.5976,7.5976,7.5976,7.5976,7.5976,7.5976,7.5976,7.5976,7.5976,7.5976,7.5976,7.5976,7.5976,7.5976,7.5976,7.5976,7.5976,7.5976,7.5976,7.5976,7.5976,7.5976,7.5976,7.5976,7.5976,7.5976,7.5976,7.5976,7.5976,9.0124,8.9009,8.7863,8.6901,8.6085,8.5517,8.4939,8.4439,8.4401,8.4401,8.4516,8.5055,8.5277,8.5286,8.5286,8.4978,8.4286,8.3247,8.2716,8.267,8.217,8.19,8.19,8.19,8.19,8.19,8.19,8.1793,8.1516,8.1477,8.1477,8.1516,8.1246,8.1246,8.14,8.1246,8.1093,8.1093,8.1093,8.1093,8.1093,8.1093,8.1093,8.1016,8.0516,7.9438,7.7792,7.7445,7.663,7.5438,7.5707,7.5745,7.5245,7.5668,7.5976,7.5976,7.5976,7.5976,7.5976,7.5976,7.5976,7.5976,7.5976,7.5976,7.5976,7.5976,7.5976,7.5976,7.5976,7.5976,7.5976,7.5976,7.5976,7.5976,7.5976,7.5976,7.5976,7.5976,7.5976,7.5976,7.5976,7.5976,7.5976,7.5976,7.5976,7.5976,7.5976,7.5976,7.5976,7.5976,7.5976,7.5976,7.5976,7.5976,7.5976,7.5976,7.5976,7.5976,7.5976,7.5976,7.5976,7.5976,7.5976,7.5976,7.5976,7.5976,7.5976,7.5976,7.5976,7.5976,7.5976,7.5976,7.5976,7.5976,7.5976,8.9009,8.7748,8.744,8.7017,8.6247,8.6055,8.6055,8.5901,8.594,8.5824,8.5786,8.6017,8.5978,8.6017,8.594,8.6017,8.5747,8.4516,8.3755,8.3601,8.3447,8.3409,8.337,8.3332,8.3332,8.337,8.3486,8.3101,8.2324,8.2324,8.2285,8.2131,8.1554,8.1516,8.2208,8.1439,8.1093,8.1093,8.1093,8.1093,8.1093,8.1093,8.1093,8.1093,8.1016,8.0208,7.86,7.7792,7.6984,7.6169,7.5976,7.5976,7.5899,7.5976,7.5976,7.5976,7.5976,7.5976,7.5976,7.5976,7.5976,7.5976,7.5976,7.5976,7.5976,7.5976,7.5976,7.5976,7.5976,7.5976,7.5976,7.5976,7.5976,7.5976,7.5976,7.5976,7.5976,7.5976,7.5976,7.5976,7.5976,7.5976,7.5976,7.5976,7.5976,7.5976,7.5976,7.5976,7.5976,7.5976,7.5976,7.5976,7.5976,7.5976,7.5976,7.5976,7.5976,7.5976,7.5976,7.5976,7.5976,7.5976,7.5976,7.5976,7.5976,7.5976,7.5976,7.5976,7.5976,7.5976,7.5976,7.5976,7.5976,7.5976,7.5976,9.0133,8.9086,8.8517,8.7786,8.694,8.6363,8.6094,8.6094,8.6094,8.6094,8.6094,8.6094,8.6094,8.6094,8.6094,8.644,8.694,8.6401,8.5593,8.4593,8.3909,8.3678,8.3678,8.364,8.3601,8.3601,8.3601,8.3486,8.3255,8.3178,8.2947,8.2324,8.2054,8.1747,8.1516,8.1208,8.1093,8.1093,8.1093,8.1093,8.1093,8.1093,8.1093,8.1093,8.1093,8.0554,7.9438,7.8561,7.7753,7.6899,7.6322,7.5976,7.5976,7.5976,7.5976,7.5976,7.5976,7.5976,7.5976,7.5976,7.5976,7.5976,7.5976,7.5976,7.5976,7.5976,7.5976,7.5976,7.5976,7.5976,7.5976,7.5976,7.5976,7.5976,7.5976,7.5976,7.5976,7.5976,7.5976,7.5976,7.5976,7.5976,7.5976,7.5976,7.5976,7.5976,7.5976,7.5976,7.5976,7.5976,7.5976,7.5976,7.5976,7.5976,7.5976,7.5976,7.5976,7.5976,7.5976,7.5976,7.5976,7.5976,7.5976,7.5976,7.5976,7.5976,7.5976,7.5976,7.5976,7.5976,7.5976,7.5976,7.5976,7.5976,7.5976,8.9748,8.8893,8.8094,8.7632,8.7286,8.6478,8.6094,8.6094,8.6094,8.6094,8.6094,8.6094,8.6094,8.6094,8.6094,8.6594,8.7363,8.7401,8.7017,8.6247,8.5401,8.5016,8.4948,8.4632,8.4516,8.4516,8.4516,8.4362,8.4093,8.4055,8.3632,8.2901,8.2477,8.2093,8.1516,8.1246,8.1093,8.1093,8.1093,8.1093,8.1093,8.1093,8.1093,8.1093,8.1093,8.0823,8.0246,7.9438,7.8477,7.74,7.6476,7.6015,7.5976,7.5976,7.5976,7.5976,7.5976,7.5976,7.5976,7.5976,7.5976,7.5976,7.5976,7.5976,7.5976,7.5976,7.5976,7.5976,7.5976,7.5976,7.5976,7.5976,7.5976,7.5976,7.5976,7.5976,7.5976,7.5976,7.5976,7.5976,7.5976,7.5976,7.5976,7.5976,7.5976,7.5976,7.5976,7.5976,7.5976,7.5976,7.5976,7.5976,7.5976,7.5976,7.5976,7.5976,7.5976,7.5976,7.5976,7.5976,7.5976,7.5976,7.5976,7.5976,7.5976,7.5976,7.5976,7.5976,7.5976,7.5976,7.5976,7.5976,7.5976,7.5976,7.5976,8.8363,8.7478,8.6709,8.6978,8.744,8.6709,8.644,8.6324,8.6247,8.6324,8.6363,8.6209,8.617,8.6209,8.6324,8.6786,8.7401,8.7748,8.8209,8.8363,8.7863,8.7363,8.7132,8.6363,8.6094,8.6247,8.6017,8.5632,8.5209,8.4863,8.4478,8.3486,8.2832,8.2324,8.2131,8.1554,8.14,8.1285,8.1246,8.1246,8.1131,8.1093,8.1093,8.1093,8.1093,8.1054,8.0862,8.0123,7.8977,7.7515,7.6746,7.6399,7.6245,7.613,7.6322,7.6361,7.6169,7.6169,7.613,7.6053,7.5976,7.5976,7.5976,7.5976,7.5976,7.5976,7.5976,7.5976,7.5976,7.5976,7.5976,7.5976,7.5976,7.5976,7.5976,7.5976,7.5976,7.5976,7.5976,7.5976,7.5976,7.5976,7.5976,7.5976,7.5976,7.5976,7.5976,7.5976,7.5976,7.5976,7.5976,7.5976,7.5976,7.5976,7.5976,7.5976,7.5976,7.5976,7.5976,7.5976,7.5976,7.5976,7.5976,7.5976,7.5976,7.5976,7.5976,7.5976,7.5976,7.5976,7.5976,7.5976,7.5976,7.5976,7.5976,9.0056,8.9239,8.897,8.8671,8.8372,8.8102,8.7979,8.791,8.7286,8.7401,8.7632,8.6632,8.6555,8.7017,8.7055,8.7517,8.8286,8.894,8.9701,9.0325,8.9671,8.8902,8.8286,8.7478,8.7363,8.7671,8.6671,8.6324,8.6594,8.5478,8.4516,8.364,8.3409,8.2909,8.2401,8.267,8.2562,8.2054,8.1977,8.167,8.1246,8.117,8.1093,8.1093,8.1131,8.1093,8.1016,8.0285,7.9323,7.833,7.8023,7.7869,7.7753,7.7753,7.7676,7.7638,7.7253,7.6984,7.6861,7.6361,7.6053,7.5976,7.6015,7.5976,7.5976,7.5976,7.5976,7.5976,7.5976,7.5976,7.5976,7.5976,7.5976,7.5976,7.5976,7.5976,7.5976,7.5976,7.5976,7.5976,7.5976,7.5976,7.5976,7.5976,7.5976,7.5976,7.5976,7.5976,7.5976,7.5976,7.5976,7.5976,7.5976,7.5976,7.5976,7.5976,7.5976,7.5976,7.5976,7.5976,7.5976,7.5976,7.5976,7.5976,7.5976,7.5976,7.5976,7.5976,7.5976,7.5976,7.5976,7.5976,7.5976,7.5976,7.5976,9.0355,8.9855,8.9509,8.9325,8.9171,8.8872,8.8679,8.8603,8.8218,8.8218,8.8372,8.7709,8.7478,8.791,8.7948,8.8402,8.921,8.9663,9.0355,9.1018,9.0624,8.9787,8.8748,8.7825,8.7671,8.794,8.6786,8.644,8.6594,8.5824,8.5016,8.4324,8.417,8.3678,8.2939,8.3247,8.337,8.2909,8.287,8.2593,8.217,8.2131,8.19,8.1708,8.1593,8.1477,8.1093,8.0592,7.9939,7.9169,7.8715,7.8484,7.8484,7.8484,7.8484,7.8484,7.8061,7.783,7.7676,7.7015,7.6592,7.6476,7.6284,7.6015,7.5976,7.5976,7.5976,7.5976,7.5976,7.5976,7.5976,7.5976,7.5976,7.5976,7.5976,7.5976,7.5976,7.5976,7.5976,7.5976,7.5976,7.5976,7.5976,7.5976,7.5976,7.5976,7.5976,7.5976,7.5976,7.5976,7.5976,7.5976,7.5976,7.5976,7.5976,7.5976,7.5976,7.5976,7.5976,7.5976,7.5976,7.5976,7.5976,7.5976,7.5976,7.5976,7.5976,7.5976,7.5976,7.5976,7.5976,7.5976,7.5976,7.5976,7.5976,9.0047,8.997,8.9248,8.9363,8.9893,8.9286,8.9133,8.8987,8.891,8.894,8.8987,8.8795,8.8594,8.8833,8.8825,8.921,8.9855,9.0047,9.0517,9.1018,9.097,9.0402,8.9286,8.8363,8.8017,8.7863,8.6786,8.6401,8.6363,8.6124,8.5547,8.4939,8.4816,8.4478,8.3939,8.3901,8.3832,8.3755,8.3755,8.3563,8.3293,8.3101,8.267,8.2208,8.1939,8.1631,8.1246,8.0977,8.0669,7.9969,7.9169,7.8984,7.8869,7.883,7.8869,7.8869,7.883,7.8638,7.8523,7.7907,7.7407,7.733,7.6746,7.6169,7.6284,7.6284,7.6207,7.6015,7.5976,7.5976,7.5976,7.5976,7.5976,7.5976,7.5976,7.5976,7.5976,7.5976,7.5976,7.5976,7.5976,7.5976,7.5976,7.5976,7.5976,7.5976,7.5976,7.5976,7.5976,7.5976,7.5976,7.5976,7.5976,7.5976,7.5976,7.5976,7.5976,7.5976,7.5976,7.5976,7.5976,7.5976,7.5976,7.5976,7.5976,7.5976,7.5976,7.5976,7.5976,7.5976,7.5976,7.5976,7.5976,7.5976,7.5976,9.0941,9.0902,9.0748,9.0748,9.0864,9.0748,9.0633,9.0556,8.9902,8.9979,9.0248,8.9325,8.9133,8.9671,8.9671,8.9778,9.0047,9.0547,9.1056,9.1124,9.1201,9.1056,9.0441,8.9624,8.9316,8.8893,8.7748,8.7132,8.6863,8.5854,8.5124,8.5055,8.5047,8.4863,8.4824,8.5247,8.5209,8.4747,8.467,8.4362,8.3755,8.3216,8.2785,8.2439,8.1823,8.1362,8.117,8.1093,8.1016,8.0823,8.0592,8.0323,8.0323,8.0362,8.0362,8.0208,7.9785,7.9515,7.9361,7.8784,7.8253,7.8215,7.7946,7.7715,7.7053,7.7022,7.6669,7.6207,7.5976,7.6053,7.5976,7.5976,7.5976,7.5976,7.5976,7.5976,7.5976,7.5976,7.5976,7.5976,7.5976,7.5976,7.5976,7.5976,7.5976,7.5976,7.5976,7.5976,7.5976,7.5976,7.5976,7.5976,7.5976,7.5976,7.5976,7.5976,7.5976,7.5976,7.5976,7.5976,7.5976,7.5976,7.5976,7.5976,7.5976,7.5976,7.5976,7.5976,7.5976,7.5976,7.5976,7.5976,7.5976,7.5976,7.5976,9.1201,9.1201,9.1201,9.1201,9.1201,9.1201,9.1201,9.1124,9.0748,9.074,9.0979,9.0171,9.0133,9.0509,9.0509,9.0509,9.0594,9.0932,9.1201,9.1201,9.1163,9.097,9.0701,9.047,9.0201,8.9248,8.7555,8.6863,8.6478,8.6055,8.5747,8.5978,8.5701,8.6094,8.6478,8.6709,8.6748,8.6671,8.6247,8.5824,8.5324,8.4555,8.3824,8.3324,8.2401,8.167,8.167,8.1285,8.1131,8.1093,8.1093,8.1093,8.1093,8.1093,8.1093,8.0977,8.0746,8.04,8.0208,7.9631,7.9131,7.9092,7.8754,7.833,7.7984,7.7869,7.7445,7.6861,7.6592,7.6515,7.6053,7.5976,7.5976,7.5976,7.5976,7.5976,7.5976,7.5976,7.5976,7.5976,7.5976,7.5976,7.5976,7.5976,7.5976,7.5976,7.5976,7.5976,7.5976,7.5976,7.5976,7.5976,7.5976,7.5976,7.5976,7.5976,7.5976,7.5976,7.5976,7.5976,7.5976,7.5976,7.5976,7.5976,7.5976,7.5976,7.5976,7.5976,7.5976,7.5976,7.5976,7.5976,7.5976,7.5976,7.5976,9.1201,9.1201,9.1201,9.1201,9.1201,9.1201,9.1201,9.1201,9.1201,9.1124,9.1163,9.1201,9.0979,9.1163,9.1124,9.1163,9.1163,9.1171,9.1201,9.1201,9.0941,9.0547,9.0201,9.021,8.9748,8.8449,8.744,8.6786,8.6517,8.6363,8.6709,8.7286,8.694,8.7171,8.8132,8.8064,8.7795,8.8132,8.7709,8.7286,8.6978,8.6247,8.5401,8.4209,8.3285,8.2362,8.2131,8.1708,8.1285,8.1093,8.1093,8.1093,8.1093,8.1093,8.1093,8.1093,8.1016,8.0977,8.0823,8.04,7.9977,7.9969,7.94,7.8869,7.8754,7.8677,7.8292,7.7715,7.7292,7.6945,7.6284,7.6053,7.6015,7.5976,7.5976,7.5976,7.5976,7.5976,7.5976,7.5976,7.5976,7.5976,7.5976,7.5976,7.5976,7.5976,7.5976,7.5976,7.5976,7.5976,7.5976,7.5976,7.5976,7.5976,7.5976,7.5976,7.5976,7.5976,7.5976,7.5976,7.5976,7.5976,7.5976,7.5976,7.5976,7.5976,7.5976,7.5976,7.5976,7.5976,7.5976,7.5976,7.5976,7.5976,7.5976,9.1201,9.1201,9.1201,9.1201,9.1201,9.1201,9.1201,9.1201,9.1201,9.1201,9.1201,9.1201,9.1201,9.1201,9.1201,9.1201,9.1201,9.1201,9.1201,9.1047,9.0663,9.0124,8.997,8.9787,8.8863,8.8064,8.7795,8.7825,8.7248,8.7248,8.7671,8.8286,8.8218,8.8487,8.8679,8.8564,8.8603,8.894,8.8632,8.8218,8.7594,8.6709,8.5593,8.4362,8.3632,8.3131,8.2516,8.2208,8.1785,8.1208,8.1093,8.1093,8.1093,8.1093,8.1093,8.1093,8.1093,8.1093,8.1016,8.0977,8.0862,8.0862,8.0592,8.0169,7.9785,7.9554,7.9169,7.8446,7.7753,7.7253,7.7092,7.663,7.613,7.6053,7.6092,7.6053,7.6015,7.5976,7.5976,7.5976,7.5976,7.5976,7.5976,7.5976,7.5976,7.5976,7.5976,7.5976,7.5976,7.5976,7.5976,7.5976,7.5976,7.5976,7.5976,7.5976,7.5976,7.5976,7.5976,7.5976,7.5976,7.5976,7.5976,7.5976,7.5976,7.5976,7.5976,7.5976,7.5976,7.5976,7.5976,7.5976,7.5976,7.5976,7.5976,9.1201,9.1201,9.1201,9.1201,9.1201,9.1201,9.1201,9.1201,9.1201,9.1201,9.1201,9.1201,9.1201,9.1201,9.1201,9.1201,9.1201,9.1201,9.1201,9.1047,9.074,9.0278,9.0047,8.9863,8.918,8.8632,8.8825,8.8632,8.7555,8.7902,8.8517,8.9017,8.8949,8.9103,8.9671,8.9556,8.9633,8.9748,8.9517,8.9133,8.8547,8.7478,8.6055,8.517,8.4439,8.4055,8.3708,8.3093,8.2593,8.1939,8.1708,8.1477,8.1246,8.1131,8.1093,8.1093,8.1093,8.1093,8.1093,8.1093,8.1054,8.1093,8.1093,8.0939,8.0592,8.04,8.0054,7.9246,7.8446,7.7907,7.7907,7.7445,7.713,7.6746,7.6669,7.6438,7.6169,7.6053,7.6092,7.613,7.6053,7.6053,7.5976,7.5976,7.5976,7.5976,7.5976,7.5976,7.5976,7.5976,7.5976,7.5976,7.5976,7.5976,7.5976,7.5976,7.5976,7.5976,7.5976,7.5976,7.5976,7.5976,7.5976,7.5976,7.5976,7.5976,7.5976,7.5976,7.5976,7.5976,7.5976,7.5976,7.5976,7.5976,7.5976,9.1201,9.1201,9.1201,9.1201,9.1201,9.1201,9.1201,9.1201,9.1201,9.1201,9.1201,9.1201,9.1201,9.1201,9.1201,9.1201,9.1201,9.1201,9.1201,9.1124,9.0864,9.047,9.0278,9.0316,9.0017,8.8833,8.971,8.9355,8.8479,8.8632,8.9363,8.9825,8.9479,8.9748,9.071,9.0402,9.074,9.0748,9.0594,9.0163,8.9547,8.8325,8.7094,8.6363,8.5547,8.5047,8.4662,8.417,8.3439,8.2824,8.2516,8.2208,8.1516,8.1362,8.1246,8.1131,8.1093,8.1093,8.1093,8.1093,8.1093,8.1093,8.1093,8.1054,8.1054,8.09,8.0746,8.0054,7.9285,7.8792,7.8754,7.8561,7.8138,7.7753,7.7484,7.7323,7.6938,7.6746,7.6669,7.6553,7.6322,7.6207,7.6169,7.5976,7.5976,7.5976,7.5976,7.5976,7.5976,7.5976,7.5976,7.5976,7.5976,7.5976,7.5976,7.5976,7.5976,7.5976,7.5976,7.5976,7.5976,7.5976,7.5976,7.5976,7.5976,7.5976,7.5976,7.5976,7.5976,7.5976,7.5976,7.5976,7.5976,7.5976,7.5976,9.1201,9.1201,9.1201,9.1201,9.1201,9.1201,9.1201,9.1201,9.1201,9.1201,9.1201,9.1201,9.1201,9.1201,9.1201,9.1201,9.1201,9.1201,9.1201,9.1124,9.0624,9.0278,8.997,8.997,8.9902,8.9325,9.0364,9.0393,8.9701,8.9663,9.0171,9.071,9.0787,9.1018,9.1047,9.097,9.1095,9.1171,9.1056,9.0624,8.9778,8.8363,8.7594,8.7017,8.6401,8.5662,8.5162,8.4786,8.4324,8.3593,8.3447,8.3024,8.2324,8.217,8.1747,8.1323,8.1093,8.1093,8.1093,8.1093,8.1093,8.1093,8.1093,8.1093,8.1093,8.1093,8.1016,8.1016,8.0169,7.9708,7.9515,7.9023,7.86,7.8446,7.8361,7.8292,7.8023,7.7522,7.7445,7.7284,7.713,7.6669,7.6438,7.6169,7.5976,7.5976,7.5976,7.5976,7.5976,7.5976,7.5976,7.5976,7.5976,7.5976,7.5976,7.5976,7.5976,7.5976,7.5976,7.5976,7.5976,7.5976,7.5976,7.5976,7.5976,7.5976,7.5976,7.5976,7.5976,7.5976,7.5976,7.5976,7.5976,7.5976,7.5976,9.1201,9.1201,9.1201,9.1201,9.1201,9.1201,9.1201,9.1201,9.1201,9.1201,9.1201,9.1201,9.1201,9.1201,9.1201,9.1201,9.1201,9.1201,9.1201,9.1201,9.0778,9.0633,9.0671,9.0624,9.0364,9.0325,9.071,9.097,9.0663,9.0624,9.0893,9.1095,9.1201,9.1133,9.124,9.1201,9.1163,9.1201,9.1124,9.074,8.9932,8.9162,8.8363,8.7478,8.7017,8.6363,8.5786,8.5555,8.517,8.4516,8.4362,8.3939,8.3131,8.2593,8.2093,8.1862,8.1323,8.1131,8.1093,8.1093,8.1093,8.1093,8.1093,8.1093,8.1093,8.1093,8.1093,8.1054,8.0785,8.0554,8.0477,8.0208,7.9708,7.9438,7.9246,7.8946,7.8792,7.8523,7.8253,7.8099,7.7907,7.7515,7.7053,7.6592,7.6361,7.6169,7.6092,7.5976,7.5976,7.5976,7.5976,7.5976,7.5976,7.5976,7.5976,7.5976,7.5976,7.5976,7.5976,7.5976,7.5976,7.5976,7.5976,7.5976,7.5976,7.5976,7.5976,7.5976,7.5976,7.5976,7.5976,7.5976,7.5976,7.5976,7.5976,9.1201,9.1201,9.1201,9.1201,9.1201,9.1201,9.1201,9.1201,9.1201,9.1201,9.1201,9.1201,9.1201,9.1201,9.1201,9.1201,9.1201,9.1201,9.1201,9.1201,9.1201,9.1124,9.1086,9.1124,9.1124,9.1201,9.1086,9.1124,9.1163,9.1124,9.1124,9.1201,9.1201,9.1355,9.1441,9.1325,9.1201,9.1201,9.1201,9.0855,9.0355,9.0009,8.9162,8.8325,8.7594,8.7094,8.6555,8.6132,8.567,8.5363,8.5209,8.4786,8.3978,8.3478,8.2785,8.2362,8.1747,8.1362,8.1208,8.1093,8.1093,8.1093,8.1093,8.1093,8.1093,8.1093,8.1093,8.1093,8.1054,8.1016,8.1054,8.1016,8.0669,8.0285,8.0131,7.9669,7.9331,7.9331,7.9177,7.8938,7.8746,7.8554,7.7977,7.7246,7.6784,7.6399,7.6207,7.6015,7.5976,7.5976,7.5976,7.5976,7.5976,7.5976,7.5976,7.5976,7.5976,7.5976,7.5976,7.5976,7.5976,7.5976,7.5976,7.5976,7.5976,7.5976,7.5976,7.5976,7.5976,7.5976,7.5976,7.5976,7.5976,7.5976,7.5976,9.1201,9.1201,9.1171,9.1163,9.1201,9.1201,9.1201,9.1201,9.1201,9.1201,9.1201,9.1201,9.1201,9.1201,9.1201,9.1201,9.1201,9.1201,9.1201,9.1201,9.1201,9.1201,9.1201,9.1201,9.1201,9.1201,9.1201,9.1201,9.124,9.1441,9.1325,9.1201,9.1479,9.1825,9.1979,9.1902,9.1633,9.1556,9.1479,9.1355,9.0932,9.047,8.9816,8.9355,8.8286,8.7363,8.7286,8.6632,8.6209,8.6017,8.5901,8.5585,8.4863,8.4478,8.3785,8.2939,8.2439,8.1939,8.1516,8.117,8.1093,8.1093,8.1093,8.1093,8.1093,8.1093,8.1093,8.1093,8.1093,8.1093,8.1093,8.1054,8.0977,8.0862,8.0669,8.0554,8.0362,8.0477,8.0285,7.9862,7.9631,7.9477,7.9131,7.84,7.74,7.6976,7.6207,7.5976,7.5976,7.5976,7.5976,7.5976,7.5976,7.5976,7.5976,7.5976,7.5976,7.5976,7.5976,7.5976,7.5976,7.5976,7.5976,7.5976,7.5976,7.5976,7.5976,7.5976,7.5976,7.5976,7.5976,7.5976,7.5976,7.5976,7.5976,8.968,8.971,9.0171,9.0701,9.1201,9.1201,9.1201,9.1201,9.1201,9.1201,9.1201,9.1201,9.1201,9.1201,9.1201,9.1201,9.1201,9.1201,9.1201,9.1201,9.1201,9.1201,9.1201,9.1201,9.1201,9.124,9.124,9.1556,9.1979,9.1979,9.2402,9.2479,9.2287,9.2556,9.2787,9.2903,9.2749,9.2479,9.2249,9.1979,9.1825,9.1163,9.0432,8.9778,8.9547,8.8632,8.8171,8.7363,8.7017,8.6748,8.6401,8.5978,8.5547,8.5201,8.4585,8.3785,8.3362,8.267,8.1862,8.14,8.1093,8.1093,8.1093,8.1093,8.1093,8.1093,8.1093,8.1093,8.1093,8.1093,8.1093,8.1093,8.1054,8.1093,8.1093,8.1093,8.1093,8.1093,8.1016,8.04,8.0477,8.0516,8.0092,7.9631,7.8515,7.7476,7.6669,7.5976,7.5976,7.5976,7.5976,7.5976,7.5976,7.5976,7.5976,7.5976,7.5976,7.5976,7.5976,7.5976,7.5976,7.5976,7.5976,7.5976,7.5976,7.5976,7.5976,7.5976,7.5976,7.5976,7.5976,7.5976,7.5976,7.5976,7.5976,8.8679,8.8756,8.9286,9.0047,9.0787,9.0816,9.0979,9.1133,9.0893,9.1009,9.1163,9.1201,9.1201,9.1201,9.1201,9.1201,9.1201,9.1201,9.1201,9.1201,9.1201,9.1201,9.1201,9.124,9.1355,9.1479,9.1633,9.2018,9.2826,9.2826,9.3287,9.3633,9.3595,9.3749,9.3903,9.4066,9.3989,9.3557,9.2979,9.2518,9.2364,9.1595,9.1018,9.0278,8.997,8.9547,8.894,8.8248,8.7632,8.7248,8.6863,8.6401,8.6017,8.5585,8.5162,8.4786,8.4324,8.3593,8.2708,8.1708,8.1131,8.1093,8.1093,8.1093,8.1093,8.1093,8.1093,8.1093,8.1093,8.1093,8.1093,8.1093,8.1093,8.1093,8.1093,8.1093,8.1093,8.1093,8.1093,8.09,8.1016,8.0939,8.0592,8.0015,7.8861,7.7707,7.663,7.6053,7.5976,7.5976,7.5976,7.5976,7.5976,7.5976,7.5976,7.5976,7.5976,7.5976,7.5976,7.5976,7.5976,7.5976,7.5976,7.5976,7.5976,7.5976,7.5976,7.5976,7.5976,7.5976,7.5976,7.5976,7.5976,7.5976,7.5976,8.8603,8.8679,8.8679,8.9171,8.9816,8.9932,9.0432,9.1056,9.047,9.0556,9.1171,9.1201,9.1201,9.1201,9.1201,9.1201,9.1201,9.1201,9.1201,9.1201,9.1201,9.1201,9.1248,9.1325,9.1748,9.2287,9.2518,9.2864,9.3672,9.3672,9.4181,9.4758,9.4835,9.4835,9.4989,9.4989,9.4527,9.3758,9.3056,9.271,9.2441,9.1748,9.1133,9.0864,9.0432,9.0047,8.9787,8.9094,8.844,8.7902,8.7401,8.6901,8.6324,8.6094,8.5624,8.5047,8.4978,8.4439,8.3601,8.2054,8.1439,8.1246,8.1285,8.1093,8.1093,8.1093,8.1093,8.1093,8.1093,8.1093,8.1093,8.1093,8.1093,8.1093,8.1093,8.1093,8.1093,8.1093,8.1093,8.1093,8.1093,8.1016,8.0746,8.0246,7.9054,7.79,7.6707,7.6207,7.6245,7.6207,7.6284,7.5976,7.5976,7.5976,7.5976,7.5976,7.5976,7.5976,7.5976,7.5976,7.5976,7.5976,7.5976,7.5976,7.5976,7.5976,7.5976,7.5976,7.5976,7.5976,7.5976,7.5976,7.5976,7.5976,7.5976,8.6978,8.7017,8.7594,8.7979,8.8402,8.947,9.0393,9.1047,9.0932,9.0932,9.1171,9.1201,9.1201,9.1201,9.1201,9.1201,9.1201,9.1201,9.1201,9.1201,9.1201,9.1201,9.1325,9.1748,9.221,9.2595,9.2979,9.3749,9.4566,9.4566,9.5057,9.5634,9.5749,9.5865,9.5865,9.5865,9.5634,9.5211,9.421,9.3249,9.3095,9.2018,9.1201,9.1171,9.0855,9.0701,9.0624,8.9863,8.9286,8.8748,8.8248,8.7363,8.6863,8.6594,8.6017,8.5709,8.567,8.5324,8.4478,8.3362,8.2516,8.2054,8.1477,8.1208,8.1093,8.1093,8.1093,8.1093,8.1093,8.1093,8.1093,8.1093,8.1093,8.1093,8.1093,8.1093,8.1093,8.1093,8.1093,8.1093,8.1093,8.1093,8.09,8.0631,7.9631,7.9131,7.8169,7.7292,7.7099,7.6899,7.6823,7.6245,7.5976,7.5976,7.6015,7.6399,7.6322,7.6207,7.6092,7.5976,7.5976,7.5976,7.5976,7.5976,7.5976,7.5976,7.5976,7.5976,7.5976,7.5976,7.5976,7.5976,7.5976,7.5976,7.5976,8.6094,8.617,8.6709,8.7132,8.7517,8.8594,8.9517,9.0287,9.0633,9.0902,9.1171,9.1201,9.1201,9.1201,9.1201,9.1201,9.1201,9.1201,9.1201,9.1201,9.1201,9.1201,9.1479,9.2056,9.2595,9.2979,9.3749,9.4604,9.5412,9.5441,9.5749,9.6095,9.6288,9.6211,9.6211,9.6211,9.6211,9.5634,9.4634,9.3595,9.3133,9.2287,9.1201,9.1201,9.1124,9.1124,9.1018,9.0671,9.0201,8.9671,8.894,8.794,8.744,8.694,8.6401,8.6247,8.6017,8.5786,8.5209,8.4516,8.3747,8.3362,8.2208,8.1439,8.1208,8.1093,8.1093,8.1093,8.1093,8.1093,8.1093,8.1093,8.1093,8.1093,8.1093,8.1093,8.1093,8.1093,8.1093,8.1093,8.1093,8.1093,8.1054,8.0785,8.0285,8.0015,7.9708,7.883,7.7984,7.7753,7.7522,7.7015,7.6746,7.6976,7.7053,7.7169,7.6976,7.6515,7.6438,7.6438,7.5976,7.5976,7.5976,7.6015,7.6053,7.6053,7.6015,7.5976,7.5976,7.5976,7.5976,7.5976,7.5976,7.5976,7.5976,8.6058,8.6088,8.6126,8.6637,8.7314,8.7502,8.7993,8.8803,8.9556,9.0316,9.1095,9.1047,9.1086,9.1163,9.1201,9.1201,9.1201,9.1201,9.1201,9.1201,9.1201,9.1201,9.147,9.2056,9.2672,9.3557,9.4296,9.4835,9.6057,9.5826,9.5903,9.6211,9.6095,9.6172,9.6211,9.6134,9.6095,9.5518,9.4595,9.371,9.3095,9.2056,9.1317,9.1201,9.1201,9.1201,9.1124,9.1009,9.0633,9.0201,8.9701,8.8739,8.7979,8.7401,8.6824,8.6363,8.6094,8.6017,8.5863,8.517,8.4824,8.4286,8.3324,8.2208,8.1516,8.1323,8.1285,8.117,8.1093,8.1093,8.1093,8.1093,8.1093,8.1093,8.1093,8.1093,8.1093,8.1093,8.1093,8.1093,8.1093,8.1093,8.1093,8.09,8.0708,8.0669,8.04,8.0015,7.9208,7.8669,7.8438,7.8138,7.7984,7.8215,7.8215,7.7984,7.7753,7.733,7.7292,7.7176,7.663,7.6361,7.6669,7.6746,7.6284,7.6169,7.6361,7.6245,7.5976,7.5976,7.6015,7.5976,7.5976,7.5976,7.5976,8.5695,8.5729,8.6361,8.6754,8.6943,8.6982,8.763,8.8692,8.8979,8.9517,9.0278,9.0278,9.0676,9.1171,9.1201,9.1198,9.118,9.1201,9.1201,9.1189,9.1228,9.1198,9.1505,9.2079,9.2583,9.3101,9.3773,9.4643,9.5188,9.541,9.5804,9.6172,9.5769,9.5849,9.5831,9.5691,9.5553,9.5073,9.409,9.348,9.2826,9.1787,9.1317,9.1201,9.1201,9.1201,9.1201,9.1201,9.0932,9.0816,8.9633,8.8632,8.8479,8.7248,8.6247,8.617,8.6094,8.6094,8.6055,8.5863,8.5517,8.5085,8.4362,8.3401,8.2516,8.19,8.1708,8.1439,8.1131,8.1093,8.1093,8.1093,8.1093,8.1093,8.1093,8.1093,8.1093,8.1093,8.1093,8.1093,8.1093,8.1093,8.1093,8.1054,8.0939,8.1054,8.0939,8.0631,8.0323,7.9746,7.9361,7.9061,7.8946,7.9061,7.8754,7.8484,7.833,7.8176,7.8138,7.8061,7.7753,7.7599,7.7715,7.7522,7.7138,7.6976,7.6976,7.6784,7.6553,7.613,7.6092,7.6015,7.6015,7.6053,7.6015,8.4971,8.5092,8.5913,8.6462,8.6778,8.6817,8.728,8.7925,8.8188,8.8923,9.0011,9.0096,9.0551,9.1253,9.1419,9.1441,9.1354,9.1491,9.1507,9.1486,9.1346,9.1419,9.1714,9.218,9.2665,9.3013,9.3512,9.4378,9.4681,9.482,9.512,9.5412,9.5144,9.5361,9.5521,9.5656,9.524,9.445,9.3591,9.3012,9.2361,9.1668,9.1325,9.1215,9.1206,9.1206,9.1189,9.1189,9.1219,9.1095,8.9748,8.9017,8.8556,8.7132,8.617,8.6094,8.6094,8.6094,8.6094,8.6094,8.5786,8.5517,8.5324,8.4624,8.3593,8.2747,8.2247,8.1747,8.1362,8.1093,8.1093,8.1093,8.1093,8.1093,8.1093,8.1093,8.1093,8.1093,8.1093,8.1093,8.1093,8.1093,8.1093,8.1093,8.1093,8.1093,8.1093,8.0977,8.0785,8.0554,8.0246,8.0054,7.99,7.9823,7.9446,7.9254,7.9215,7.9169,7.9015,7.89,7.8754,7.8484,7.8292,7.8176,7.8023,7.7907,7.7792,7.7522,7.7253,7.6861,7.6784,7.7015,7.6861,7.6361,7.6245,8.417,8.4256,8.5183,8.6076,8.6713,8.6816,8.6907,8.686,8.7458,8.8595,8.9945,9.0171,9.0669,9.1437,9.1706,9.1689,9.1626,9.1712,9.1776,9.1862,9.1643,9.1626,9.1928,9.2421,9.2524,9.3167,9.3605,9.3758,9.4169,9.4289,9.4291,9.4421,9.4878,9.5017,9.4834,9.5395,9.4901,9.3714,9.2985,9.2419,9.2279,9.1727,9.1275,9.1303,9.1281,9.1256,9.1236,9.1232,9.1206,9.092,9.0364,8.9479,8.8248,8.7286,8.6517,8.6094,8.6094,8.6094,8.6094,8.6094,8.6094,8.6017,8.6055,8.5547,8.4593,8.3362,8.2678,8.2016,8.1554,8.117,8.1093,8.1093,8.1093,8.1093,8.1093,8.1093,8.1093,8.1093,8.1093,8.1093,8.1093,8.1093,8.1093,8.1093,8.1093,8.1093,8.1093,8.1093,8.1054,8.0977,8.0862,8.0746,8.0592,8.0439,8.0516,8.0323,8.0285,8.0208,7.9931,7.9785,7.9592,7.9215,7.8792,7.8907,7.9061,7.8754,7.8561,7.8253,7.8023,7.7984,7.7984,7.8253,7.7907,7.7169,7.6707,8.373,8.3886,8.541,8.6153,8.6406,8.7051,8.7173,8.706,8.7142,8.813,8.9327,8.9654,9.0388,9.1622,9.1888,9.1871,9.1849,9.191,9.1884,9.191,9.1821,9.1853,9.1927,9.2169,9.2281,9.2238,9.2498,9.3051,9.3414,9.3584,9.3782,9.421,9.4397,9.4076,9.4223,9.4734,9.4072,9.3106,9.2725,9.2305,9.2116,9.2,9.1728,9.1706,9.1684,9.1566,9.1527,9.1417,9.1338,9.1074,9.0334,8.9201,8.7786,8.7294,8.6748,8.6247,8.6094,8.6094,8.6094,8.6094,8.6094,8.6094,8.6094,8.5978,8.5324,8.4063,8.3062,8.2362,8.1785,8.14,8.1093,8.1093,8.1093,8.1093,8.1093,8.1093,8.1093,8.1093,8.1093,8.1093,8.1093,8.1093,8.1093,8.1093,8.1093,8.1093,8.1093,8.1093,8.1093,8.1054,8.1054,8.0939,8.0977,8.0939,8.1093,8.1054,8.0823,8.0823,8.0592,8.0477,8.0362,8.0131,7.9862,8.0054,8.0131,7.9746,7.9285,7.8784,7.8638,7.8869,7.8907,7.91,7.8869,7.8215,7.7676,8.3008,8.3203,8.4453,8.5273,8.5742,8.6562,8.6832,8.6775,8.7123,8.792,8.8989,8.9406,9.0223,9.1574,9.1969,9.2096,9.2087,9.2181,9.2253,9.2203,9.209,9.2123,9.2111,9.209,9.2214,9.2175,9.2232,9.2596,9.289,9.2976,9.3217,9.3594,9.3359,9.3515,9.3789,9.3672,9.3554,9.294,9.2695,9.2539,9.2226,9.2051,9.1901,9.188,9.1853,9.1777,9.1742,9.1672,9.1534,9.1114,9.0422,8.9138,8.8012,8.7409,8.6918,8.6363,8.6094,8.6094,8.6094,8.6094,8.6094,8.6094,8.6094,8.6017,8.5912,8.4727,8.3832,8.3093,8.2247,8.1785,8.1246,8.1093,8.1093,8.1093,8.1093,8.1093,8.1093,8.1093,8.1093,8.1093,8.1093,8.1093,8.1093,8.1093,8.1093,8.1093,8.1093,8.1093,8.1093,8.1093,8.1093,8.1093,8.1093,8.1093,8.1093,8.1093,8.1016,8.1054,8.1093,8.0939,8.0746,8.09,8.0977,8.0823,8.0669,8.0554,8.0092,7.9592,7.9708,8.0015,7.9939,7.9831,7.9523,7.9254,7.8823,8.2344,8.2422,8.3281,8.4023,8.4804,8.5664,8.6094,8.6328,8.6992,8.7734,8.8554,8.922,9.0096,9.1135,9.2059,9.2239,9.2348,9.2439,9.2535,9.25,9.2344,9.2348,9.2352,9.2393,9.24,9.2461,9.25,9.2539,9.2656,9.2695,9.2734,9.2773,9.3047,9.3359,9.332,9.3672,9.3906,9.3125,9.2851,9.3047,9.2695,9.2205,9.209,9.203,9.1997,9.195,9.1938,9.1888,9.1777,9.1298,9.0597,8.9454,8.8429,8.7757,8.6978,8.647,8.6192,8.6176,8.6118,8.6094,8.6102,8.611,8.6102,8.6058,8.5968,8.5536,8.4642,8.3617,8.2771,8.2016,8.1439,8.1093,8.1093,8.1093,8.1093,8.1093,8.1093,8.1093,8.1093,8.1093,8.1093,8.1093,8.1093,8.1093,8.1093,8.1093,8.1093,8.1093,8.1093,8.1093,8.1093,8.1093,8.1093,8.1093,8.1093,8.1093,8.1093,8.1093,8.1093,8.1093,8.1093,8.1093,8.1093,8.1093,8.0977,8.0862,8.09,8.0592,8.0823,8.0862,8.0669,8.04,8.0439,8.0169,8.0015,8.2304,8.2383,8.3242,8.3711,8.3984,8.4804,8.5547,8.6172,8.6367,8.6914,8.7812,8.8633,8.9684,9.125,9.2186,9.2461,9.2304,9.2461,9.2539,9.2539,9.25,9.2539,9.2539,9.25,9.2539,9.2578,9.2578,9.2578,9.2578,9.2578,9.2617,9.2656,9.2656,9.2812,9.2773,9.3125,9.3164,9.2734,9.2734,9.2812,9.2773,9.25,9.25,9.2487,9.2448,9.2336,9.2217,9.2147,9.2005,9.1638,9.1004,9.0022,8.9167,8.8349,8.7545,8.681,8.6539,8.6296,8.6246,8.6184,8.6176,8.6153,8.6168,8.6238,8.6192,8.6154,8.5113,8.3765,8.2902,8.2032,8.1485,8.117,8.1093,8.1093,8.1093,8.1093,8.1093,8.1093,8.1093,8.1093,8.1093,8.1093,8.1093,8.1093,8.1093,8.1093,8.1093,8.1093,8.1093,8.1093,8.1093,8.1093,8.1093,8.1093,8.1093,8.1093,8.1093,8.1093,8.1093,8.1093,8.1093,8.1093,8.1093,8.1093,8.1093,8.1016,8.1093,8.1093,8.1054,8.1016,8.1016,8.0977,8.1016,8.0939,8.0631]}]]